﻿<?xml version="1.0" encoding="UTF-8" standalone="no" ?>
<gpx xmlns="http://www.topografix.com/GPX/1/1" creator="CompeGPS" version="1.1" xmlns:xsi="http://www.w3.org/2001/XMLSchema-instance" xsi:schemaLocation="http://www.topografix.com/GPX/1/1 http://www.topografix.com/GPX/1/1/gpx.xsd http://www.garmin.com/xmlschemas/GpxExtensions/v3 http://www.garmin.com/xmlschemas/GpxExtensionsv3.xsd http://www.garmin.com/xmlschemas/TrackPointExtension/v1 http://www.garmin.com/xmlschemas/TrackPointExtensionv1.xsd" xmlns:gpxtpx="http://www.garmin.com/xmlschemas/TrackPointExtension/v1">
  <metadata>
    <link href="http://www.compegps.com">
      <text>CompeGPS TEAM, SL</text>
    </link>
    <time>2015-02-27T19:40:37Z</time>
    <bounds maxlat="42.558959" maxlon="0.353810" minlat="42.507882" minlon="0.295645"/>
  </metadata>
  <trk>
    <name>Cotiella</name>
    <trkseg>
      <trkpt lat="42.557564" lon="0.295689">
        <ele>1581.0</ele>
        <time>2009-05-23T10:57:34Z</time>
      </trkpt>
      <trkpt lat="42.557465" lon="0.295680">
        <ele>1610.0</ele>
        <time>2009-05-23T10:57:56Z</time>
      </trkpt>
      <trkpt lat="42.557451" lon="0.295815">
        <ele>1610.0</ele>
        <time>2009-05-23T10:58:19Z</time>
      </trkpt>
      <trkpt lat="42.557478" lon="0.295932">
        <ele>1610.0</ele>
        <time>2009-05-23T10:58:26Z</time>
      </trkpt>
      <trkpt lat="42.557531" lon="0.296049">
        <ele>1610.0</ele>
        <time>2009-05-23T10:58:33Z</time>
      </trkpt>
      <trkpt lat="42.557591" lon="0.296157">
        <ele>1600.0</ele>
        <time>2009-05-23T10:58:41Z</time>
      </trkpt>
      <trkpt lat="42.557677" lon="0.296219">
        <ele>1600.0</ele>
        <time>2009-05-23T10:58:51Z</time>
      </trkpt>
      <trkpt lat="42.557770" lon="0.296273">
        <ele>1600.0</ele>
        <time>2009-05-23T10:58:59Z</time>
      </trkpt>
      <trkpt lat="42.557850" lon="0.296336">
        <ele>1600.0</ele>
        <time>2009-05-23T10:59:06Z</time>
      </trkpt>
      <trkpt lat="42.557923" lon="0.296408">
        <ele>1600.0</ele>
        <time>2009-05-23T10:59:14Z</time>
      </trkpt>
      <trkpt lat="42.557996" lon="0.296480">
        <ele>1600.0</ele>
        <time>2009-05-23T10:59:21Z</time>
      </trkpt>
      <trkpt lat="42.558089" lon="0.296543">
        <ele>1606.0</ele>
        <time>2009-05-23T10:59:29Z</time>
      </trkpt>
      <trkpt lat="42.558175" lon="0.296579">
        <ele>1612.0</ele>
        <time>2009-05-23T10:59:37Z</time>
      </trkpt>
      <trkpt lat="42.558268" lon="0.296606">
        <ele>1618.0</ele>
        <time>2009-05-23T10:59:44Z</time>
      </trkpt>
      <trkpt lat="42.558335" lon="0.296696">
        <ele>1618.0</ele>
        <time>2009-05-23T10:59:50Z</time>
      </trkpt>
      <trkpt lat="42.558408" lon="0.296785">
        <ele>1618.0</ele>
        <time>2009-05-23T10:59:56Z</time>
      </trkpt>
      <trkpt lat="42.558468" lon="0.296893">
        <ele>1618.0</ele>
        <time>2009-05-23T11:00:02Z</time>
      </trkpt>
      <trkpt lat="42.558494" lon="0.297010">
        <ele>1612.0</ele>
        <time>2009-05-23T11:00:08Z</time>
      </trkpt>
      <trkpt lat="42.558514" lon="0.297136">
        <ele>1612.0</ele>
        <time>2009-05-23T11:00:14Z</time>
      </trkpt>
      <trkpt lat="42.558527" lon="0.297262">
        <ele>1612.0</ele>
        <time>2009-05-23T11:00:21Z</time>
      </trkpt>
      <trkpt lat="42.558474" lon="0.297369">
        <ele>1612.0</ele>
        <time>2009-05-23T11:00:27Z</time>
      </trkpt>
      <trkpt lat="42.558394" lon="0.297441">
        <ele>1612.0</ele>
        <time>2009-05-23T11:00:32Z</time>
      </trkpt>
      <trkpt lat="42.558321" lon="0.297513">
        <ele>1612.0</ele>
        <time>2009-05-23T11:00:38Z</time>
      </trkpt>
      <trkpt lat="42.558154" lon="0.297573">
        <ele>1624.3</ele>
        <time>2009-05-23T11:00:44Z</time>
      </trkpt>
      <trkpt lat="42.557987" lon="0.297629">
        <ele>1623.7</ele>
        <time>2009-05-23T11:00:52Z</time>
      </trkpt>
      <trkpt lat="42.557773" lon="0.297742">
        <ele>1623.3</ele>
        <time>2009-05-23T11:01:19Z</time>
      </trkpt>
      <trkpt lat="42.557415" lon="0.297946">
        <ele>1623.5</ele>
        <time>2009-05-23T11:02:16Z</time>
      </trkpt>
      <trkpt lat="42.557095" lon="0.298041">
        <ele>1622.5</ele>
        <time>2009-05-23T11:02:26Z</time>
      </trkpt>
      <trkpt lat="42.556848" lon="0.298097">
        <ele>1620.7</ele>
        <time>2009-05-23T11:02:34Z</time>
      </trkpt>
      <trkpt lat="42.556537" lon="0.298173">
        <ele>1619.4</ele>
        <time>2009-05-23T11:04:24Z</time>
      </trkpt>
      <trkpt lat="42.556406" lon="0.298154">
        <ele>1620.2</ele>
        <time>2009-05-23T11:04:43Z</time>
      </trkpt>
      <trkpt lat="42.556309" lon="0.298184">
        <ele>1620.6</ele>
        <time>2009-05-23T11:04:54Z</time>
      </trkpt>
      <trkpt lat="42.556256" lon="0.298250">
        <ele>1629.0</ele>
        <time>2009-05-23T11:05:07Z</time>
      </trkpt>
      <trkpt lat="42.556170" lon="0.298295">
        <ele>1629.0</ele>
        <time>2009-05-23T11:05:21Z</time>
      </trkpt>
      <trkpt lat="42.556136" lon="0.298411">
        <ele>1629.0</ele>
        <time>2009-05-23T11:05:33Z</time>
      </trkpt>
      <trkpt lat="42.556117" lon="0.298537">
        <ele>1629.0</ele>
        <time>2009-05-23T11:05:42Z</time>
      </trkpt>
      <trkpt lat="42.556123" lon="0.298672">
        <ele>1629.0</ele>
        <time>2009-05-23T11:05:52Z</time>
      </trkpt>
      <trkpt lat="42.556117" lon="0.298807">
        <ele>1629.0</ele>
        <time>2009-05-23T11:06:01Z</time>
      </trkpt>
      <trkpt lat="42.556136" lon="0.298932">
        <ele>1629.0</ele>
        <time>2009-05-23T11:06:10Z</time>
      </trkpt>
      <trkpt lat="42.556170" lon="0.299058">
        <ele>1635.0</ele>
        <time>2009-05-23T11:06:19Z</time>
      </trkpt>
      <trkpt lat="42.556203" lon="0.299175">
        <ele>1635.0</ele>
        <time>2009-05-23T11:06:27Z</time>
      </trkpt>
      <trkpt lat="42.556236" lon="0.299292">
        <ele>1635.0</ele>
        <time>2009-05-23T11:06:36Z</time>
      </trkpt>
      <trkpt lat="42.556296" lon="0.299400">
        <ele>1635.0</ele>
        <time>2009-05-23T11:06:48Z</time>
      </trkpt>
      <trkpt lat="42.556389" lon="0.299426">
        <ele>1635.0</ele>
        <time>2009-05-23T11:06:57Z</time>
      </trkpt>
      <trkpt lat="42.556482" lon="0.299426">
        <ele>1635.0</ele>
        <time>2009-05-23T11:07:06Z</time>
      </trkpt>
      <trkpt lat="42.556575" lon="0.299444">
        <ele>1645.0</ele>
        <time>2009-05-23T11:07:14Z</time>
      </trkpt>
      <trkpt lat="42.556641" lon="0.299534">
        <ele>1645.0</ele>
        <time>2009-05-23T11:07:22Z</time>
      </trkpt>
      <trkpt lat="42.556661" lon="0.299660">
        <ele>1645.0</ele>
        <time>2009-05-23T11:07:30Z</time>
      </trkpt>
      <trkpt lat="42.556661" lon="0.299786">
        <ele>1639.0</ele>
        <time>2009-05-23T11:07:38Z</time>
      </trkpt>
      <trkpt lat="42.556655" lon="0.299921">
        <ele>1639.0</ele>
        <time>2009-05-23T11:07:47Z</time>
      </trkpt>
      <trkpt lat="42.556648" lon="0.300046">
        <ele>1645.0</ele>
        <time>2009-05-23T11:07:57Z</time>
      </trkpt>
      <trkpt lat="42.556608" lon="0.300172">
        <ele>1637.0</ele>
        <time>2009-05-23T11:08:06Z</time>
      </trkpt>
      <trkpt lat="42.556641" lon="0.300298">
        <ele>1649.0</ele>
        <time>2009-05-23T11:08:16Z</time>
      </trkpt>
      <trkpt lat="42.556635" lon="0.300433">
        <ele>1649.0</ele>
        <time>2009-05-23T11:08:26Z</time>
      </trkpt>
      <trkpt lat="42.556615" lon="0.300558">
        <ele>1649.0</ele>
        <time>2009-05-23T11:08:34Z</time>
      </trkpt>
      <trkpt lat="42.556621" lon="0.300684">
        <ele>1657.0</ele>
        <time>2009-05-23T11:08:44Z</time>
      </trkpt>
      <trkpt lat="42.556595" lon="0.300801">
        <ele>1663.0</ele>
        <time>2009-05-23T11:08:55Z</time>
      </trkpt>
      <trkpt lat="42.556562" lon="0.300927">
        <ele>1663.0</ele>
        <time>2009-05-23T11:09:04Z</time>
      </trkpt>
      <trkpt lat="42.556515" lon="0.301034">
        <ele>1658.0</ele>
        <time>2009-05-23T11:09:11Z</time>
      </trkpt>
      <trkpt lat="42.556495" lon="0.301160">
        <ele>1672.0</ele>
        <time>2009-05-23T11:09:25Z</time>
      </trkpt>
      <trkpt lat="42.556462" lon="0.301277">
        <ele>1672.0</ele>
        <time>2009-05-23T11:09:35Z</time>
      </trkpt>
      <trkpt lat="42.556429" lon="0.301394">
        <ele>1672.0</ele>
        <time>2009-05-23T11:09:42Z</time>
      </trkpt>
      <trkpt lat="42.556362" lon="0.301493">
        <ele>1672.0</ele>
        <time>2009-05-23T11:09:52Z</time>
      </trkpt>
      <trkpt lat="42.556316" lon="0.301609">
        <ele>1666.0</ele>
        <time>2009-05-23T11:10:00Z</time>
      </trkpt>
      <trkpt lat="42.556263" lon="0.301726">
        <ele>1666.0</ele>
        <time>2009-05-23T11:10:09Z</time>
      </trkpt>
      <trkpt lat="42.556210" lon="0.301825">
        <ele>1666.0</ele>
        <time>2009-05-23T11:10:16Z</time>
      </trkpt>
      <trkpt lat="42.556170" lon="0.301942">
        <ele>1666.0</ele>
        <time>2009-05-23T11:10:26Z</time>
      </trkpt>
      <trkpt lat="42.556143" lon="0.302059">
        <ele>1666.0</ele>
        <time>2009-05-23T11:10:35Z</time>
      </trkpt>
      <trkpt lat="42.556117" lon="0.302184">
        <ele>1666.0</ele>
        <time>2009-05-23T11:10:45Z</time>
      </trkpt>
      <trkpt lat="42.556070" lon="0.302301">
        <ele>1675.0</ele>
        <time>2009-05-23T11:10:54Z</time>
      </trkpt>
      <trkpt lat="42.556070" lon="0.302427">
        <ele>1675.0</ele>
        <time>2009-05-23T11:11:04Z</time>
      </trkpt>
      <trkpt lat="42.556050" lon="0.302553">
        <ele>1675.0</ele>
        <time>2009-05-23T11:11:13Z</time>
      </trkpt>
      <trkpt lat="42.556004" lon="0.302660">
        <ele>1675.0</ele>
        <time>2009-05-23T11:11:22Z</time>
      </trkpt>
      <trkpt lat="42.555951" lon="0.302768">
        <ele>1675.0</ele>
        <time>2009-05-23T11:11:32Z</time>
      </trkpt>
      <trkpt lat="42.555884" lon="0.302867">
        <ele>1675.0</ele>
        <time>2009-05-23T11:11:42Z</time>
      </trkpt>
      <trkpt lat="42.555798" lon="0.302903">
        <ele>1675.0</ele>
        <time>2009-05-23T11:11:50Z</time>
      </trkpt>
      <trkpt lat="42.555705" lon="0.302957">
        <ele>1675.0</ele>
        <time>2009-05-23T11:12:01Z</time>
      </trkpt>
      <trkpt lat="42.555612" lon="0.303002">
        <ele>1668.0</ele>
        <time>2009-05-23T11:12:08Z</time>
      </trkpt>
      <trkpt lat="42.555519" lon="0.302993">
        <ele>1668.0</ele>
        <time>2009-05-23T11:12:17Z</time>
      </trkpt>
      <trkpt lat="42.555519" lon="0.303119">
        <ele>1675.0</ele>
        <time>2009-05-23T11:12:30Z</time>
      </trkpt>
      <trkpt lat="42.555612" lon="0.303136">
        <ele>1675.0</ele>
        <time>2009-05-23T11:12:42Z</time>
      </trkpt>
      <trkpt lat="42.555705" lon="0.303154">
        <ele>1681.0</ele>
        <time>2009-05-23T11:12:54Z</time>
      </trkpt>
      <trkpt lat="42.555798" lon="0.303181">
        <ele>1681.0</ele>
        <time>2009-05-23T11:13:04Z</time>
      </trkpt>
      <trkpt lat="42.555891" lon="0.303190">
        <ele>1681.0</ele>
        <time>2009-05-23T11:13:13Z</time>
      </trkpt>
      <trkpt lat="42.555984" lon="0.303181">
        <ele>1687.0</ele>
        <time>2009-05-23T11:13:22Z</time>
      </trkpt>
      <trkpt lat="42.556077" lon="0.303119">
        <ele>1687.0</ele>
        <time>2009-05-23T11:13:31Z</time>
      </trkpt>
      <trkpt lat="42.556163" lon="0.303047">
        <ele>1687.0</ele>
        <time>2009-05-23T11:13:39Z</time>
      </trkpt>
      <trkpt lat="42.556243" lon="0.302975">
        <ele>1680.0</ele>
        <time>2009-05-23T11:13:49Z</time>
      </trkpt>
      <trkpt lat="42.556329" lon="0.302903">
        <ele>1673.0</ele>
        <time>2009-05-23T11:13:59Z</time>
      </trkpt>
      <trkpt lat="42.556382" lon="0.302786">
        <ele>1673.0</ele>
        <time>2009-05-23T11:14:09Z</time>
      </trkpt>
      <trkpt lat="42.556442" lon="0.302687">
        <ele>1673.0</ele>
        <time>2009-05-23T11:14:18Z</time>
      </trkpt>
      <trkpt lat="42.556495" lon="0.302580">
        <ele>1673.0</ele>
        <time>2009-05-23T11:14:27Z</time>
      </trkpt>
      <trkpt lat="42.556548" lon="0.302481">
        <ele>1673.0</ele>
        <time>2009-05-23T11:14:36Z</time>
      </trkpt>
      <trkpt lat="42.556601" lon="0.302382">
        <ele>1673.0</ele>
        <time>2009-05-23T11:14:44Z</time>
      </trkpt>
      <trkpt lat="42.556655" lon="0.302283">
        <ele>1673.0</ele>
        <time>2009-05-23T11:14:53Z</time>
      </trkpt>
      <trkpt lat="42.556721" lon="0.302193">
        <ele>1673.0</ele>
        <time>2009-05-23T11:15:03Z</time>
      </trkpt>
      <trkpt lat="42.556774" lon="0.302094">
        <ele>1673.0</ele>
        <time>2009-05-23T11:15:10Z</time>
      </trkpt>
      <trkpt lat="42.556834" lon="0.301996">
        <ele>1680.0</ele>
        <time>2009-05-23T11:15:19Z</time>
      </trkpt>
      <trkpt lat="42.556900" lon="0.301906">
        <ele>1680.0</ele>
        <time>2009-05-23T11:15:28Z</time>
      </trkpt>
      <trkpt lat="42.556967" lon="0.301816">
        <ele>1680.0</ele>
        <time>2009-05-23T11:15:37Z</time>
      </trkpt>
      <trkpt lat="42.557053" lon="0.301753">
        <ele>1680.0</ele>
        <time>2009-05-23T11:15:50Z</time>
      </trkpt>
      <trkpt lat="42.557133" lon="0.301672">
        <ele>1692.0</ele>
        <time>2009-05-23T11:16:00Z</time>
      </trkpt>
      <trkpt lat="42.557226" lon="0.301672">
        <ele>1699.0</ele>
        <time>2009-05-23T11:16:09Z</time>
      </trkpt>
      <trkpt lat="42.557265" lon="0.301789">
        <ele>1699.0</ele>
        <time>2009-05-23T11:16:20Z</time>
      </trkpt>
      <trkpt lat="42.557259" lon="0.301915">
        <ele>1699.0</ele>
        <time>2009-05-23T11:16:30Z</time>
      </trkpt>
      <trkpt lat="42.557265" lon="0.302050">
        <ele>1704.0</ele>
        <time>2009-05-23T11:16:41Z</time>
      </trkpt>
      <trkpt lat="42.557239" lon="0.302166">
        <ele>1704.0</ele>
        <time>2009-05-23T11:16:51Z</time>
      </trkpt>
      <trkpt lat="42.557212" lon="0.302292">
        <ele>1704.0</ele>
        <time>2009-05-23T11:17:00Z</time>
      </trkpt>
      <trkpt lat="42.557212" lon="0.302418">
        <ele>1715.0</ele>
        <time>2009-05-23T11:17:13Z</time>
      </trkpt>
      <trkpt lat="42.557186" lon="0.302535">
        <ele>1715.0</ele>
        <time>2009-05-23T11:17:25Z</time>
      </trkpt>
      <trkpt lat="42.557159" lon="0.302660">
        <ele>1715.0</ele>
        <time>2009-05-23T11:17:34Z</time>
      </trkpt>
      <trkpt lat="42.557133" lon="0.302786">
        <ele>1715.0</ele>
        <time>2009-05-23T11:17:43Z</time>
      </trkpt>
      <trkpt lat="42.557113" lon="0.302912">
        <ele>1715.0</ele>
        <time>2009-05-23T11:17:53Z</time>
      </trkpt>
      <trkpt lat="42.557080" lon="0.303038">
        <ele>1732.0</ele>
        <time>2009-05-23T11:18:05Z</time>
      </trkpt>
      <trkpt lat="42.557046" lon="0.303154">
        <ele>1732.0</ele>
        <time>2009-05-23T11:18:12Z</time>
      </trkpt>
      <trkpt lat="42.557000" lon="0.303262">
        <ele>1732.0</ele>
        <time>2009-05-23T11:18:20Z</time>
      </trkpt>
      <trkpt lat="42.557086" lon="0.303316">
        <ele>1732.0</ele>
        <time>2009-05-23T11:18:34Z</time>
      </trkpt>
      <trkpt lat="42.557179" lon="0.303343">
        <ele>1713.0</ele>
        <time>2009-05-23T11:18:44Z</time>
      </trkpt>
      <trkpt lat="42.557265" lon="0.303397">
        <ele>1713.0</ele>
        <time>2009-05-23T11:18:54Z</time>
      </trkpt>
      <trkpt lat="42.557358" lon="0.303433">
        <ele>1713.0</ele>
        <time>2009-05-23T11:19:05Z</time>
      </trkpt>
      <trkpt lat="42.557451" lon="0.303469">
        <ele>1713.0</ele>
        <time>2009-05-23T11:19:13Z</time>
      </trkpt>
      <trkpt lat="42.557538" lon="0.303505">
        <ele>1718.0</ele>
        <time>2009-05-23T11:19:20Z</time>
      </trkpt>
      <trkpt lat="42.557617" lon="0.303577">
        <ele>1718.0</ele>
        <time>2009-05-23T11:19:27Z</time>
      </trkpt>
      <trkpt lat="42.557710" lon="0.303541">
        <ele>1718.0</ele>
        <time>2009-05-23T11:19:39Z</time>
      </trkpt>
      <trkpt lat="42.557777" lon="0.303433">
        <ele>1718.0</ele>
        <time>2009-05-23T11:19:51Z</time>
      </trkpt>
      <trkpt lat="42.557857" lon="0.303370">
        <ele>1718.0</ele>
        <time>2009-05-23T11:20:00Z</time>
      </trkpt>
      <trkpt lat="42.557943" lon="0.303334">
        <ele>1718.0</ele>
        <time>2009-05-23T11:20:09Z</time>
      </trkpt>
      <trkpt lat="42.558029" lon="0.303289">
        <ele>1727.0</ele>
        <time>2009-05-23T11:20:18Z</time>
      </trkpt>
      <trkpt lat="42.558116" lon="0.303235">
        <ele>1727.0</ele>
        <time>2009-05-23T11:20:28Z</time>
      </trkpt>
      <trkpt lat="42.558195" lon="0.303163">
        <ele>1727.0</ele>
        <time>2009-05-23T11:20:37Z</time>
      </trkpt>
      <trkpt lat="42.558282" lon="0.303119">
        <ele>1727.0</ele>
        <time>2009-05-23T11:20:45Z</time>
      </trkpt>
      <trkpt lat="42.558375" lon="0.303056">
        <ele>1727.0</ele>
        <time>2009-05-23T11:20:53Z</time>
      </trkpt>
      <trkpt lat="42.558454" lon="0.302984">
        <ele>1718.0</ele>
        <time>2009-05-23T11:21:03Z</time>
      </trkpt>
      <trkpt lat="42.558541" lon="0.302921">
        <ele>1718.0</ele>
        <time>2009-05-23T11:21:13Z</time>
      </trkpt>
      <trkpt lat="42.558634" lon="0.302858">
        <ele>1723.0</ele>
        <time>2009-05-23T11:21:21Z</time>
      </trkpt>
      <trkpt lat="42.558727" lon="0.302786">
        <ele>1723.0</ele>
        <time>2009-05-23T11:21:31Z</time>
      </trkpt>
      <trkpt lat="42.558813" lon="0.302732">
        <ele>1723.0</ele>
        <time>2009-05-23T11:21:39Z</time>
      </trkpt>
      <trkpt lat="42.558906" lon="0.302750">
        <ele>1723.0</ele>
        <time>2009-05-23T11:21:51Z</time>
      </trkpt>
      <trkpt lat="42.558906" lon="0.302885">
        <ele>1723.0</ele>
        <time>2009-05-23T11:22:12Z</time>
      </trkpt>
      <trkpt lat="42.558939" lon="0.303002">
        <ele>1723.0</ele>
        <time>2009-05-23T11:22:22Z</time>
      </trkpt>
      <trkpt lat="42.558919" lon="0.303128">
        <ele>1736.0</ele>
        <time>2009-05-23T11:22:36Z</time>
      </trkpt>
      <trkpt lat="42.558939" lon="0.303253">
        <ele>1741.0</ele>
        <time>2009-05-23T11:22:48Z</time>
      </trkpt>
      <trkpt lat="42.558899" lon="0.303370">
        <ele>1741.0</ele>
        <time>2009-05-23T11:23:06Z</time>
      </trkpt>
      <trkpt lat="42.558846" lon="0.303469">
        <ele>1741.0</ele>
        <time>2009-05-23T11:23:18Z</time>
      </trkpt>
      <trkpt lat="42.558853" lon="0.303595">
        <ele>1741.0</ele>
        <time>2009-05-23T11:23:32Z</time>
      </trkpt>
      <trkpt lat="42.558839" lon="0.303720">
        <ele>1759.0</ele>
        <time>2009-05-23T11:23:48Z</time>
      </trkpt>
      <trkpt lat="42.558846" lon="0.303846">
        <ele>1759.0</ele>
        <time>2009-05-23T11:24:03Z</time>
      </trkpt>
      <trkpt lat="42.558820" lon="0.303963">
        <ele>1759.0</ele>
        <time>2009-05-23T11:24:18Z</time>
      </trkpt>
      <trkpt lat="42.558826" lon="0.304089">
        <ele>1759.0</ele>
        <time>2009-05-23T11:24:37Z</time>
      </trkpt>
      <trkpt lat="42.558800" lon="0.304214">
        <ele>1747.0</ele>
        <time>2009-05-23T11:24:51Z</time>
      </trkpt>
      <trkpt lat="42.558746" lon="0.304322">
        <ele>1747.0</ele>
        <time>2009-05-23T11:25:04Z</time>
      </trkpt>
      <trkpt lat="42.558680" lon="0.304421">
        <ele>1747.0</ele>
        <time>2009-05-23T11:25:18Z</time>
      </trkpt>
      <trkpt lat="42.558653" lon="0.304547">
        <ele>1766.0</ele>
        <time>2009-05-23T11:25:44Z</time>
      </trkpt>
      <trkpt lat="42.558607" lon="0.304655">
        <ele>1775.0</ele>
        <time>2009-05-23T11:26:01Z</time>
      </trkpt>
      <trkpt lat="42.558534" lon="0.304727">
        <ele>1770.0</ele>
        <time>2009-05-23T11:26:16Z</time>
      </trkpt>
      <trkpt lat="42.558514" lon="0.304852">
        <ele>1770.0</ele>
        <time>2009-05-23T11:26:35Z</time>
      </trkpt>
      <trkpt lat="42.558481" lon="0.304969">
        <ele>1776.0</ele>
        <time>2009-05-23T11:26:58Z</time>
      </trkpt>
      <trkpt lat="42.558421" lon="0.305068">
        <ele>1770.0</ele>
        <time>2009-05-23T11:27:13Z</time>
      </trkpt>
      <trkpt lat="42.558375" lon="0.305176">
        <ele>1785.0</ele>
        <time>2009-05-23T11:27:31Z</time>
      </trkpt>
      <trkpt lat="42.558361" lon="0.305301">
        <ele>1794.0</ele>
        <time>2009-05-23T11:27:47Z</time>
      </trkpt>
      <trkpt lat="42.558368" lon="0.305427">
        <ele>1794.0</ele>
        <time>2009-05-23T11:27:59Z</time>
      </trkpt>
      <trkpt lat="42.558361" lon="0.305553">
        <ele>1801.0</ele>
        <time>2009-05-23T11:28:15Z</time>
      </trkpt>
      <trkpt lat="42.558328" lon="0.305679">
        <ele>1793.0</ele>
        <time>2009-05-23T11:28:27Z</time>
      </trkpt>
      <trkpt lat="42.558268" lon="0.305787">
        <ele>1793.0</ele>
        <time>2009-05-23T11:28:37Z</time>
      </trkpt>
      <trkpt lat="42.558209" lon="0.305894">
        <ele>1793.0</ele>
        <time>2009-05-23T11:28:46Z</time>
      </trkpt>
      <trkpt lat="42.558175" lon="0.306011">
        <ele>1793.0</ele>
        <time>2009-05-23T11:28:57Z</time>
      </trkpt>
      <trkpt lat="42.558169" lon="0.306137">
        <ele>1799.0</ele>
        <time>2009-05-23T11:29:06Z</time>
      </trkpt>
      <trkpt lat="42.558109" lon="0.306236">
        <ele>1799.0</ele>
        <time>2009-05-23T11:29:15Z</time>
      </trkpt>
      <trkpt lat="42.558062" lon="0.306352">
        <ele>1799.0</ele>
        <time>2009-05-23T11:29:25Z</time>
      </trkpt>
      <trkpt lat="42.558009" lon="0.306460">
        <ele>1799.0</ele>
        <time>2009-05-23T11:29:34Z</time>
      </trkpt>
      <trkpt lat="42.557976" lon="0.306586">
        <ele>1799.0</ele>
        <time>2009-05-23T11:29:43Z</time>
      </trkpt>
      <trkpt lat="42.557943" lon="0.306703">
        <ele>1804.0</ele>
        <time>2009-05-23T11:29:52Z</time>
      </trkpt>
      <trkpt lat="42.557910" lon="0.306820">
        <ele>1804.0</ele>
        <time>2009-05-23T11:30:01Z</time>
      </trkpt>
      <trkpt lat="42.557883" lon="0.306936">
        <ele>1804.0</ele>
        <time>2009-05-23T11:30:10Z</time>
      </trkpt>
      <trkpt lat="42.557857" lon="0.307053">
        <ele>1804.0</ele>
        <time>2009-05-23T11:30:19Z</time>
      </trkpt>
      <trkpt lat="42.557830" lon="0.307170">
        <ele>1804.0</ele>
        <time>2009-05-23T11:30:28Z</time>
      </trkpt>
      <trkpt lat="42.557790" lon="0.307287">
        <ele>1804.0</ele>
        <time>2009-05-23T11:30:38Z</time>
      </trkpt>
      <trkpt lat="42.557757" lon="0.307412">
        <ele>1804.0</ele>
        <time>2009-05-23T11:30:48Z</time>
      </trkpt>
      <trkpt lat="42.557704" lon="0.307520">
        <ele>1804.0</ele>
        <time>2009-05-23T11:31:00Z</time>
      </trkpt>
      <trkpt lat="42.557637" lon="0.307619">
        <ele>1804.0</ele>
        <time>2009-05-23T11:31:11Z</time>
      </trkpt>
      <trkpt lat="42.557631" lon="0.307745">
        <ele>1812.0</ele>
        <time>2009-05-23T11:31:24Z</time>
      </trkpt>
      <trkpt lat="42.557604" lon="0.307871">
        <ele>1812.0</ele>
        <time>2009-05-23T11:31:34Z</time>
      </trkpt>
      <trkpt lat="42.557551" lon="0.307978">
        <ele>1827.0</ele>
        <time>2009-05-23T11:31:47Z</time>
      </trkpt>
      <trkpt lat="42.557491" lon="0.308077">
        <ele>1827.0</ele>
        <time>2009-05-23T11:31:56Z</time>
      </trkpt>
      <trkpt lat="42.557458" lon="0.308194">
        <ele>1827.0</ele>
        <time>2009-05-23T11:32:05Z</time>
      </trkpt>
      <trkpt lat="42.557544" lon="0.308239">
        <ele>1827.0</ele>
        <time>2009-05-23T11:32:24Z</time>
      </trkpt>
      <trkpt lat="42.557604" lon="0.308338">
        <ele>1811.0</ele>
        <time>2009-05-23T11:32:53Z</time>
      </trkpt>
      <trkpt lat="42.557624" lon="0.308464">
        <ele>1818.0</ele>
        <time>2009-05-23T11:33:05Z</time>
      </trkpt>
      <trkpt lat="42.557637" lon="0.308589">
        <ele>1828.0</ele>
        <time>2009-05-23T11:33:16Z</time>
      </trkpt>
      <trkpt lat="42.557631" lon="0.308715">
        <ele>1828.0</ele>
        <time>2009-05-23T11:33:27Z</time>
      </trkpt>
      <trkpt lat="42.557617" lon="0.308841">
        <ele>1828.0</ele>
        <time>2009-05-23T11:33:40Z</time>
      </trkpt>
      <trkpt lat="42.557598" lon="0.308967">
        <ele>1837.0</ele>
        <time>2009-05-23T11:33:57Z</time>
      </trkpt>
      <trkpt lat="42.557558" lon="0.309083">
        <ele>1846.0</ele>
        <time>2009-05-23T11:34:10Z</time>
      </trkpt>
      <trkpt lat="42.557538" lon="0.309209">
        <ele>1846.0</ele>
        <time>2009-05-23T11:34:24Z</time>
      </trkpt>
      <trkpt lat="42.557505" lon="0.309335">
        <ele>1838.0</ele>
        <time>2009-05-23T11:34:35Z</time>
      </trkpt>
      <trkpt lat="42.557478" lon="0.309452">
        <ele>1838.0</ele>
        <time>2009-05-23T11:34:46Z</time>
      </trkpt>
      <trkpt lat="42.557438" lon="0.309568">
        <ele>1832.0</ele>
        <time>2009-05-23T11:34:58Z</time>
      </trkpt>
      <trkpt lat="42.557412" lon="0.309685">
        <ele>1832.0</ele>
        <time>2009-05-23T11:35:08Z</time>
      </trkpt>
      <trkpt lat="42.557392" lon="0.309811">
        <ele>1845.0</ele>
        <time>2009-05-23T11:35:20Z</time>
      </trkpt>
      <trkpt lat="42.557405" lon="0.309937">
        <ele>1858.0</ele>
        <time>2009-05-23T11:35:33Z</time>
      </trkpt>
      <trkpt lat="42.557392" lon="0.310071">
        <ele>1840.0</ele>
        <time>2009-05-23T11:35:41Z</time>
      </trkpt>
      <trkpt lat="42.557405" lon="0.310197">
        <ele>1840.0</ele>
        <time>2009-05-23T11:35:51Z</time>
      </trkpt>
      <trkpt lat="42.557398" lon="0.310332">
        <ele>1840.0</ele>
        <time>2009-05-23T11:36:03Z</time>
      </trkpt>
      <trkpt lat="42.557425" lon="0.310458">
        <ele>1840.0</ele>
        <time>2009-05-23T11:36:14Z</time>
      </trkpt>
      <trkpt lat="42.557432" lon="0.310593">
        <ele>1846.0</ele>
        <time>2009-05-23T11:36:25Z</time>
      </trkpt>
      <trkpt lat="42.557418" lon="0.310718">
        <ele>1846.0</ele>
        <time>2009-05-23T11:36:35Z</time>
      </trkpt>
      <trkpt lat="42.557412" lon="0.310853">
        <ele>1846.0</ele>
        <time>2009-05-23T11:36:47Z</time>
      </trkpt>
      <trkpt lat="42.557398" lon="0.310979">
        <ele>1846.0</ele>
        <time>2009-05-23T11:36:58Z</time>
      </trkpt>
      <trkpt lat="42.557372" lon="0.311096">
        <ele>1846.0</ele>
        <time>2009-05-23T11:37:12Z</time>
      </trkpt>
      <trkpt lat="42.557345" lon="0.311212">
        <ele>1846.0</ele>
        <time>2009-05-23T11:37:24Z</time>
      </trkpt>
      <trkpt lat="42.557332" lon="0.311338">
        <ele>1851.0</ele>
        <time>2009-05-23T11:37:40Z</time>
      </trkpt>
      <trkpt lat="42.557252" lon="0.311410">
        <ele>1859.0</ele>
        <time>2009-05-23T11:37:53Z</time>
      </trkpt>
      <trkpt lat="42.557166" lon="0.311473">
        <ele>1859.0</ele>
        <time>2009-05-23T11:38:02Z</time>
      </trkpt>
      <trkpt lat="42.557080" lon="0.311527">
        <ele>1859.0</ele>
        <time>2009-05-23T11:38:14Z</time>
      </trkpt>
      <trkpt lat="42.556993" lon="0.311473">
        <ele>1870.0</ele>
        <time>2009-05-23T11:38:26Z</time>
      </trkpt>
      <trkpt lat="42.556920" lon="0.311392">
        <ele>1870.0</ele>
        <time>2009-05-23T11:38:39Z</time>
      </trkpt>
      <trkpt lat="42.556860" lon="0.311293">
        <ele>1870.0</ele>
        <time>2009-05-23T11:38:56Z</time>
      </trkpt>
      <trkpt lat="42.556774" lon="0.311248">
        <ele>1877.0</ele>
        <time>2009-05-23T11:39:15Z</time>
      </trkpt>
      <trkpt lat="42.556688" lon="0.311302">
        <ele>1889.0</ele>
        <time>2009-05-23T11:39:34Z</time>
      </trkpt>
      <trkpt lat="42.556648" lon="0.311419">
        <ele>1889.0</ele>
        <time>2009-05-23T11:39:51Z</time>
      </trkpt>
      <trkpt lat="42.556575" lon="0.311509">
        <ele>1896.0</ele>
        <time>2009-05-23T11:40:05Z</time>
      </trkpt>
      <trkpt lat="42.556495" lon="0.311590">
        <ele>1905.0</ele>
        <time>2009-05-23T11:40:18Z</time>
      </trkpt>
      <trkpt lat="42.556422" lon="0.311679">
        <ele>1897.0</ele>
        <time>2009-05-23T11:40:27Z</time>
      </trkpt>
      <trkpt lat="42.556356" lon="0.311778">
        <ele>1897.0</ele>
        <time>2009-05-23T11:40:36Z</time>
      </trkpt>
      <trkpt lat="42.556283" lon="0.311850">
        <ele>1889.0</ele>
        <time>2009-05-23T11:40:45Z</time>
      </trkpt>
      <trkpt lat="42.556196" lon="0.311904">
        <ele>1889.0</ele>
        <time>2009-05-23T11:40:53Z</time>
      </trkpt>
      <trkpt lat="42.556110" lon="0.311958">
        <ele>1897.0</ele>
        <time>2009-05-23T11:41:03Z</time>
      </trkpt>
      <trkpt lat="42.556050" lon="0.312057">
        <ele>1897.0</ele>
        <time>2009-05-23T11:41:15Z</time>
      </trkpt>
      <trkpt lat="42.556050" lon="0.312183">
        <ele>1897.0</ele>
        <time>2009-05-23T11:41:25Z</time>
      </trkpt>
      <trkpt lat="42.556103" lon="0.312290">
        <ele>1887.0</ele>
        <time>2009-05-23T11:41:53Z</time>
      </trkpt>
      <trkpt lat="42.556183" lon="0.312362">
        <ele>1895.0</ele>
        <time>2009-05-23T11:42:17Z</time>
      </trkpt>
      <trkpt lat="42.556256" lon="0.312434">
        <ele>1895.0</ele>
        <time>2009-05-23T11:42:36Z</time>
      </trkpt>
      <trkpt lat="42.556309" lon="0.312533">
        <ele>1895.0</ele>
        <time>2009-05-23T11:42:47Z</time>
      </trkpt>
      <trkpt lat="42.556296" lon="0.312668">
        <ele>1895.0</ele>
        <time>2009-05-23T11:42:56Z</time>
      </trkpt>
      <trkpt lat="42.556309" lon="0.312793">
        <ele>1902.0</ele>
        <time>2009-05-23T11:43:05Z</time>
      </trkpt>
      <trkpt lat="42.556316" lon="0.312919">
        <ele>1902.0</ele>
        <time>2009-05-23T11:43:12Z</time>
      </trkpt>
      <trkpt lat="42.556296" lon="0.313054">
        <ele>1902.0</ele>
        <time>2009-05-23T11:43:22Z</time>
      </trkpt>
      <trkpt lat="42.556269" lon="0.313171">
        <ele>1902.0</ele>
        <time>2009-05-23T11:43:34Z</time>
      </trkpt>
      <trkpt lat="42.556216" lon="0.313269">
        <ele>1911.0</ele>
        <time>2009-05-23T11:43:47Z</time>
      </trkpt>
      <trkpt lat="42.556143" lon="0.313350">
        <ele>1911.0</ele>
        <time>2009-05-23T11:43:59Z</time>
      </trkpt>
      <trkpt lat="42.556057" lon="0.313386">
        <ele>1923.0</ele>
        <time>2009-05-23T11:44:16Z</time>
      </trkpt>
      <trkpt lat="42.555990" lon="0.313494">
        <ele>1923.0</ele>
        <time>2009-05-23T11:44:26Z</time>
      </trkpt>
      <trkpt lat="42.555970" lon="0.313620">
        <ele>1915.0</ele>
        <time>2009-05-23T11:44:36Z</time>
      </trkpt>
      <trkpt lat="42.555977" lon="0.313746">
        <ele>1915.0</ele>
        <time>2009-05-23T11:44:45Z</time>
      </trkpt>
      <trkpt lat="42.555970" lon="0.313880">
        <ele>1915.0</ele>
        <time>2009-05-23T11:44:57Z</time>
      </trkpt>
      <trkpt lat="42.555964" lon="0.314006">
        <ele>1920.0</ele>
        <time>2009-05-23T11:45:09Z</time>
      </trkpt>
      <trkpt lat="42.555905" lon="0.314279">
        <ele>1910.6</ele>
        <time>2009-05-23T11:45:20Z</time>
      </trkpt>
      <trkpt lat="42.555857" lon="0.314657">
        <ele>1910.4</ele>
        <time>2009-05-23T11:45:33Z</time>
      </trkpt>
      <trkpt lat="42.555723" lon="0.314883">
        <ele>1911.5</ele>
        <time>2009-05-23T11:45:46Z</time>
      </trkpt>
      <trkpt lat="42.555486" lon="0.314904">
        <ele>1927.0</ele>
        <time>2009-05-23T12:24:33Z</time>
      </trkpt>
      <trkpt lat="42.555433" lon="0.314949">
        <ele>1908.0</ele>
        <time>2009-05-23T12:24:39Z</time>
      </trkpt>
      <trkpt lat="42.555340" lon="0.314994">
        <ele>1908.0</ele>
        <time>2009-05-23T12:24:53Z</time>
      </trkpt>
      <trkpt lat="42.555247" lon="0.315012">
        <ele>1908.0</ele>
        <time>2009-05-23T12:25:00Z</time>
      </trkpt>
      <trkpt lat="42.555160" lon="0.315048">
        <ele>1902.0</ele>
        <time>2009-05-23T12:25:06Z</time>
      </trkpt>
      <trkpt lat="42.555087" lon="0.315120">
        <ele>1902.0</ele>
        <time>2009-05-23T12:25:13Z</time>
      </trkpt>
      <trkpt lat="42.555027" lon="0.315219">
        <ele>1902.0</ele>
        <time>2009-05-23T12:25:20Z</time>
      </trkpt>
      <trkpt lat="42.554981" lon="0.315336">
        <ele>1902.0</ele>
        <time>2009-05-23T12:25:26Z</time>
      </trkpt>
      <trkpt lat="42.554941" lon="0.315461">
        <ele>1902.0</ele>
        <time>2009-05-23T12:25:33Z</time>
      </trkpt>
      <trkpt lat="42.554928" lon="0.315587">
        <ele>1902.0</ele>
        <time>2009-05-23T12:25:46Z</time>
      </trkpt>
      <trkpt lat="42.554895" lon="0.315704">
        <ele>1909.0</ele>
        <time>2009-05-23T12:25:53Z</time>
      </trkpt>
      <trkpt lat="42.554868" lon="0.315830">
        <ele>1902.0</ele>
        <time>2009-05-23T12:26:06Z</time>
      </trkpt>
      <trkpt lat="42.554821" lon="0.315937">
        <ele>1902.0</ele>
        <time>2009-05-23T12:26:13Z</time>
      </trkpt>
      <trkpt lat="42.554735" lon="0.315982">
        <ele>1902.0</ele>
        <time>2009-05-23T12:26:20Z</time>
      </trkpt>
      <trkpt lat="42.554642" lon="0.316027">
        <ele>1902.0</ele>
        <time>2009-05-23T12:26:28Z</time>
      </trkpt>
      <trkpt lat="42.554562" lon="0.316090">
        <ele>1902.0</ele>
        <time>2009-05-23T12:26:40Z</time>
      </trkpt>
      <trkpt lat="42.554469" lon="0.316108">
        <ele>1902.0</ele>
        <time>2009-05-23T12:26:47Z</time>
      </trkpt>
      <trkpt lat="42.554377" lon="0.316126">
        <ele>1894.0</ele>
        <time>2009-05-23T12:26:56Z</time>
      </trkpt>
      <trkpt lat="42.554297" lon="0.316189">
        <ele>1888.0</ele>
        <time>2009-05-23T12:27:07Z</time>
      </trkpt>
      <trkpt lat="42.554204" lon="0.316252">
        <ele>1888.0</ele>
        <time>2009-05-23T12:27:15Z</time>
      </trkpt>
      <trkpt lat="42.554124" lon="0.316315">
        <ele>1888.0</ele>
        <time>2009-05-23T12:27:23Z</time>
      </trkpt>
      <trkpt lat="42.554044" lon="0.316378">
        <ele>1888.0</ele>
        <time>2009-05-23T12:27:30Z</time>
      </trkpt>
      <trkpt lat="42.553971" lon="0.316450">
        <ele>1888.0</ele>
        <time>2009-05-23T12:27:41Z</time>
      </trkpt>
      <trkpt lat="42.553905" lon="0.316539">
        <ele>1888.0</ele>
        <time>2009-05-23T12:27:49Z</time>
      </trkpt>
      <trkpt lat="42.553839" lon="0.316629">
        <ele>1888.0</ele>
        <time>2009-05-23T12:27:59Z</time>
      </trkpt>
      <trkpt lat="42.553779" lon="0.316728">
        <ele>1888.0</ele>
        <time>2009-05-23T12:28:06Z</time>
      </trkpt>
      <trkpt lat="42.553726" lon="0.316836">
        <ele>1888.0</ele>
        <time>2009-05-23T12:28:15Z</time>
      </trkpt>
      <trkpt lat="42.553666" lon="0.316944">
        <ele>1879.0</ele>
        <time>2009-05-23T12:28:28Z</time>
      </trkpt>
      <trkpt lat="42.553626" lon="0.317060">
        <ele>1884.0</ele>
        <time>2009-05-23T12:28:42Z</time>
      </trkpt>
      <trkpt lat="42.553586" lon="0.317177">
        <ele>1884.0</ele>
        <time>2009-05-23T12:28:55Z</time>
      </trkpt>
      <trkpt lat="42.553506" lon="0.317258">
        <ele>1884.0</ele>
        <time>2009-05-23T12:29:06Z</time>
      </trkpt>
      <trkpt lat="42.553433" lon="0.317330">
        <ele>1884.0</ele>
        <time>2009-05-23T12:29:14Z</time>
      </trkpt>
      <trkpt lat="42.553354" lon="0.317393">
        <ele>1884.0</ele>
        <time>2009-05-23T12:29:22Z</time>
      </trkpt>
      <trkpt lat="42.553267" lon="0.317429">
        <ele>1884.0</ele>
        <time>2009-05-23T12:29:29Z</time>
      </trkpt>
      <trkpt lat="42.553188" lon="0.317492">
        <ele>1884.0</ele>
        <time>2009-05-23T12:29:36Z</time>
      </trkpt>
      <trkpt lat="42.553108" lon="0.317554">
        <ele>1878.0</ele>
        <time>2009-05-23T12:29:42Z</time>
      </trkpt>
      <trkpt lat="42.553028" lon="0.317617">
        <ele>1878.0</ele>
        <time>2009-05-23T12:29:53Z</time>
      </trkpt>
      <trkpt lat="42.552935" lon="0.317752">
        <ele>1899.0</ele>
        <time>2009-05-23T12:30:14Z</time>
      </trkpt>
      <trkpt lat="42.552836" lon="0.317716">
        <ele>1899.0</ele>
        <time>2009-05-23T12:30:20Z</time>
      </trkpt>
      <trkpt lat="42.552756" lon="0.317788">
        <ele>1899.0</ele>
        <time>2009-05-23T12:30:30Z</time>
      </trkpt>
      <trkpt lat="42.552656" lon="0.317788">
        <ele>1885.0</ele>
        <time>2009-05-23T12:30:36Z</time>
      </trkpt>
      <trkpt lat="42.552583" lon="0.317869">
        <ele>1893.0</ele>
        <time>2009-05-23T12:30:52Z</time>
      </trkpt>
      <trkpt lat="42.552490" lon="0.317896">
        <ele>1893.0</ele>
        <time>2009-05-23T12:31:00Z</time>
      </trkpt>
      <trkpt lat="42.552404" lon="0.317932">
        <ele>1882.0</ele>
        <time>2009-05-23T12:31:11Z</time>
      </trkpt>
      <trkpt lat="42.552318" lon="0.317986">
        <ele>1882.0</ele>
        <time>2009-05-23T12:31:19Z</time>
      </trkpt>
      <trkpt lat="42.552338" lon="0.318111">
        <ele>1903.0</ele>
        <time>2009-05-23T12:31:32Z</time>
      </trkpt>
      <trkpt lat="42.552431" lon="0.318111">
        <ele>1911.0</ele>
        <time>2009-05-23T12:31:37Z</time>
      </trkpt>
      <trkpt lat="42.552530" lon="0.318120">
        <ele>1920.0</ele>
        <time>2009-05-23T12:31:42Z</time>
      </trkpt>
      <trkpt lat="42.552490" lon="0.318228">
        <ele>1926.0</ele>
        <time>2009-05-23T12:32:28Z</time>
      </trkpt>
      <trkpt lat="42.552371" lon="0.318237">
        <ele>1916.0</ele>
        <time>2009-05-23T12:32:30Z</time>
      </trkpt>
      <trkpt lat="42.552271" lon="0.318237">
        <ele>1908.0</ele>
        <time>2009-05-23T12:32:32Z</time>
      </trkpt>
      <trkpt lat="42.552145" lon="0.318264">
        <ele>1896.0</ele>
        <time>2009-05-23T12:32:35Z</time>
      </trkpt>
      <trkpt lat="42.552059" lon="0.318300">
        <ele>1889.0</ele>
        <time>2009-05-23T12:32:45Z</time>
      </trkpt>
      <trkpt lat="42.551946" lon="0.318372">
        <ele>1880.0</ele>
        <time>2009-05-23T12:32:51Z</time>
      </trkpt>
      <trkpt lat="42.551912" lon="0.318561">
        <ele>1890.0</ele>
        <time>2009-05-23T12:33:02Z</time>
      </trkpt>
      <trkpt lat="42.551866" lon="0.318722">
        <ele>1910.0</ele>
        <time>2009-05-23T12:33:38Z</time>
      </trkpt>
      <trkpt lat="42.551919" lon="0.318830">
        <ele>1910.0</ele>
        <time>2009-05-23T12:33:44Z</time>
      </trkpt>
      <trkpt lat="42.551966" lon="0.318956">
        <ele>1910.0</ele>
        <time>2009-05-23T12:33:52Z</time>
      </trkpt>
      <trkpt lat="42.551992" lon="0.319091">
        <ele>1910.0</ele>
        <time>2009-05-23T12:33:59Z</time>
      </trkpt>
      <trkpt lat="42.552045" lon="0.319198">
        <ele>1904.0</ele>
        <time>2009-05-23T12:34:05Z</time>
      </trkpt>
      <trkpt lat="42.552105" lon="0.319324">
        <ele>1904.0</ele>
        <time>2009-05-23T12:34:10Z</time>
      </trkpt>
      <trkpt lat="42.552098" lon="0.319450">
        <ele>1895.0</ele>
        <time>2009-05-23T12:34:17Z</time>
      </trkpt>
      <trkpt lat="42.552045" lon="0.319549">
        <ele>1895.0</ele>
        <time>2009-05-23T12:34:28Z</time>
      </trkpt>
      <trkpt lat="42.552025" lon="0.319674">
        <ele>1905.0</ele>
        <time>2009-05-23T12:34:37Z</time>
      </trkpt>
      <trkpt lat="42.551966" lon="0.319782">
        <ele>1905.0</ele>
        <time>2009-05-23T12:34:48Z</time>
      </trkpt>
      <trkpt lat="42.551873" lon="0.319845">
        <ele>1899.0</ele>
        <time>2009-05-23T12:34:59Z</time>
      </trkpt>
      <trkpt lat="42.551786" lon="0.319890">
        <ele>1899.0</ele>
        <time>2009-05-23T12:35:08Z</time>
      </trkpt>
      <trkpt lat="42.551713" lon="0.319971">
        <ele>1899.0</ele>
        <time>2009-05-23T12:35:16Z</time>
      </trkpt>
      <trkpt lat="42.551620" lon="0.320016">
        <ele>1899.0</ele>
        <time>2009-05-23T12:35:24Z</time>
      </trkpt>
      <trkpt lat="42.551580" lon="0.320142">
        <ele>1899.0</ele>
        <time>2009-05-23T12:35:34Z</time>
      </trkpt>
      <trkpt lat="42.551527" lon="0.320249">
        <ele>1899.0</ele>
        <time>2009-05-23T12:35:41Z</time>
      </trkpt>
      <trkpt lat="42.551474" lon="0.320348">
        <ele>1899.0</ele>
        <time>2009-05-23T12:35:47Z</time>
      </trkpt>
      <trkpt lat="42.551408" lon="0.320456">
        <ele>1899.0</ele>
        <time>2009-05-23T12:35:55Z</time>
      </trkpt>
      <trkpt lat="42.551368" lon="0.320573">
        <ele>1899.0</ele>
        <time>2009-05-23T12:36:03Z</time>
      </trkpt>
      <trkpt lat="42.551308" lon="0.320672">
        <ele>1899.0</ele>
        <time>2009-05-23T12:36:10Z</time>
      </trkpt>
      <trkpt lat="42.551208" lon="0.320699">
        <ele>1899.0</ele>
        <time>2009-05-23T12:36:24Z</time>
      </trkpt>
      <trkpt lat="42.551115" lon="0.320690">
        <ele>1899.0</ele>
        <time>2009-05-23T12:36:32Z</time>
      </trkpt>
      <trkpt lat="42.551022" lon="0.320743">
        <ele>1899.0</ele>
        <time>2009-05-23T12:36:43Z</time>
      </trkpt>
      <trkpt lat="42.550943" lon="0.320806">
        <ele>1899.0</ele>
        <time>2009-05-23T12:36:54Z</time>
      </trkpt>
      <trkpt lat="42.550850" lon="0.320824">
        <ele>1899.0</ele>
        <time>2009-05-23T12:37:07Z</time>
      </trkpt>
      <trkpt lat="42.550763" lon="0.320779">
        <ele>1909.0</ele>
        <time>2009-05-23T12:37:16Z</time>
      </trkpt>
      <trkpt lat="42.550684" lon="0.320708">
        <ele>1909.0</ele>
        <time>2009-05-23T12:37:32Z</time>
      </trkpt>
      <trkpt lat="42.550591" lon="0.320770">
        <ele>1903.0</ele>
        <time>2009-05-23T12:37:40Z</time>
      </trkpt>
      <trkpt lat="42.550498" lon="0.320752">
        <ele>1896.0</ele>
        <time>2009-05-23T12:37:52Z</time>
      </trkpt>
      <trkpt lat="42.550405" lon="0.320779">
        <ele>1896.0</ele>
        <time>2009-05-23T12:38:04Z</time>
      </trkpt>
      <trkpt lat="42.550318" lon="0.320833">
        <ele>1896.0</ele>
        <time>2009-05-23T12:38:29Z</time>
      </trkpt>
      <trkpt lat="42.550225" lon="0.320869">
        <ele>1896.0</ele>
        <time>2009-05-23T12:38:36Z</time>
      </trkpt>
      <trkpt lat="42.550113" lon="0.320878">
        <ele>1896.0</ele>
        <time>2009-05-23T12:38:45Z</time>
      </trkpt>
      <trkpt lat="42.550020" lon="0.320905">
        <ele>1903.0</ele>
        <time>2009-05-23T12:38:59Z</time>
      </trkpt>
      <trkpt lat="42.549920" lon="0.320959">
        <ele>1903.0</ele>
        <time>2009-05-23T12:39:06Z</time>
      </trkpt>
      <trkpt lat="42.549827" lon="0.321022">
        <ele>1903.0</ele>
        <time>2009-05-23T12:39:13Z</time>
      </trkpt>
      <trkpt lat="42.549780" lon="0.321139">
        <ele>1903.0</ele>
        <time>2009-05-23T12:39:23Z</time>
      </trkpt>
      <trkpt lat="42.549734" lon="0.321256">
        <ele>1903.0</ele>
        <time>2009-05-23T12:39:32Z</time>
      </trkpt>
      <trkpt lat="42.549714" lon="0.321381">
        <ele>1897.0</ele>
        <time>2009-05-23T12:39:49Z</time>
      </trkpt>
      <trkpt lat="42.549687" lon="0.321498">
        <ele>1897.0</ele>
        <time>2009-05-23T12:39:59Z</time>
      </trkpt>
      <trkpt lat="42.549614" lon="0.321597">
        <ele>1897.0</ele>
        <time>2009-05-23T12:40:07Z</time>
      </trkpt>
      <trkpt lat="42.549568" lon="0.321723">
        <ele>1897.0</ele>
        <time>2009-05-23T12:40:15Z</time>
      </trkpt>
      <trkpt lat="42.549495" lon="0.321812">
        <ele>1897.0</ele>
        <time>2009-05-23T12:40:23Z</time>
      </trkpt>
      <trkpt lat="42.549408" lon="0.321857">
        <ele>1897.0</ele>
        <time>2009-05-23T12:40:32Z</time>
      </trkpt>
      <trkpt lat="42.549302" lon="0.321830">
        <ele>1897.0</ele>
        <time>2009-05-23T12:41:02Z</time>
      </trkpt>
      <trkpt lat="42.549209" lon="0.321821">
        <ele>1903.0</ele>
        <time>2009-05-23T12:41:11Z</time>
      </trkpt>
      <trkpt lat="42.549110" lon="0.321848">
        <ele>1903.0</ele>
        <time>2009-05-23T12:41:22Z</time>
      </trkpt>
      <trkpt lat="42.549050" lon="0.321947">
        <ele>1903.0</ele>
        <time>2009-05-23T12:41:32Z</time>
      </trkpt>
      <trkpt lat="42.549030" lon="0.322073">
        <ele>1903.0</ele>
        <time>2009-05-23T12:41:47Z</time>
      </trkpt>
      <trkpt lat="42.549043" lon="0.322208">
        <ele>1894.0</ele>
        <time>2009-05-23T12:42:12Z</time>
      </trkpt>
      <trkpt lat="42.548957" lon="0.322271">
        <ele>1873.0</ele>
        <time>2009-05-23T12:42:33Z</time>
      </trkpt>
      <trkpt lat="42.548897" lon="0.322378">
        <ele>1882.0</ele>
        <time>2009-05-23T12:42:44Z</time>
      </trkpt>
      <trkpt lat="42.548844" lon="0.322477">
        <ele>1891.0</ele>
        <time>2009-05-23T12:42:58Z</time>
      </trkpt>
      <trkpt lat="42.548751" lon="0.322459">
        <ele>1891.0</ele>
        <time>2009-05-23T12:43:08Z</time>
      </trkpt>
      <trkpt lat="42.548671" lon="0.322531">
        <ele>1898.0</ele>
        <time>2009-05-23T12:43:19Z</time>
      </trkpt>
      <trkpt lat="42.548638" lon="0.322648">
        <ele>1898.0</ele>
        <time>2009-05-23T12:43:36Z</time>
      </trkpt>
      <trkpt lat="42.548598" lon="0.322783">
        <ele>1907.0</ele>
        <time>2009-05-23T12:43:48Z</time>
      </trkpt>
      <trkpt lat="42.548598" lon="0.322908">
        <ele>1907.0</ele>
        <time>2009-05-23T12:44:01Z</time>
      </trkpt>
      <trkpt lat="42.548545" lon="0.323007">
        <ele>1907.0</ele>
        <time>2009-05-23T12:44:14Z</time>
      </trkpt>
      <trkpt lat="42.548532" lon="0.323133">
        <ele>1907.0</ele>
        <time>2009-05-23T12:44:23Z</time>
      </trkpt>
      <trkpt lat="42.548485" lon="0.323241">
        <ele>1907.0</ele>
        <time>2009-05-23T12:44:32Z</time>
      </trkpt>
      <trkpt lat="42.548479" lon="0.323376">
        <ele>1907.0</ele>
        <time>2009-05-23T12:44:39Z</time>
      </trkpt>
      <trkpt lat="42.548465" lon="0.323510">
        <ele>1919.0</ele>
        <time>2009-05-23T12:44:57Z</time>
      </trkpt>
      <trkpt lat="42.548412" lon="0.323537">
        <ele>1908.0</ele>
        <time>2009-05-23T12:45:21Z</time>
      </trkpt>
      <trkpt lat="42.548313" lon="0.323546">
        <ele>1902.0</ele>
        <time>2009-05-23T12:45:25Z</time>
      </trkpt>
      <trkpt lat="42.548266" lon="0.323654">
        <ele>1909.0</ele>
        <time>2009-05-23T12:45:41Z</time>
      </trkpt>
      <trkpt lat="42.548246" lon="0.323780">
        <ele>1917.0</ele>
        <time>2009-05-23T12:45:55Z</time>
      </trkpt>
      <trkpt lat="42.548166" lon="0.323852">
        <ele>1917.0</ele>
        <time>2009-05-23T12:46:05Z</time>
      </trkpt>
      <trkpt lat="42.548173" lon="0.323977">
        <ele>1917.0</ele>
        <time>2009-05-23T12:46:19Z</time>
      </trkpt>
      <trkpt lat="42.548067" lon="0.324013">
        <ele>1917.0</ele>
        <time>2009-05-23T12:46:32Z</time>
      </trkpt>
      <trkpt lat="42.547980" lon="0.324058">
        <ele>1917.0</ele>
        <time>2009-05-23T12:46:42Z</time>
      </trkpt>
      <trkpt lat="42.547894" lon="0.324130">
        <ele>1917.0</ele>
        <time>2009-05-23T12:46:51Z</time>
      </trkpt>
      <trkpt lat="42.547854" lon="0.324247">
        <ele>1917.0</ele>
        <time>2009-05-23T12:47:03Z</time>
      </trkpt>
      <trkpt lat="42.547814" lon="0.324364">
        <ele>1924.0</ele>
        <time>2009-05-23T12:47:14Z</time>
      </trkpt>
      <trkpt lat="42.547735" lon="0.324445">
        <ele>1924.0</ele>
        <time>2009-05-23T12:47:23Z</time>
      </trkpt>
      <trkpt lat="42.547642" lon="0.324507">
        <ele>1924.0</ele>
        <time>2009-05-23T12:47:30Z</time>
      </trkpt>
      <trkpt lat="42.547688" lon="0.324624">
        <ele>1924.0</ele>
        <time>2009-05-23T12:48:19Z</time>
      </trkpt>
      <trkpt lat="42.547622" lon="0.324714">
        <ele>1924.0</ele>
        <time>2009-05-23T12:48:35Z</time>
      </trkpt>
      <trkpt lat="42.547569" lon="0.324822">
        <ele>1919.0</ele>
        <time>2009-05-23T12:49:09Z</time>
      </trkpt>
      <trkpt lat="42.547482" lon="0.324912">
        <ele>1931.0</ele>
        <time>2009-05-23T12:49:47Z</time>
      </trkpt>
      <trkpt lat="42.547509" lon="0.325037">
        <ele>1923.0</ele>
        <time>2009-05-23T12:49:52Z</time>
      </trkpt>
      <trkpt lat="42.547535" lon="0.325181">
        <ele>1923.0</ele>
        <time>2009-05-23T12:49:57Z</time>
      </trkpt>
      <trkpt lat="42.547595" lon="0.325289">
        <ele>1923.0</ele>
        <time>2009-05-23T12:50:02Z</time>
      </trkpt>
      <trkpt lat="42.547648" lon="0.325388">
        <ele>1917.0</ele>
        <time>2009-05-23T12:50:12Z</time>
      </trkpt>
      <trkpt lat="42.547602" lon="0.325496">
        <ele>1926.0</ele>
        <time>2009-05-23T12:51:10Z</time>
      </trkpt>
      <trkpt lat="42.547515" lon="0.325549">
        <ele>1915.0</ele>
        <time>2009-05-23T12:51:33Z</time>
      </trkpt>
      <trkpt lat="42.547489" lon="0.325666">
        <ele>1915.0</ele>
        <time>2009-05-23T12:53:31Z</time>
      </trkpt>
      <trkpt lat="42.547396" lon="0.325630">
        <ele>1915.0</ele>
        <time>2009-05-23T12:53:53Z</time>
      </trkpt>
      <trkpt lat="42.547349" lon="0.325738">
        <ele>1915.0</ele>
        <time>2009-05-23T12:55:23Z</time>
      </trkpt>
      <trkpt lat="42.547263" lon="0.325819">
        <ele>1915.0</ele>
        <time>2009-05-23T12:55:31Z</time>
      </trkpt>
      <trkpt lat="42.547263" lon="0.325945">
        <ele>1908.0</ele>
        <time>2009-05-23T12:55:38Z</time>
      </trkpt>
      <trkpt lat="42.547190" lon="0.326035">
        <ele>1908.0</ele>
        <time>2009-05-23T12:55:46Z</time>
      </trkpt>
      <trkpt lat="42.547157" lon="0.326151">
        <ele>1908.0</ele>
        <time>2009-05-23T12:55:54Z</time>
      </trkpt>
      <trkpt lat="42.547097" lon="0.326250">
        <ele>1908.0</ele>
        <time>2009-05-23T12:56:04Z</time>
      </trkpt>
      <trkpt lat="42.547050" lon="0.326367">
        <ele>1908.0</ele>
        <time>2009-05-23T12:56:12Z</time>
      </trkpt>
      <trkpt lat="42.547004" lon="0.326475">
        <ele>1908.0</ele>
        <time>2009-05-23T12:56:20Z</time>
      </trkpt>
      <trkpt lat="42.546924" lon="0.326547">
        <ele>1914.0</ele>
        <time>2009-05-23T12:56:31Z</time>
      </trkpt>
      <trkpt lat="42.546951" lon="0.326663">
        <ele>1921.0</ele>
        <time>2009-05-23T12:56:44Z</time>
      </trkpt>
      <trkpt lat="42.546931" lon="0.326753">
        <ele>1937.0</ele>
        <time>2009-05-23T12:57:06Z</time>
      </trkpt>
      <trkpt lat="42.546831" lon="0.326807">
        <ele>1926.0</ele>
        <time>2009-05-23T12:57:13Z</time>
      </trkpt>
      <trkpt lat="42.546732" lon="0.326834">
        <ele>1926.0</ele>
        <time>2009-05-23T12:57:17Z</time>
      </trkpt>
      <trkpt lat="42.546698" lon="0.326951">
        <ele>1919.0</ele>
        <time>2009-05-23T12:57:25Z</time>
      </trkpt>
      <trkpt lat="42.546599" lon="0.326942">
        <ele>1919.0</ele>
        <time>2009-05-23T12:57:35Z</time>
      </trkpt>
      <trkpt lat="42.546512" lon="0.327005">
        <ele>1919.0</ele>
        <time>2009-05-23T12:57:44Z</time>
      </trkpt>
      <trkpt lat="42.546393" lon="0.326978">
        <ele>1924.0</ele>
        <time>2009-05-23T12:58:09Z</time>
      </trkpt>
      <trkpt lat="42.546307" lon="0.327014">
        <ele>1924.0</ele>
        <time>2009-05-23T12:58:44Z</time>
      </trkpt>
      <trkpt lat="42.546207" lon="0.327014">
        <ele>1924.0</ele>
        <time>2009-05-23T12:58:59Z</time>
      </trkpt>
      <trkpt lat="42.546127" lon="0.327077">
        <ele>1924.0</ele>
        <time>2009-05-23T12:59:11Z</time>
      </trkpt>
      <trkpt lat="42.546041" lon="0.327130">
        <ele>1924.0</ele>
        <time>2009-05-23T12:59:21Z</time>
      </trkpt>
      <trkpt lat="42.545961" lon="0.327193">
        <ele>1924.0</ele>
        <time>2009-05-23T12:59:31Z</time>
      </trkpt>
      <trkpt lat="42.545868" lon="0.327229">
        <ele>1931.0</ele>
        <time>2009-05-23T12:59:43Z</time>
      </trkpt>
      <trkpt lat="42.545788" lon="0.327301">
        <ele>1931.0</ele>
        <time>2009-05-23T12:59:53Z</time>
      </trkpt>
      <trkpt lat="42.545715" lon="0.327373">
        <ele>1931.0</ele>
        <time>2009-05-23T13:00:13Z</time>
      </trkpt>
      <trkpt lat="42.545636" lon="0.327436">
        <ele>1931.0</ele>
        <time>2009-05-23T13:00:20Z</time>
      </trkpt>
      <trkpt lat="42.545616" lon="0.327562">
        <ele>1931.0</ele>
        <time>2009-05-23T13:00:30Z</time>
      </trkpt>
      <trkpt lat="42.545563" lon="0.327669">
        <ele>1931.0</ele>
        <time>2009-05-23T13:00:43Z</time>
      </trkpt>
      <trkpt lat="42.545490" lon="0.327759">
        <ele>1937.0</ele>
        <time>2009-05-23T13:00:54Z</time>
      </trkpt>
      <trkpt lat="42.545476" lon="0.327885">
        <ele>1937.0</ele>
        <time>2009-05-23T13:01:02Z</time>
      </trkpt>
      <trkpt lat="42.545383" lon="0.327930">
        <ele>1947.0</ele>
        <time>2009-05-23T13:01:22Z</time>
      </trkpt>
      <trkpt lat="42.545290" lon="0.327921">
        <ele>1947.0</ele>
        <time>2009-05-23T13:01:28Z</time>
      </trkpt>
      <trkpt lat="42.545217" lon="0.328002">
        <ele>1947.0</ele>
        <time>2009-05-23T13:01:42Z</time>
      </trkpt>
      <trkpt lat="42.545204" lon="0.328128">
        <ele>1947.0</ele>
        <time>2009-05-23T13:01:57Z</time>
      </trkpt>
      <trkpt lat="42.545111" lon="0.328155">
        <ele>1947.0</ele>
        <time>2009-05-23T13:02:07Z</time>
      </trkpt>
      <trkpt lat="42.545044" lon="0.328244">
        <ele>1947.0</ele>
        <time>2009-05-23T13:02:23Z</time>
      </trkpt>
      <trkpt lat="42.544945" lon="0.328262">
        <ele>1942.0</ele>
        <time>2009-05-23T13:02:27Z</time>
      </trkpt>
      <trkpt lat="42.544912" lon="0.328388">
        <ele>1947.0</ele>
        <time>2009-05-23T13:02:44Z</time>
      </trkpt>
      <trkpt lat="42.544819" lon="0.328442">
        <ele>1960.0</ele>
        <time>2009-05-23T13:03:00Z</time>
      </trkpt>
      <trkpt lat="42.544726" lon="0.328469">
        <ele>1960.0</ele>
        <time>2009-05-23T13:03:17Z</time>
      </trkpt>
      <trkpt lat="42.544653" lon="0.328550">
        <ele>1960.0</ele>
        <time>2009-05-23T13:03:34Z</time>
      </trkpt>
      <trkpt lat="42.544546" lon="0.328550">
        <ele>1960.0</ele>
        <time>2009-05-23T13:03:39Z</time>
      </trkpt>
      <trkpt lat="42.544480" lon="0.328649">
        <ele>1960.0</ele>
        <time>2009-05-23T13:03:53Z</time>
      </trkpt>
      <trkpt lat="42.544407" lon="0.328738">
        <ele>1960.0</ele>
        <time>2009-05-23T13:04:04Z</time>
      </trkpt>
      <trkpt lat="42.544374" lon="0.328864">
        <ele>1960.0</ele>
        <time>2009-05-23T13:04:15Z</time>
      </trkpt>
      <trkpt lat="42.544307" lon="0.328963">
        <ele>1960.0</ele>
        <time>2009-05-23T13:04:23Z</time>
      </trkpt>
      <trkpt lat="42.544227" lon="0.329026">
        <ele>1960.0</ele>
        <time>2009-05-23T13:04:53Z</time>
      </trkpt>
      <trkpt lat="42.544208" lon="0.329152">
        <ele>1971.0</ele>
        <time>2009-05-23T13:05:08Z</time>
      </trkpt>
      <trkpt lat="42.544154" lon="0.329251">
        <ele>1971.0</ele>
        <time>2009-05-23T13:05:20Z</time>
      </trkpt>
      <trkpt lat="42.544141" lon="0.329376">
        <ele>1971.0</ele>
        <time>2009-05-23T13:05:37Z</time>
      </trkpt>
      <trkpt lat="42.544161" lon="0.329511">
        <ele>1979.0</ele>
        <time>2009-05-23T13:05:59Z</time>
      </trkpt>
      <trkpt lat="42.544128" lon="0.329628">
        <ele>1972.0</ele>
        <time>2009-05-23T13:06:08Z</time>
      </trkpt>
      <trkpt lat="42.544141" lon="0.329754">
        <ele>1972.0</ele>
        <time>2009-05-23T13:06:15Z</time>
      </trkpt>
      <trkpt lat="42.544088" lon="0.329870">
        <ele>1972.0</ele>
        <time>2009-05-23T13:06:31Z</time>
      </trkpt>
      <trkpt lat="42.544095" lon="0.329996">
        <ele>1966.0</ele>
        <time>2009-05-23T13:06:42Z</time>
      </trkpt>
      <trkpt lat="42.544028" lon="0.330113">
        <ele>1973.0</ele>
        <time>2009-05-23T13:07:24Z</time>
      </trkpt>
      <trkpt lat="42.543929" lon="0.330104">
        <ele>1973.0</ele>
        <time>2009-05-23T13:07:31Z</time>
      </trkpt>
      <trkpt lat="42.543836" lon="0.330104">
        <ele>1973.0</ele>
        <time>2009-05-23T13:07:40Z</time>
      </trkpt>
      <trkpt lat="42.543743" lon="0.330113">
        <ele>1973.0</ele>
        <time>2009-05-23T13:07:49Z</time>
      </trkpt>
      <trkpt lat="42.543656" lon="0.330167">
        <ele>1973.0</ele>
        <time>2009-05-23T13:08:08Z</time>
      </trkpt>
      <trkpt lat="42.543563" lon="0.330194">
        <ele>1973.0</ele>
        <time>2009-05-23T13:08:36Z</time>
      </trkpt>
      <trkpt lat="42.543490" lon="0.330266">
        <ele>1979.0</ele>
        <time>2009-05-23T13:08:50Z</time>
      </trkpt>
      <trkpt lat="42.543410" lon="0.330337">
        <ele>1979.0</ele>
        <time>2009-05-23T13:09:02Z</time>
      </trkpt>
      <trkpt lat="42.543371" lon="0.330454">
        <ele>1986.0</ele>
        <time>2009-05-23T13:09:16Z</time>
      </trkpt>
      <trkpt lat="42.543304" lon="0.330544">
        <ele>1993.0</ele>
        <time>2009-05-23T13:09:41Z</time>
      </trkpt>
      <trkpt lat="42.543218" lon="0.330607">
        <ele>1993.0</ele>
        <time>2009-05-23T13:09:50Z</time>
      </trkpt>
      <trkpt lat="42.543138" lon="0.330670">
        <ele>1993.0</ele>
        <time>2009-05-23T13:10:04Z</time>
      </trkpt>
      <trkpt lat="42.543125" lon="0.330733">
        <ele>2038.0</ele>
        <time>2009-05-23T13:10:51Z</time>
      </trkpt>
      <trkpt lat="42.543204" lon="0.330796">
        <ele>2043.0</ele>
        <time>2009-05-23T13:11:01Z</time>
      </trkpt>
      <trkpt lat="42.543304" lon="0.330778">
        <ele>2063.0</ele>
        <time>2009-05-23T13:11:13Z</time>
      </trkpt>
      <trkpt lat="42.543364" lon="0.330885">
        <ele>2079.0</ele>
        <time>2009-05-23T13:11:35Z</time>
      </trkpt>
      <trkpt lat="42.543390" lon="0.331002">
        <ele>2079.0</ele>
        <time>2009-05-23T13:11:53Z</time>
      </trkpt>
      <trkpt lat="42.543390" lon="0.331128">
        <ele>2079.0</ele>
        <time>2009-05-23T13:12:05Z</time>
      </trkpt>
      <trkpt lat="42.543324" lon="0.331218">
        <ele>2079.0</ele>
        <time>2009-05-23T13:12:15Z</time>
      </trkpt>
      <trkpt lat="42.543264" lon="0.331317">
        <ele>2068.0</ele>
        <time>2009-05-23T13:12:22Z</time>
      </trkpt>
      <trkpt lat="42.543185" lon="0.331389">
        <ele>2068.0</ele>
        <time>2009-05-23T13:12:36Z</time>
      </trkpt>
      <trkpt lat="42.543145" lon="0.331514">
        <ele>2062.0</ele>
        <time>2009-05-23T13:12:48Z</time>
      </trkpt>
      <trkpt lat="42.543105" lon="0.331631">
        <ele>2056.0</ele>
        <time>2009-05-23T13:13:00Z</time>
      </trkpt>
      <trkpt lat="42.543078" lon="0.331757">
        <ele>2049.0</ele>
        <time>2009-05-23T13:13:14Z</time>
      </trkpt>
      <trkpt lat="42.543038" lon="0.331874">
        <ele>2049.0</ele>
        <time>2009-05-23T13:13:28Z</time>
      </trkpt>
      <trkpt lat="42.542952" lon="0.331927">
        <ele>2036.0</ele>
        <time>2009-05-23T13:13:38Z</time>
      </trkpt>
      <trkpt lat="42.542872" lon="0.331990">
        <ele>2030.0</ele>
        <time>2009-05-23T13:13:50Z</time>
      </trkpt>
      <trkpt lat="42.542786" lon="0.332026">
        <ele>2030.0</ele>
        <time>2009-05-23T13:14:16Z</time>
      </trkpt>
      <trkpt lat="42.542706" lon="0.332107">
        <ele>2021.0</ele>
        <time>2009-05-23T13:14:24Z</time>
      </trkpt>
      <trkpt lat="42.542753" lon="0.332224">
        <ele>2021.0</ele>
        <time>2009-05-23T13:14:44Z</time>
      </trkpt>
      <trkpt lat="42.542779" lon="0.332341">
        <ele>2021.0</ele>
        <time>2009-05-23T13:15:00Z</time>
      </trkpt>
      <trkpt lat="42.542832" lon="0.332440">
        <ele>2021.0</ele>
        <time>2009-05-23T13:15:15Z</time>
      </trkpt>
      <trkpt lat="42.542786" lon="0.332547">
        <ele>2021.0</ele>
        <time>2009-05-23T13:15:28Z</time>
      </trkpt>
      <trkpt lat="42.542753" lon="0.332664">
        <ele>2016.0</ele>
        <time>2009-05-23T13:15:39Z</time>
      </trkpt>
      <trkpt lat="42.542826" lon="0.332763">
        <ele>2016.0</ele>
        <time>2009-05-23T13:15:54Z</time>
      </trkpt>
      <trkpt lat="42.542826" lon="0.332889">
        <ele>2024.0</ele>
        <time>2009-05-23T13:16:14Z</time>
      </trkpt>
      <trkpt lat="42.542826" lon="0.333014">
        <ele>2029.0</ele>
        <time>2009-05-23T13:16:33Z</time>
      </trkpt>
      <trkpt lat="42.542892" lon="0.333113">
        <ele>2038.0</ele>
        <time>2009-05-23T13:16:52Z</time>
      </trkpt>
      <trkpt lat="42.542965" lon="0.333185">
        <ele>2044.0</ele>
        <time>2009-05-23T13:17:03Z</time>
      </trkpt>
      <trkpt lat="42.543032" lon="0.333275">
        <ele>2044.0</ele>
        <time>2009-05-23T13:17:25Z</time>
      </trkpt>
      <trkpt lat="42.543072" lon="0.333392">
        <ele>2028.0</ele>
        <time>2009-05-23T13:19:26Z</time>
      </trkpt>
      <trkpt lat="42.543078" lon="0.333518">
        <ele>2035.0</ele>
        <time>2009-05-23T13:22:56Z</time>
      </trkpt>
      <trkpt lat="42.543092" lon="0.333643">
        <ele>2041.0</ele>
        <time>2009-05-23T13:23:23Z</time>
      </trkpt>
      <trkpt lat="42.543038" lon="0.333742">
        <ele>2053.0</ele>
        <time>2009-05-23T13:23:56Z</time>
      </trkpt>
      <trkpt lat="42.542999" lon="0.333859">
        <ele>2053.0</ele>
        <time>2009-05-23T13:24:24Z</time>
      </trkpt>
      <trkpt lat="42.542965" lon="0.333976">
        <ele>2053.0</ele>
        <time>2009-05-23T13:24:54Z</time>
      </trkpt>
      <trkpt lat="42.542939" lon="0.334092">
        <ele>2070.0</ele>
        <time>2009-05-23T13:28:20Z</time>
      </trkpt>
      <trkpt lat="42.542959" lon="0.334218">
        <ele>2070.0</ele>
        <time>2009-05-23T13:28:40Z</time>
      </trkpt>
      <trkpt lat="42.542985" lon="0.334335">
        <ele>2070.0</ele>
        <time>2009-05-23T13:28:56Z</time>
      </trkpt>
      <trkpt lat="42.542939" lon="0.334443">
        <ele>2080.0</ele>
        <time>2009-05-23T13:29:22Z</time>
      </trkpt>
      <trkpt lat="42.542886" lon="0.334542">
        <ele>2080.0</ele>
        <time>2009-05-23T13:29:44Z</time>
      </trkpt>
      <trkpt lat="42.542819" lon="0.334631">
        <ele>2085.0</ele>
        <time>2009-05-23T13:30:12Z</time>
      </trkpt>
      <trkpt lat="42.542799" lon="0.334757">
        <ele>2085.0</ele>
        <time>2009-05-23T13:30:36Z</time>
      </trkpt>
      <trkpt lat="42.542852" lon="0.334856">
        <ele>2085.0</ele>
        <time>2009-05-23T13:31:07Z</time>
      </trkpt>
      <trkpt lat="42.542779" lon="0.334937">
        <ele>2097.0</ele>
        <time>2009-05-23T13:31:41Z</time>
      </trkpt>
      <trkpt lat="42.542726" lon="0.335036">
        <ele>2097.0</ele>
        <time>2009-05-23T13:32:05Z</time>
      </trkpt>
      <trkpt lat="42.542700" lon="0.335152">
        <ele>2097.0</ele>
        <time>2009-05-23T13:32:31Z</time>
      </trkpt>
      <trkpt lat="42.542726" lon="0.335269">
        <ele>2102.0</ele>
        <time>2009-05-23T13:32:55Z</time>
      </trkpt>
      <trkpt lat="42.542733" lon="0.335395">
        <ele>2110.0</ele>
        <time>2009-05-23T13:33:47Z</time>
      </trkpt>
      <trkpt lat="42.542700" lon="0.335539">
        <ele>2127.0</ele>
        <time>2009-05-23T13:36:53Z</time>
      </trkpt>
      <trkpt lat="42.542739" lon="0.335656">
        <ele>2127.0</ele>
        <time>2009-05-23T13:37:38Z</time>
      </trkpt>
      <trkpt lat="42.542779" lon="0.335781">
        <ele>2121.0</ele>
        <time>2009-05-23T13:37:49Z</time>
      </trkpt>
      <trkpt lat="42.542832" lon="0.335889">
        <ele>2115.0</ele>
        <time>2009-05-23T13:37:58Z</time>
      </trkpt>
      <trkpt lat="42.542879" lon="0.335997">
        <ele>2115.0</ele>
        <time>2009-05-23T13:38:07Z</time>
      </trkpt>
      <trkpt lat="42.542919" lon="0.336123">
        <ele>2115.0</ele>
        <time>2009-05-23T13:38:16Z</time>
      </trkpt>
      <trkpt lat="42.542965" lon="0.336239">
        <ele>2115.0</ele>
        <time>2009-05-23T13:38:25Z</time>
      </trkpt>
      <trkpt lat="42.543038" lon="0.336311">
        <ele>2115.0</ele>
        <time>2009-05-23T13:38:38Z</time>
      </trkpt>
      <trkpt lat="42.543125" lon="0.336374">
        <ele>2108.0</ele>
        <time>2009-05-23T13:38:49Z</time>
      </trkpt>
      <trkpt lat="42.543211" lon="0.336437">
        <ele>2108.0</ele>
        <time>2009-05-23T13:39:02Z</time>
      </trkpt>
      <trkpt lat="42.543291" lon="0.336500">
        <ele>2108.0</ele>
        <time>2009-05-23T13:39:15Z</time>
      </trkpt>
      <trkpt lat="42.543377" lon="0.336554">
        <ele>2108.0</ele>
        <time>2009-05-23T13:39:29Z</time>
      </trkpt>
      <trkpt lat="42.543417" lon="0.336671">
        <ele>2108.0</ele>
        <time>2009-05-23T13:39:45Z</time>
      </trkpt>
      <trkpt lat="42.543357" lon="0.336769">
        <ele>2108.0</ele>
        <time>2009-05-23T13:39:59Z</time>
      </trkpt>
      <trkpt lat="42.543371" lon="0.336895">
        <ele>2108.0</ele>
        <time>2009-05-23T13:40:20Z</time>
      </trkpt>
      <trkpt lat="42.543437" lon="0.336994">
        <ele>2115.0</ele>
        <time>2009-05-23T13:40:34Z</time>
      </trkpt>
      <trkpt lat="42.543483" lon="0.337102">
        <ele>2115.0</ele>
        <time>2009-05-23T13:40:48Z</time>
      </trkpt>
      <trkpt lat="42.543523" lon="0.337219">
        <ele>2120.0</ele>
        <time>2009-05-23T13:41:07Z</time>
      </trkpt>
      <trkpt lat="42.543550" lon="0.337335">
        <ele>2120.0</ele>
        <time>2009-05-23T13:41:23Z</time>
      </trkpt>
      <trkpt lat="42.543557" lon="0.337461">
        <ele>2126.0</ele>
        <time>2009-05-23T13:41:46Z</time>
      </trkpt>
      <trkpt lat="42.543623" lon="0.337551">
        <ele>2126.0</ele>
        <time>2009-05-23T13:41:57Z</time>
      </trkpt>
      <trkpt lat="42.543630" lon="0.337677">
        <ele>2126.0</ele>
        <time>2009-05-23T13:42:18Z</time>
      </trkpt>
      <trkpt lat="42.543583" lon="0.337785">
        <ele>2126.0</ele>
        <time>2009-05-23T13:42:30Z</time>
      </trkpt>
      <trkpt lat="42.543643" lon="0.337883">
        <ele>2126.0</ele>
        <time>2009-05-23T13:42:41Z</time>
      </trkpt>
      <trkpt lat="42.543696" lon="0.337982">
        <ele>2126.0</ele>
        <time>2009-05-23T13:42:51Z</time>
      </trkpt>
      <trkpt lat="42.543749" lon="0.338081">
        <ele>2126.0</ele>
        <time>2009-05-23T13:43:02Z</time>
      </trkpt>
      <trkpt lat="42.543789" lon="0.338198">
        <ele>2126.0</ele>
        <time>2009-05-23T13:43:14Z</time>
      </trkpt>
      <trkpt lat="42.543816" lon="0.338315">
        <ele>2133.0</ele>
        <time>2009-05-23T13:43:24Z</time>
      </trkpt>
      <trkpt lat="42.543829" lon="0.338440">
        <ele>2133.0</ele>
        <time>2009-05-23T13:43:38Z</time>
      </trkpt>
      <trkpt lat="42.543822" lon="0.338566">
        <ele>2133.0</ele>
        <time>2009-05-23T13:43:51Z</time>
      </trkpt>
      <trkpt lat="42.543842" lon="0.338692">
        <ele>2139.0</ele>
        <time>2009-05-23T13:44:04Z</time>
      </trkpt>
      <trkpt lat="42.543816" lon="0.338809">
        <ele>2139.0</ele>
        <time>2009-05-23T13:44:17Z</time>
      </trkpt>
      <trkpt lat="42.543796" lon="0.338934">
        <ele>2145.0</ele>
        <time>2009-05-23T13:44:34Z</time>
      </trkpt>
      <trkpt lat="42.543796" lon="0.339069">
        <ele>2145.0</ele>
        <time>2009-05-23T13:44:44Z</time>
      </trkpt>
      <trkpt lat="42.543762" lon="0.339186">
        <ele>2145.0</ele>
        <time>2009-05-23T13:44:53Z</time>
      </trkpt>
      <trkpt lat="42.543663" lon="0.339213">
        <ele>2145.0</ele>
        <time>2009-05-23T13:45:13Z</time>
      </trkpt>
      <trkpt lat="42.543563" lon="0.339249">
        <ele>2145.0</ele>
        <time>2009-05-23T13:45:23Z</time>
      </trkpt>
      <trkpt lat="42.543497" lon="0.339339">
        <ele>2145.0</ele>
        <time>2009-05-23T13:45:31Z</time>
      </trkpt>
      <trkpt lat="42.543497" lon="0.339464">
        <ele>2145.0</ele>
        <time>2009-05-23T13:45:40Z</time>
      </trkpt>
      <trkpt lat="42.543464" lon="0.339581">
        <ele>2145.0</ele>
        <time>2009-05-23T13:45:53Z</time>
      </trkpt>
      <trkpt lat="42.543450" lon="0.339707">
        <ele>2151.0</ele>
        <time>2009-05-23T13:46:08Z</time>
      </trkpt>
      <trkpt lat="42.543424" lon="0.339824">
        <ele>2151.0</ele>
        <time>2009-05-23T13:46:22Z</time>
      </trkpt>
      <trkpt lat="42.543364" lon="0.339923">
        <ele>2151.0</ele>
        <time>2009-05-23T13:46:38Z</time>
      </trkpt>
      <trkpt lat="42.543291" lon="0.340012">
        <ele>2151.0</ele>
        <time>2009-05-23T13:46:58Z</time>
      </trkpt>
      <trkpt lat="42.543211" lon="0.340093">
        <ele>2157.0</ele>
        <time>2009-05-23T13:47:20Z</time>
      </trkpt>
      <trkpt lat="42.543145" lon="0.340183">
        <ele>2157.0</ele>
        <time>2009-05-23T13:47:37Z</time>
      </trkpt>
      <trkpt lat="42.543098" lon="0.340291">
        <ele>2164.0</ele>
        <time>2009-05-23T13:47:58Z</time>
      </trkpt>
      <trkpt lat="42.543038" lon="0.340390">
        <ele>2164.0</ele>
        <time>2009-05-23T13:48:09Z</time>
      </trkpt>
      <trkpt lat="42.542965" lon="0.340461">
        <ele>2169.0</ele>
        <time>2009-05-23T13:48:25Z</time>
      </trkpt>
      <trkpt lat="42.542892" lon="0.340533">
        <ele>2169.0</ele>
        <time>2009-05-23T13:48:36Z</time>
      </trkpt>
      <trkpt lat="42.542826" lon="0.340632">
        <ele>2175.0</ele>
        <time>2009-05-23T13:48:48Z</time>
      </trkpt>
      <trkpt lat="42.542746" lon="0.340695">
        <ele>2175.0</ele>
        <time>2009-05-23T13:49:01Z</time>
      </trkpt>
      <trkpt lat="42.542653" lon="0.340758">
        <ele>2175.0</ele>
        <time>2009-05-23T13:49:14Z</time>
      </trkpt>
      <trkpt lat="42.542567" lon="0.340812">
        <ele>2175.0</ele>
        <time>2009-05-23T13:49:33Z</time>
      </trkpt>
      <trkpt lat="42.542474" lon="0.340821">
        <ele>2175.0</ele>
        <time>2009-05-23T13:50:01Z</time>
      </trkpt>
      <trkpt lat="42.542381" lon="0.340830">
        <ele>2175.0</ele>
        <time>2009-05-23T13:50:22Z</time>
      </trkpt>
      <trkpt lat="42.542288" lon="0.340821">
        <ele>2181.0</ele>
        <time>2009-05-23T13:50:44Z</time>
      </trkpt>
      <trkpt lat="42.542201" lon="0.340884">
        <ele>2181.0</ele>
        <time>2009-05-23T13:51:07Z</time>
      </trkpt>
      <trkpt lat="42.542108" lon="0.340893">
        <ele>2191.0</ele>
        <time>2009-05-23T13:51:24Z</time>
      </trkpt>
      <trkpt lat="42.542022" lon="0.340929">
        <ele>2191.0</ele>
        <time>2009-05-23T13:51:38Z</time>
      </trkpt>
      <trkpt lat="42.541929" lon="0.340947">
        <ele>2191.0</ele>
        <time>2009-05-23T13:51:56Z</time>
      </trkpt>
      <trkpt lat="42.541843" lon="0.340893">
        <ele>2191.0</ele>
        <time>2009-05-23T13:52:13Z</time>
      </trkpt>
      <trkpt lat="42.541756" lon="0.340857">
        <ele>2196.0</ele>
        <time>2009-05-23T13:52:29Z</time>
      </trkpt>
      <trkpt lat="42.541663" lon="0.340893">
        <ele>2196.0</ele>
        <time>2009-05-23T13:52:51Z</time>
      </trkpt>
      <trkpt lat="42.541590" lon="0.340983">
        <ele>2196.0</ele>
        <time>2009-05-23T13:53:10Z</time>
      </trkpt>
      <trkpt lat="42.541544" lon="0.341090">
        <ele>2196.0</ele>
        <time>2009-05-23T13:53:28Z</time>
      </trkpt>
      <trkpt lat="42.541457" lon="0.341144">
        <ele>2205.0</ele>
        <time>2009-05-23T13:53:52Z</time>
      </trkpt>
      <trkpt lat="42.541371" lon="0.341108">
        <ele>2205.0</ele>
        <time>2009-05-23T13:54:08Z</time>
      </trkpt>
      <trkpt lat="42.541298" lon="0.341180">
        <ele>2205.0</ele>
        <time>2009-05-23T13:54:20Z</time>
      </trkpt>
      <trkpt lat="42.541258" lon="0.341297">
        <ele>2205.0</ele>
        <time>2009-05-23T13:54:41Z</time>
      </trkpt>
      <trkpt lat="42.541225" lon="0.341414">
        <ele>2205.0</ele>
        <time>2009-05-23T13:55:08Z</time>
      </trkpt>
      <trkpt lat="42.541178" lon="0.341522">
        <ele>2211.0</ele>
        <time>2009-05-23T13:55:35Z</time>
      </trkpt>
      <trkpt lat="42.541125" lon="0.341629">
        <ele>2211.0</ele>
        <time>2009-05-23T13:55:51Z</time>
      </trkpt>
      <trkpt lat="42.541072" lon="0.341728">
        <ele>2223.0</ele>
        <time>2009-05-23T13:56:33Z</time>
      </trkpt>
      <trkpt lat="42.541119" lon="0.341836">
        <ele>2230.0</ele>
        <time>2009-05-23T13:56:47Z</time>
      </trkpt>
      <trkpt lat="42.541032" lon="0.341899">
        <ele>2230.0</ele>
        <time>2009-05-23T13:56:59Z</time>
      </trkpt>
      <trkpt lat="42.540946" lon="0.341935">
        <ele>2222.0</ele>
        <time>2009-05-23T13:57:09Z</time>
      </trkpt>
      <trkpt lat="42.540906" lon="0.342052">
        <ele>2222.0</ele>
        <time>2009-05-23T13:57:27Z</time>
      </trkpt>
      <trkpt lat="42.540913" lon="0.342177">
        <ele>2231.0</ele>
        <time>2009-05-23T13:57:42Z</time>
      </trkpt>
      <trkpt lat="42.540913" lon="0.342303">
        <ele>2231.0</ele>
        <time>2009-05-23T13:57:58Z</time>
      </trkpt>
      <trkpt lat="42.540873" lon="0.342420">
        <ele>2231.0</ele>
        <time>2009-05-23T13:58:14Z</time>
      </trkpt>
      <trkpt lat="42.540833" lon="0.342537">
        <ele>2237.0</ele>
        <time>2009-05-23T13:58:38Z</time>
      </trkpt>
      <trkpt lat="42.540820" lon="0.342662">
        <ele>2246.0</ele>
        <time>2009-05-23T13:59:04Z</time>
      </trkpt>
      <trkpt lat="42.540767" lon="0.342761">
        <ele>2240.0</ele>
        <time>2009-05-23T13:59:18Z</time>
      </trkpt>
      <trkpt lat="42.540760" lon="0.342887">
        <ele>2255.0</ele>
        <time>2009-05-23T13:59:55Z</time>
      </trkpt>
      <trkpt lat="42.540707" lon="0.342986">
        <ele>2255.0</ele>
        <time>2009-05-23T14:00:35Z</time>
      </trkpt>
      <trkpt lat="42.540700" lon="0.343112">
        <ele>2262.0</ele>
        <time>2009-05-23T14:01:05Z</time>
      </trkpt>
      <trkpt lat="42.540707" lon="0.343237">
        <ele>2252.0</ele>
        <time>2009-05-23T14:01:39Z</time>
      </trkpt>
      <trkpt lat="42.540700" lon="0.343363">
        <ele>2260.0</ele>
        <time>2009-05-23T14:02:01Z</time>
      </trkpt>
      <trkpt lat="42.540700" lon="0.343489">
        <ele>2276.0</ele>
        <time>2009-05-23T14:02:32Z</time>
      </trkpt>
      <trkpt lat="42.540700" lon="0.343615">
        <ele>2276.0</ele>
        <time>2009-05-23T14:02:57Z</time>
      </trkpt>
      <trkpt lat="42.540707" lon="0.343740">
        <ele>2276.0</ele>
        <time>2009-05-23T14:03:23Z</time>
      </trkpt>
      <trkpt lat="42.540720" lon="0.343866">
        <ele>2276.0</ele>
        <time>2009-05-23T14:03:47Z</time>
      </trkpt>
      <trkpt lat="42.540693" lon="0.343992">
        <ele>2294.0</ele>
        <time>2009-05-23T14:04:20Z</time>
      </trkpt>
      <trkpt lat="42.540693" lon="0.344118">
        <ele>2294.0</ele>
        <time>2009-05-23T14:04:44Z</time>
      </trkpt>
      <trkpt lat="42.540600" lon="0.344109">
        <ele>2287.0</ele>
        <time>2009-05-23T14:05:18Z</time>
      </trkpt>
      <trkpt lat="42.540561" lon="0.344225">
        <ele>2299.0</ele>
        <time>2009-05-23T14:05:54Z</time>
      </trkpt>
      <trkpt lat="42.540547" lon="0.344351">
        <ele>2299.0</ele>
        <time>2009-05-23T14:06:14Z</time>
      </trkpt>
      <trkpt lat="42.540501" lon="0.344459">
        <ele>2311.0</ele>
        <time>2009-05-23T14:06:53Z</time>
      </trkpt>
      <trkpt lat="42.540468" lon="0.344576">
        <ele>2306.0</ele>
        <time>2009-05-23T14:07:14Z</time>
      </trkpt>
      <trkpt lat="42.540474" lon="0.344702">
        <ele>2317.0</ele>
        <time>2009-05-23T14:07:36Z</time>
      </trkpt>
      <trkpt lat="42.540474" lon="0.344827">
        <ele>2317.0</ele>
        <time>2009-05-23T14:07:53Z</time>
      </trkpt>
      <trkpt lat="42.540448" lon="0.344944">
        <ele>2317.0</ele>
        <time>2009-05-23T14:08:10Z</time>
      </trkpt>
      <trkpt lat="42.540428" lon="0.345070">
        <ele>2317.0</ele>
        <time>2009-05-23T14:08:25Z</time>
      </trkpt>
      <trkpt lat="42.540388" lon="0.345187">
        <ele>2317.0</ele>
        <time>2009-05-23T14:08:46Z</time>
      </trkpt>
      <trkpt lat="42.540341" lon="0.345294">
        <ele>2312.0</ele>
        <time>2009-05-23T14:09:08Z</time>
      </trkpt>
      <trkpt lat="42.540255" lon="0.345330">
        <ele>2312.0</ele>
        <time>2009-05-23T14:09:26Z</time>
      </trkpt>
      <trkpt lat="42.540169" lon="0.345366">
        <ele>2317.0</ele>
        <time>2009-05-23T14:09:43Z</time>
      </trkpt>
      <trkpt lat="42.540129" lon="0.345483">
        <ele>2311.0</ele>
        <time>2009-05-23T14:09:53Z</time>
      </trkpt>
      <trkpt lat="42.540089" lon="0.345600">
        <ele>2320.0</ele>
        <time>2009-05-23T14:10:13Z</time>
      </trkpt>
      <trkpt lat="42.540089" lon="0.345726">
        <ele>2326.0</ele>
        <time>2009-05-23T14:10:28Z</time>
      </trkpt>
      <trkpt lat="42.540023" lon="0.345815">
        <ele>2326.0</ele>
        <time>2009-05-23T14:10:49Z</time>
      </trkpt>
      <trkpt lat="42.539976" lon="0.345923">
        <ele>2326.0</ele>
        <time>2009-05-23T14:11:07Z</time>
      </trkpt>
      <trkpt lat="42.540003" lon="0.346040">
        <ele>2326.0</ele>
        <time>2009-05-23T14:11:18Z</time>
      </trkpt>
      <trkpt lat="42.540049" lon="0.346166">
        <ele>2326.0</ele>
        <time>2009-05-23T14:11:29Z</time>
      </trkpt>
      <trkpt lat="42.540056" lon="0.346292">
        <ele>2317.0</ele>
        <time>2009-05-23T14:11:42Z</time>
      </trkpt>
      <trkpt lat="42.540102" lon="0.346399">
        <ele>2317.0</ele>
        <time>2009-05-23T14:11:56Z</time>
      </trkpt>
      <trkpt lat="42.540109" lon="0.346525">
        <ele>2334.0</ele>
        <time>2009-05-23T14:12:18Z</time>
      </trkpt>
      <trkpt lat="42.540129" lon="0.346651">
        <ele>2334.0</ele>
        <time>2009-05-23T14:12:31Z</time>
      </trkpt>
      <trkpt lat="42.540082" lon="0.346759">
        <ele>2334.0</ele>
        <time>2009-05-23T14:12:44Z</time>
      </trkpt>
      <trkpt lat="42.540056" lon="0.346875">
        <ele>2334.0</ele>
        <time>2009-05-23T14:12:55Z</time>
      </trkpt>
      <trkpt lat="42.540056" lon="0.347001">
        <ele>2334.0</ele>
        <time>2009-05-23T14:13:15Z</time>
      </trkpt>
      <trkpt lat="42.540062" lon="0.347127">
        <ele>2334.0</ele>
        <time>2009-05-23T14:13:41Z</time>
      </trkpt>
      <trkpt lat="42.540076" lon="0.347262">
        <ele>2339.0</ele>
        <time>2009-05-23T14:13:58Z</time>
      </trkpt>
      <trkpt lat="42.540082" lon="0.347388">
        <ele>2345.0</ele>
        <time>2009-05-23T14:14:08Z</time>
      </trkpt>
      <trkpt lat="42.540042" lon="0.347504">
        <ele>2345.0</ele>
        <time>2009-05-23T14:14:19Z</time>
      </trkpt>
      <trkpt lat="42.540029" lon="0.347630">
        <ele>2352.0</ele>
        <time>2009-05-23T14:14:32Z</time>
      </trkpt>
      <trkpt lat="42.540049" lon="0.347756">
        <ele>2352.0</ele>
        <time>2009-05-23T14:14:47Z</time>
      </trkpt>
      <trkpt lat="42.540062" lon="0.347882">
        <ele>2358.0</ele>
        <time>2009-05-23T14:14:57Z</time>
      </trkpt>
      <trkpt lat="42.540082" lon="0.348007">
        <ele>2358.0</ele>
        <time>2009-05-23T14:15:09Z</time>
      </trkpt>
      <trkpt lat="42.540069" lon="0.348151">
        <ele>2366.0</ele>
        <time>2009-05-23T14:16:14Z</time>
      </trkpt>
      <trkpt lat="42.540082" lon="0.348277">
        <ele>2366.0</ele>
        <time>2009-05-23T14:16:22Z</time>
      </trkpt>
      <trkpt lat="42.540089" lon="0.348403">
        <ele>2366.0</ele>
        <time>2009-05-23T14:16:32Z</time>
      </trkpt>
      <trkpt lat="42.540102" lon="0.348528">
        <ele>2366.0</ele>
        <time>2009-05-23T14:16:45Z</time>
      </trkpt>
      <trkpt lat="42.540129" lon="0.348645">
        <ele>2366.0</ele>
        <time>2009-05-23T14:16:55Z</time>
      </trkpt>
      <trkpt lat="42.540182" lon="0.348744">
        <ele>2366.0</ele>
        <time>2009-05-23T14:17:11Z</time>
      </trkpt>
      <trkpt lat="42.540255" lon="0.348816">
        <ele>2360.0</ele>
        <time>2009-05-23T14:17:48Z</time>
      </trkpt>
      <trkpt lat="42.540341" lon="0.348870">
        <ele>2360.0</ele>
        <time>2009-05-23T14:17:56Z</time>
      </trkpt>
      <trkpt lat="42.540434" lon="0.348924">
        <ele>2360.0</ele>
        <time>2009-05-23T14:18:05Z</time>
      </trkpt>
      <trkpt lat="42.540527" lon="0.348915">
        <ele>2346.0</ele>
        <time>2009-05-23T14:18:13Z</time>
      </trkpt>
      <trkpt lat="42.540594" lon="0.348951">
        <ele>2353.0</ele>
        <time>2009-05-23T14:27:19Z</time>
      </trkpt>
      <trkpt lat="42.540567" lon="0.349076">
        <ele>2353.0</ele>
        <time>2009-05-23T14:27:36Z</time>
      </trkpt>
      <trkpt lat="42.540554" lon="0.349202">
        <ele>2347.0</ele>
        <time>2009-05-23T14:27:49Z</time>
      </trkpt>
      <trkpt lat="42.540521" lon="0.349319">
        <ele>2347.0</ele>
        <time>2009-05-23T14:28:04Z</time>
      </trkpt>
      <trkpt lat="42.540474" lon="0.349436">
        <ele>2347.0</ele>
        <time>2009-05-23T14:28:13Z</time>
      </trkpt>
      <trkpt lat="42.540388" lon="0.349517">
        <ele>2347.0</ele>
        <time>2009-05-23T14:28:55Z</time>
      </trkpt>
      <trkpt lat="42.540302" lon="0.349570">
        <ele>2342.0</ele>
        <time>2009-05-23T14:29:00Z</time>
      </trkpt>
      <trkpt lat="42.540215" lon="0.349642">
        <ele>2329.0</ele>
        <time>2009-05-23T14:30:00Z</time>
      </trkpt>
      <trkpt lat="42.540122" lon="0.349687">
        <ele>2329.0</ele>
        <time>2009-05-23T14:30:14Z</time>
      </trkpt>
      <trkpt lat="42.540076" lon="0.349804">
        <ele>2329.0</ele>
        <time>2009-05-23T14:30:19Z</time>
      </trkpt>
      <trkpt lat="42.540029" lon="0.349912">
        <ele>2329.0</ele>
        <time>2009-05-23T14:30:24Z</time>
      </trkpt>
      <trkpt lat="42.540003" lon="0.350047">
        <ele>2323.0</ele>
        <time>2009-05-23T14:30:29Z</time>
      </trkpt>
      <trkpt lat="42.539989" lon="0.350172">
        <ele>2317.0</ele>
        <time>2009-05-23T14:30:35Z</time>
      </trkpt>
      <trkpt lat="42.539963" lon="0.350298">
        <ele>2317.0</ele>
        <time>2009-05-23T14:30:39Z</time>
      </trkpt>
      <trkpt lat="42.539936" lon="0.350415">
        <ele>2317.0</ele>
        <time>2009-05-23T14:30:43Z</time>
      </trkpt>
      <trkpt lat="42.539910" lon="0.350532">
        <ele>2306.0</ele>
        <time>2009-05-23T14:30:50Z</time>
      </trkpt>
      <trkpt lat="42.539910" lon="0.350657">
        <ele>2306.0</ele>
        <time>2009-05-23T14:30:57Z</time>
      </trkpt>
      <trkpt lat="42.539903" lon="0.350783">
        <ele>2297.0</ele>
        <time>2009-05-23T14:31:05Z</time>
      </trkpt>
      <trkpt lat="42.539837" lon="0.350873">
        <ele>2297.0</ele>
        <time>2009-05-23T14:31:12Z</time>
      </trkpt>
      <trkpt lat="42.539757" lon="0.350945">
        <ele>2297.0</ele>
        <time>2009-05-23T14:31:19Z</time>
      </trkpt>
      <trkpt lat="42.539664" lon="0.350990">
        <ele>2297.0</ele>
        <time>2009-05-23T14:31:27Z</time>
      </trkpt>
      <trkpt lat="42.539564" lon="0.350990">
        <ele>2297.0</ele>
        <time>2009-05-23T14:31:35Z</time>
      </trkpt>
      <trkpt lat="42.539465" lon="0.350999">
        <ele>2303.0</ele>
        <time>2009-05-23T14:31:43Z</time>
      </trkpt>
      <trkpt lat="42.539365" lon="0.350990">
        <ele>2303.0</ele>
        <time>2009-05-23T14:31:51Z</time>
      </trkpt>
      <trkpt lat="42.539272" lon="0.350972">
        <ele>2303.0</ele>
        <time>2009-05-23T14:31:59Z</time>
      </trkpt>
      <trkpt lat="42.539179" lon="0.350936">
        <ele>2303.0</ele>
        <time>2009-05-23T14:32:06Z</time>
      </trkpt>
      <trkpt lat="42.539086" lon="0.350873">
        <ele>2294.0</ele>
        <time>2009-05-23T14:32:14Z</time>
      </trkpt>
      <trkpt lat="42.539000" lon="0.350810">
        <ele>2294.0</ele>
        <time>2009-05-23T14:32:23Z</time>
      </trkpt>
      <trkpt lat="42.538913" lon="0.350756">
        <ele>2294.0</ele>
        <time>2009-05-23T14:32:33Z</time>
      </trkpt>
      <trkpt lat="42.538833" lon="0.350837">
        <ele>2294.0</ele>
        <time>2009-05-23T14:32:40Z</time>
      </trkpt>
      <trkpt lat="42.538787" lon="0.350963">
        <ele>2294.0</ele>
        <time>2009-05-23T14:32:45Z</time>
      </trkpt>
      <trkpt lat="42.538740" lon="0.351089">
        <ele>2294.0</ele>
        <time>2009-05-23T14:32:50Z</time>
      </trkpt>
      <trkpt lat="42.538687" lon="0.351223">
        <ele>2294.0</ele>
        <time>2009-05-23T14:32:55Z</time>
      </trkpt>
      <trkpt lat="42.538647" lon="0.351340">
        <ele>2288.0</ele>
        <time>2009-05-23T14:33:01Z</time>
      </trkpt>
      <trkpt lat="42.538594" lon="0.351439">
        <ele>2278.0</ele>
        <time>2009-05-23T14:33:37Z</time>
      </trkpt>
      <trkpt lat="42.538568" lon="0.351565">
        <ele>2278.0</ele>
        <time>2009-05-23T14:33:44Z</time>
      </trkpt>
      <trkpt lat="42.538521" lon="0.351681">
        <ele>2278.0</ele>
        <time>2009-05-23T14:33:51Z</time>
      </trkpt>
      <trkpt lat="42.538468" lon="0.351789">
        <ele>2278.0</ele>
        <time>2009-05-23T14:33:58Z</time>
      </trkpt>
      <trkpt lat="42.538415" lon="0.351888">
        <ele>2278.0</ele>
        <time>2009-05-23T14:34:04Z</time>
      </trkpt>
      <trkpt lat="42.538362" lon="0.351996">
        <ele>2278.0</ele>
        <time>2009-05-23T14:34:10Z</time>
      </trkpt>
      <trkpt lat="42.538289" lon="0.352095">
        <ele>2278.0</ele>
        <time>2009-05-23T14:34:16Z</time>
      </trkpt>
      <trkpt lat="42.538202" lon="0.352167">
        <ele>2278.0</ele>
        <time>2009-05-23T14:34:23Z</time>
      </trkpt>
      <trkpt lat="42.538116" lon="0.352229">
        <ele>2269.0</ele>
        <time>2009-05-23T14:34:29Z</time>
      </trkpt>
      <trkpt lat="42.538030" lon="0.352292">
        <ele>2269.0</ele>
        <time>2009-05-23T14:34:35Z</time>
      </trkpt>
      <trkpt lat="42.537943" lon="0.352355">
        <ele>2263.0</ele>
        <time>2009-05-23T14:34:41Z</time>
      </trkpt>
      <trkpt lat="42.537857" lon="0.352418">
        <ele>2263.0</ele>
        <time>2009-05-23T14:34:47Z</time>
      </trkpt>
      <trkpt lat="42.537771" lon="0.352454">
        <ele>2263.0</ele>
        <time>2009-05-23T14:34:53Z</time>
      </trkpt>
      <trkpt lat="42.537677" lon="0.352472">
        <ele>2253.0</ele>
        <time>2009-05-23T14:35:59Z</time>
      </trkpt>
      <trkpt lat="42.537584" lon="0.352490">
        <ele>2253.0</ele>
        <time>2009-05-23T14:39:58Z</time>
      </trkpt>
      <trkpt lat="42.537491" lon="0.352454">
        <ele>2253.0</ele>
        <time>2009-05-23T14:40:06Z</time>
      </trkpt>
      <trkpt lat="42.537405" lon="0.352400">
        <ele>2253.0</ele>
        <time>2009-05-23T14:40:15Z</time>
      </trkpt>
      <trkpt lat="42.537352" lon="0.352301">
        <ele>2253.0</ele>
        <time>2009-05-23T14:40:29Z</time>
      </trkpt>
      <trkpt lat="42.537305" lon="0.352193">
        <ele>2253.0</ele>
        <time>2009-05-23T14:40:42Z</time>
      </trkpt>
      <trkpt lat="42.537226" lon="0.352104">
        <ele>2246.0</ele>
        <time>2009-05-23T14:40:51Z</time>
      </trkpt>
      <trkpt lat="42.537133" lon="0.352068">
        <ele>2246.0</ele>
        <time>2009-05-23T14:40:57Z</time>
      </trkpt>
      <trkpt lat="42.537046" lon="0.352005">
        <ele>2246.0</ele>
        <time>2009-05-23T14:41:10Z</time>
      </trkpt>
      <trkpt lat="42.536947" lon="0.351996">
        <ele>2246.0</ele>
        <time>2009-05-23T14:41:18Z</time>
      </trkpt>
      <trkpt lat="42.536854" lon="0.351987">
        <ele>2246.0</ele>
        <time>2009-05-23T14:41:26Z</time>
      </trkpt>
      <trkpt lat="42.536754" lon="0.351978">
        <ele>2246.0</ele>
        <time>2009-05-23T14:41:35Z</time>
      </trkpt>
      <trkpt lat="42.536654" lon="0.351978">
        <ele>2240.0</ele>
        <time>2009-05-23T14:41:44Z</time>
      </trkpt>
      <trkpt lat="42.536561" lon="0.351987">
        <ele>2240.0</ele>
        <time>2009-05-23T14:41:53Z</time>
      </trkpt>
      <trkpt lat="42.536462" lon="0.351978">
        <ele>2240.0</ele>
        <time>2009-05-23T14:42:01Z</time>
      </trkpt>
      <trkpt lat="42.536362" lon="0.352005">
        <ele>2240.0</ele>
        <time>2009-05-23T14:42:09Z</time>
      </trkpt>
      <trkpt lat="42.536269" lon="0.352050">
        <ele>2233.0</ele>
        <time>2009-05-23T14:42:16Z</time>
      </trkpt>
      <trkpt lat="42.536176" lon="0.352095">
        <ele>2233.0</ele>
        <time>2009-05-23T14:42:23Z</time>
      </trkpt>
      <trkpt lat="42.536090" lon="0.352149">
        <ele>2233.0</ele>
        <time>2009-05-23T14:42:31Z</time>
      </trkpt>
      <trkpt lat="42.535997" lon="0.352202">
        <ele>2233.0</ele>
        <time>2009-05-23T14:42:39Z</time>
      </trkpt>
      <trkpt lat="42.535904" lon="0.352247">
        <ele>2233.0</ele>
        <time>2009-05-23T14:42:46Z</time>
      </trkpt>
      <trkpt lat="42.535817" lon="0.352283">
        <ele>2225.0</ele>
        <time>2009-05-23T14:42:53Z</time>
      </trkpt>
      <trkpt lat="42.535731" lon="0.352346">
        <ele>2225.0</ele>
        <time>2009-05-23T14:43:01Z</time>
      </trkpt>
      <trkpt lat="42.535651" lon="0.352418">
        <ele>2220.0</ele>
        <time>2009-05-23T14:43:08Z</time>
      </trkpt>
      <trkpt lat="42.535585" lon="0.352517">
        <ele>2220.0</ele>
        <time>2009-05-23T14:43:15Z</time>
      </trkpt>
      <trkpt lat="42.535512" lon="0.352616">
        <ele>2220.0</ele>
        <time>2009-05-23T14:43:22Z</time>
      </trkpt>
      <trkpt lat="42.535452" lon="0.352715">
        <ele>2214.0</ele>
        <time>2009-05-23T14:43:29Z</time>
      </trkpt>
      <trkpt lat="42.535386" lon="0.352804">
        <ele>2214.0</ele>
        <time>2009-05-23T14:43:35Z</time>
      </trkpt>
      <trkpt lat="42.535312" lon="0.352885">
        <ele>2214.0</ele>
        <time>2009-05-23T14:43:42Z</time>
      </trkpt>
      <trkpt lat="42.535233" lon="0.352966">
        <ele>2214.0</ele>
        <time>2009-05-23T14:43:51Z</time>
      </trkpt>
      <trkpt lat="42.535160" lon="0.353056">
        <ele>2214.0</ele>
        <time>2009-05-23T14:44:01Z</time>
      </trkpt>
      <trkpt lat="42.535160" lon="0.353182">
        <ele>2214.0</ele>
        <time>2009-05-23T14:44:57Z</time>
      </trkpt>
      <trkpt lat="42.535186" lon="0.353307">
        <ele>2214.0</ele>
        <time>2009-05-23T14:45:06Z</time>
      </trkpt>
      <trkpt lat="42.535193" lon="0.353433">
        <ele>2214.0</ele>
        <time>2009-05-23T14:45:15Z</time>
      </trkpt>
      <trkpt lat="42.535133" lon="0.353541">
        <ele>2205.0</ele>
        <time>2009-05-23T14:45:25Z</time>
      </trkpt>
      <trkpt lat="42.535093" lon="0.353658">
        <ele>2205.0</ele>
        <time>2009-05-23T14:45:33Z</time>
      </trkpt>
      <trkpt lat="42.535020" lon="0.353748">
        <ele>2205.0</ele>
        <time>2009-05-23T14:46:20Z</time>
      </trkpt>
      <trkpt lat="42.534940" lon="0.353810">
        <ele>2205.0</ele>
        <time>2009-05-23T14:46:47Z</time>
      </trkpt>
      <trkpt lat="42.535033" lon="0.353792">
        <ele>2205.0</ele>
        <time>2009-05-23T14:48:32Z</time>
      </trkpt>
      <trkpt lat="42.534940" lon="0.353792">
        <ele>2205.0</ele>
        <time>2009-05-23T14:49:30Z</time>
      </trkpt>
      <trkpt lat="42.534894" lon="0.353685">
        <ele>2199.0</ele>
        <time>2009-05-23T14:54:31Z</time>
      </trkpt>
      <trkpt lat="42.534801" lon="0.353658">
        <ele>2199.0</ele>
        <time>2009-05-23T14:54:49Z</time>
      </trkpt>
      <trkpt lat="42.534701" lon="0.353667">
        <ele>2193.0</ele>
        <time>2009-05-23T14:55:01Z</time>
      </trkpt>
      <trkpt lat="42.534608" lon="0.353631">
        <ele>2193.0</ele>
        <time>2009-05-23T14:55:11Z</time>
      </trkpt>
      <trkpt lat="42.534515" lon="0.353595">
        <ele>2193.0</ele>
        <time>2009-05-23T14:55:21Z</time>
      </trkpt>
      <trkpt lat="42.534429" lon="0.353550">
        <ele>2193.0</ele>
        <time>2009-05-23T14:55:30Z</time>
      </trkpt>
      <trkpt lat="42.534323" lon="0.353532">
        <ele>2184.0</ele>
        <time>2009-05-23T14:55:37Z</time>
      </trkpt>
      <trkpt lat="42.534223" lon="0.353550">
        <ele>2184.0</ele>
        <time>2009-05-23T14:55:44Z</time>
      </trkpt>
      <trkpt lat="42.534137" lon="0.353505">
        <ele>2184.0</ele>
        <time>2009-05-23T14:55:55Z</time>
      </trkpt>
      <trkpt lat="42.534044" lon="0.353478">
        <ele>2184.0</ele>
        <time>2009-05-23T14:56:06Z</time>
      </trkpt>
      <trkpt lat="42.533950" lon="0.353451">
        <ele>2184.0</ele>
        <time>2009-05-23T14:56:13Z</time>
      </trkpt>
      <trkpt lat="42.533857" lon="0.353469">
        <ele>2184.0</ele>
        <time>2009-05-23T14:56:20Z</time>
      </trkpt>
      <trkpt lat="42.533764" lon="0.353469">
        <ele>2178.0</ele>
        <time>2009-05-23T14:56:27Z</time>
      </trkpt>
      <trkpt lat="42.533685" lon="0.353406">
        <ele>2178.0</ele>
        <time>2009-05-23T14:56:35Z</time>
      </trkpt>
      <trkpt lat="42.533592" lon="0.353370">
        <ele>2173.0</ele>
        <time>2009-05-23T14:56:43Z</time>
      </trkpt>
      <trkpt lat="42.533499" lon="0.353379">
        <ele>2173.0</ele>
        <time>2009-05-23T14:56:51Z</time>
      </trkpt>
      <trkpt lat="42.533419" lon="0.353316">
        <ele>2164.0</ele>
        <time>2009-05-23T14:57:02Z</time>
      </trkpt>
      <trkpt lat="42.533319" lon="0.353280">
        <ele>2150.0</ele>
        <time>2009-05-23T14:57:46Z</time>
      </trkpt>
      <trkpt lat="42.533226" lon="0.353209">
        <ele>2150.0</ele>
        <time>2009-05-23T14:57:54Z</time>
      </trkpt>
      <trkpt lat="42.533186" lon="0.353083">
        <ele>2144.0</ele>
        <time>2009-05-23T14:58:03Z</time>
      </trkpt>
      <trkpt lat="42.533107" lon="0.353011">
        <ele>2144.0</ele>
        <time>2009-05-23T14:58:11Z</time>
      </trkpt>
      <trkpt lat="42.533034" lon="0.352930">
        <ele>2136.0</ele>
        <time>2009-05-23T14:58:22Z</time>
      </trkpt>
      <trkpt lat="42.532941" lon="0.352912">
        <ele>2136.0</ele>
        <time>2009-05-23T14:58:31Z</time>
      </trkpt>
      <trkpt lat="42.532874" lon="0.352822">
        <ele>2124.0</ele>
        <time>2009-05-23T14:58:42Z</time>
      </trkpt>
      <trkpt lat="42.532781" lon="0.352822">
        <ele>2124.0</ele>
        <time>2009-05-23T14:58:48Z</time>
      </trkpt>
      <trkpt lat="42.532675" lon="0.352804">
        <ele>2117.0</ele>
        <time>2009-05-23T14:58:58Z</time>
      </trkpt>
      <trkpt lat="42.532582" lon="0.352831">
        <ele>2117.0</ele>
        <time>2009-05-23T14:59:02Z</time>
      </trkpt>
      <trkpt lat="42.532482" lon="0.352813">
        <ele>2117.0</ele>
        <time>2009-05-23T14:59:09Z</time>
      </trkpt>
      <trkpt lat="42.532469" lon="0.352688">
        <ele>2117.0</ele>
        <time>2009-05-23T14:59:16Z</time>
      </trkpt>
      <trkpt lat="42.532436" lon="0.352562">
        <ele>2117.0</ele>
        <time>2009-05-23T14:59:23Z</time>
      </trkpt>
      <trkpt lat="42.532462" lon="0.352427">
        <ele>2111.0</ele>
        <time>2009-05-23T14:59:31Z</time>
      </trkpt>
      <trkpt lat="42.532383" lon="0.352346">
        <ele>2103.0</ele>
        <time>2009-05-23T14:59:42Z</time>
      </trkpt>
      <trkpt lat="42.532290" lon="0.352292">
        <ele>2103.0</ele>
        <time>2009-05-23T14:59:49Z</time>
      </trkpt>
      <trkpt lat="42.532190" lon="0.352256">
        <ele>2097.0</ele>
        <time>2009-05-23T14:59:57Z</time>
      </trkpt>
      <trkpt lat="42.532097" lon="0.352247">
        <ele>2097.0</ele>
        <time>2009-05-23T15:00:02Z</time>
      </trkpt>
      <trkpt lat="42.531997" lon="0.352202">
        <ele>2097.0</ele>
        <time>2009-05-23T15:00:10Z</time>
      </trkpt>
      <trkpt lat="42.531931" lon="0.352113">
        <ele>2088.0</ele>
        <time>2009-05-23T15:00:23Z</time>
      </trkpt>
      <trkpt lat="42.531831" lon="0.352086">
        <ele>2088.0</ele>
        <time>2009-05-23T15:00:29Z</time>
      </trkpt>
      <trkpt lat="42.531751" lon="0.352005">
        <ele>2081.0</ele>
        <time>2009-05-23T15:00:44Z</time>
      </trkpt>
      <trkpt lat="42.531658" lon="0.351978">
        <ele>2081.0</ele>
        <time>2009-05-23T15:00:49Z</time>
      </trkpt>
      <trkpt lat="42.531559" lon="0.351915">
        <ele>2081.0</ele>
        <time>2009-05-23T15:00:58Z</time>
      </trkpt>
      <trkpt lat="42.531479" lon="0.351825">
        <ele>2074.0</ele>
        <time>2009-05-23T15:01:07Z</time>
      </trkpt>
      <trkpt lat="42.531406" lon="0.351744">
        <ele>2074.0</ele>
        <time>2009-05-23T15:01:14Z</time>
      </trkpt>
      <trkpt lat="42.531346" lon="0.351637">
        <ele>2069.0</ele>
        <time>2009-05-23T15:01:22Z</time>
      </trkpt>
      <trkpt lat="42.531280" lon="0.351538">
        <ele>2069.0</ele>
        <time>2009-05-23T15:01:29Z</time>
      </trkpt>
      <trkpt lat="42.531187" lon="0.351493">
        <ele>2069.0</ele>
        <time>2009-05-23T15:01:35Z</time>
      </trkpt>
      <trkpt lat="42.531094" lon="0.351457">
        <ele>2069.0</ele>
        <time>2009-05-23T15:01:42Z</time>
      </trkpt>
      <trkpt lat="42.531007" lon="0.351403">
        <ele>2063.0</ele>
        <time>2009-05-23T15:01:49Z</time>
      </trkpt>
      <trkpt lat="42.530928" lon="0.351340">
        <ele>2063.0</ele>
        <time>2009-05-23T15:01:57Z</time>
      </trkpt>
      <trkpt lat="42.530848" lon="0.351268">
        <ele>2056.0</ele>
        <time>2009-05-23T15:02:04Z</time>
      </trkpt>
      <trkpt lat="42.530775" lon="0.351196">
        <ele>2056.0</ele>
        <time>2009-05-23T15:02:11Z</time>
      </trkpt>
      <trkpt lat="42.530702" lon="0.351098">
        <ele>2050.0</ele>
        <time>2009-05-23T15:02:23Z</time>
      </trkpt>
      <trkpt lat="42.530629" lon="0.351026">
        <ele>2050.0</ele>
        <time>2009-05-23T15:02:33Z</time>
      </trkpt>
      <trkpt lat="42.530549" lon="0.350954">
        <ele>2050.0</ele>
        <time>2009-05-23T15:02:42Z</time>
      </trkpt>
      <trkpt lat="42.530469" lon="0.350882">
        <ele>2044.0</ele>
        <time>2009-05-23T15:02:52Z</time>
      </trkpt>
      <trkpt lat="42.530389" lon="0.350810">
        <ele>2044.0</ele>
        <time>2009-05-23T15:03:02Z</time>
      </trkpt>
      <trkpt lat="42.530336" lon="0.350702">
        <ele>2034.0</ele>
        <time>2009-05-23T15:03:13Z</time>
      </trkpt>
      <trkpt lat="42.530256" lon="0.350639">
        <ele>2034.0</ele>
        <time>2009-05-23T15:03:19Z</time>
      </trkpt>
      <trkpt lat="42.530170" lon="0.350594">
        <ele>2029.0</ele>
        <time>2009-05-23T15:03:25Z</time>
      </trkpt>
      <trkpt lat="42.530077" lon="0.350541">
        <ele>2029.0</ele>
        <time>2009-05-23T15:03:32Z</time>
      </trkpt>
      <trkpt lat="42.529984" lon="0.350496">
        <ele>2029.0</ele>
        <time>2009-05-23T15:03:40Z</time>
      </trkpt>
      <trkpt lat="42.529891" lon="0.350514">
        <ele>2022.0</ele>
        <time>2009-05-23T15:04:13Z</time>
      </trkpt>
      <trkpt lat="42.529805" lon="0.350460">
        <ele>2022.0</ele>
        <time>2009-05-23T15:04:51Z</time>
      </trkpt>
      <trkpt lat="42.529785" lon="0.350334">
        <ele>2022.0</ele>
        <time>2009-05-23T15:06:49Z</time>
      </trkpt>
      <trkpt lat="42.529771" lon="0.350208">
        <ele>2022.0</ele>
        <time>2009-05-23T15:06:57Z</time>
      </trkpt>
      <trkpt lat="42.529718" lon="0.350091">
        <ele>2022.0</ele>
        <time>2009-05-23T15:07:05Z</time>
      </trkpt>
      <trkpt lat="42.529665" lon="0.349993">
        <ele>2016.0</ele>
        <time>2009-05-23T15:07:13Z</time>
      </trkpt>
      <trkpt lat="42.529612" lon="0.349894">
        <ele>2016.0</ele>
        <time>2009-05-23T15:07:23Z</time>
      </trkpt>
      <trkpt lat="42.529599" lon="0.349768">
        <ele>2016.0</ele>
        <time>2009-05-23T15:07:34Z</time>
      </trkpt>
      <trkpt lat="42.529612" lon="0.349642">
        <ele>2010.0</ele>
        <time>2009-05-23T15:07:45Z</time>
      </trkpt>
      <trkpt lat="42.529599" lon="0.349508">
        <ele>2010.0</ele>
        <time>2009-05-23T15:07:56Z</time>
      </trkpt>
      <trkpt lat="42.529599" lon="0.349373">
        <ele>2004.0</ele>
        <time>2009-05-23T15:08:05Z</time>
      </trkpt>
      <trkpt lat="42.529599" lon="0.349247">
        <ele>1997.0</ele>
        <time>2009-05-23T15:08:19Z</time>
      </trkpt>
      <trkpt lat="42.529532" lon="0.349157">
        <ele>1997.0</ele>
        <time>2009-05-23T15:08:33Z</time>
      </trkpt>
      <trkpt lat="42.529459" lon="0.349076">
        <ele>1991.0</ele>
        <time>2009-05-23T15:08:46Z</time>
      </trkpt>
      <trkpt lat="42.529439" lon="0.348951">
        <ele>1991.0</ele>
        <time>2009-05-23T15:08:57Z</time>
      </trkpt>
      <trkpt lat="42.529406" lon="0.348834">
        <ele>1991.0</ele>
        <time>2009-05-23T15:09:07Z</time>
      </trkpt>
      <trkpt lat="42.529399" lon="0.348708">
        <ele>1986.0</ele>
        <time>2009-05-23T15:09:20Z</time>
      </trkpt>
      <trkpt lat="42.529346" lon="0.348609">
        <ele>1986.0</ele>
        <time>2009-05-23T15:09:31Z</time>
      </trkpt>
      <trkpt lat="42.529286" lon="0.348501">
        <ele>1981.0</ele>
        <time>2009-05-23T15:09:42Z</time>
      </trkpt>
      <trkpt lat="42.529267" lon="0.348376">
        <ele>1981.0</ele>
        <time>2009-05-23T15:09:53Z</time>
      </trkpt>
      <trkpt lat="42.529213" lon="0.348268">
        <ele>1971.0</ele>
        <time>2009-05-23T15:10:04Z</time>
      </trkpt>
      <trkpt lat="42.529180" lon="0.348151">
        <ele>1971.0</ele>
        <time>2009-05-23T15:10:16Z</time>
      </trkpt>
      <trkpt lat="42.529154" lon="0.348034">
        <ele>1965.0</ele>
        <time>2009-05-23T15:10:29Z</time>
      </trkpt>
      <trkpt lat="42.529087" lon="0.347935">
        <ele>1965.0</ele>
        <time>2009-05-23T15:10:41Z</time>
      </trkpt>
      <trkpt lat="42.529021" lon="0.347846">
        <ele>1958.0</ele>
        <time>2009-05-23T15:10:55Z</time>
      </trkpt>
      <trkpt lat="42.528954" lon="0.347756">
        <ele>1958.0</ele>
        <time>2009-05-23T15:11:08Z</time>
      </trkpt>
      <trkpt lat="42.528861" lon="0.347747">
        <ele>1958.0</ele>
        <time>2009-05-23T15:11:16Z</time>
      </trkpt>
      <trkpt lat="42.528775" lon="0.347711">
        <ele>1958.0</ele>
        <time>2009-05-23T15:11:28Z</time>
      </trkpt>
      <trkpt lat="42.528682" lon="0.347720">
        <ele>1951.0</ele>
        <time>2009-05-23T15:11:45Z</time>
      </trkpt>
      <trkpt lat="42.528589" lon="0.347738">
        <ele>1945.0</ele>
        <time>2009-05-23T15:12:27Z</time>
      </trkpt>
      <trkpt lat="42.528502" lon="0.347702">
        <ele>1945.0</ele>
        <time>2009-05-23T15:13:19Z</time>
      </trkpt>
      <trkpt lat="42.528423" lon="0.347639">
        <ele>1938.0</ele>
        <time>2009-05-23T15:13:36Z</time>
      </trkpt>
      <trkpt lat="42.528330" lon="0.347666">
        <ele>1938.0</ele>
        <time>2009-05-23T15:13:47Z</time>
      </trkpt>
      <trkpt lat="42.528237" lon="0.347648">
        <ele>1928.0</ele>
        <time>2009-05-23T15:14:02Z</time>
      </trkpt>
      <trkpt lat="42.528150" lon="0.347684">
        <ele>1928.0</ele>
        <time>2009-05-23T15:14:13Z</time>
      </trkpt>
      <trkpt lat="42.528071" lon="0.347747">
        <ele>1928.0</ele>
        <time>2009-05-23T15:14:24Z</time>
      </trkpt>
      <trkpt lat="42.527978" lon="0.347720">
        <ele>1922.0</ele>
        <time>2009-05-23T15:14:36Z</time>
      </trkpt>
      <trkpt lat="42.527878" lon="0.347720">
        <ele>1922.0</ele>
        <time>2009-05-23T15:14:46Z</time>
      </trkpt>
      <trkpt lat="42.527785" lon="0.347720">
        <ele>1922.0</ele>
        <time>2009-05-23T15:15:00Z</time>
      </trkpt>
      <trkpt lat="42.527692" lon="0.347693">
        <ele>1922.0</ele>
        <time>2009-05-23T15:15:12Z</time>
      </trkpt>
      <trkpt lat="42.527605" lon="0.347657">
        <ele>1922.0</ele>
        <time>2009-05-23T15:15:21Z</time>
      </trkpt>
      <trkpt lat="42.527512" lon="0.347612">
        <ele>1917.0</ele>
        <time>2009-05-23T15:15:31Z</time>
      </trkpt>
      <trkpt lat="42.527419" lon="0.347621">
        <ele>1917.0</ele>
        <time>2009-05-23T15:15:43Z</time>
      </trkpt>
      <trkpt lat="42.527333" lon="0.347666">
        <ele>1917.0</ele>
        <time>2009-05-23T15:15:54Z</time>
      </trkpt>
      <trkpt lat="42.527260" lon="0.347738">
        <ele>1917.0</ele>
        <time>2009-05-23T15:16:01Z</time>
      </trkpt>
      <trkpt lat="42.527174" lon="0.347783">
        <ele>1917.0</ele>
        <time>2009-05-23T15:16:07Z</time>
      </trkpt>
      <trkpt lat="42.527081" lon="0.347783">
        <ele>1911.0</ele>
        <time>2009-05-23T15:16:16Z</time>
      </trkpt>
      <trkpt lat="42.526988" lon="0.347774">
        <ele>1911.0</ele>
        <time>2009-05-23T15:16:23Z</time>
      </trkpt>
      <trkpt lat="42.526888" lon="0.347792">
        <ele>1911.0</ele>
        <time>2009-05-23T15:16:31Z</time>
      </trkpt>
      <trkpt lat="42.526795" lon="0.347765">
        <ele>1904.0</ele>
        <time>2009-05-23T15:16:39Z</time>
      </trkpt>
      <trkpt lat="42.526708" lon="0.347693">
        <ele>1904.0</ele>
        <time>2009-05-23T15:16:48Z</time>
      </trkpt>
      <trkpt lat="42.526642" lon="0.347594">
        <ele>1899.0</ele>
        <time>2009-05-23T15:16:57Z</time>
      </trkpt>
      <trkpt lat="42.526562" lon="0.347522">
        <ele>1899.0</ele>
        <time>2009-05-23T15:17:06Z</time>
      </trkpt>
      <trkpt lat="42.526469" lon="0.347477">
        <ele>1899.0</ele>
        <time>2009-05-23T15:17:14Z</time>
      </trkpt>
      <trkpt lat="42.526389" lon="0.347414">
        <ele>1899.0</ele>
        <time>2009-05-23T15:17:31Z</time>
      </trkpt>
      <trkpt lat="42.526296" lon="0.347379">
        <ele>1899.0</ele>
        <time>2009-05-23T15:17:42Z</time>
      </trkpt>
      <trkpt lat="42.526203" lon="0.347361">
        <ele>1899.0</ele>
        <time>2009-05-23T15:17:55Z</time>
      </trkpt>
      <trkpt lat="42.526117" lon="0.347316">
        <ele>1899.0</ele>
        <time>2009-05-23T15:18:04Z</time>
      </trkpt>
      <trkpt lat="42.526031" lon="0.347271">
        <ele>1891.0</ele>
        <time>2009-05-23T15:18:17Z</time>
      </trkpt>
      <trkpt lat="42.525944" lon="0.347217">
        <ele>1891.0</ele>
        <time>2009-05-23T15:18:27Z</time>
      </trkpt>
      <trkpt lat="42.525851" lon="0.347181">
        <ele>1885.0</ele>
        <time>2009-05-23T15:18:41Z</time>
      </trkpt>
      <trkpt lat="42.525758" lon="0.347181">
        <ele>1885.0</ele>
        <time>2009-05-23T15:18:50Z</time>
      </trkpt>
      <trkpt lat="42.525665" lon="0.347181">
        <ele>1885.0</ele>
        <time>2009-05-23T15:18:59Z</time>
      </trkpt>
      <trkpt lat="42.525572" lon="0.347190">
        <ele>1885.0</ele>
        <time>2009-05-23T15:19:09Z</time>
      </trkpt>
      <trkpt lat="42.525479" lon="0.347172">
        <ele>1878.0</ele>
        <time>2009-05-23T15:19:22Z</time>
      </trkpt>
      <trkpt lat="42.525386" lon="0.347154">
        <ele>1878.0</ele>
        <time>2009-05-23T15:19:33Z</time>
      </trkpt>
      <trkpt lat="42.525293" lon="0.347136">
        <ele>1872.0</ele>
        <time>2009-05-23T15:19:43Z</time>
      </trkpt>
      <trkpt lat="42.525253" lon="0.347019">
        <ele>1872.0</ele>
        <time>2009-05-23T15:19:56Z</time>
      </trkpt>
      <trkpt lat="42.525260" lon="0.346893">
        <ele>1872.0</ele>
        <time>2009-05-23T15:20:19Z</time>
      </trkpt>
      <trkpt lat="42.525207" lon="0.346795">
        <ele>1872.0</ele>
        <time>2009-05-23T15:20:32Z</time>
      </trkpt>
      <trkpt lat="42.525134" lon="0.346714">
        <ele>1872.0</ele>
        <time>2009-05-23T15:20:45Z</time>
      </trkpt>
      <trkpt lat="42.525034" lon="0.346741">
        <ele>1872.0</ele>
        <time>2009-05-23T15:20:56Z</time>
      </trkpt>
      <trkpt lat="42.524941" lon="0.346741">
        <ele>1872.0</ele>
        <time>2009-05-23T15:21:06Z</time>
      </trkpt>
      <trkpt lat="42.524848" lon="0.346750">
        <ele>1872.0</ele>
        <time>2009-05-23T15:21:15Z</time>
      </trkpt>
      <trkpt lat="42.524755" lon="0.346768">
        <ele>1872.0</ele>
        <time>2009-05-23T15:21:23Z</time>
      </trkpt>
      <trkpt lat="42.524669" lon="0.346822">
        <ele>1872.0</ele>
        <time>2009-05-23T15:21:31Z</time>
      </trkpt>
      <trkpt lat="42.524582" lon="0.346875">
        <ele>1872.0</ele>
        <time>2009-05-23T15:21:42Z</time>
      </trkpt>
      <trkpt lat="42.524489" lon="0.346884">
        <ele>1872.0</ele>
        <time>2009-05-23T15:21:51Z</time>
      </trkpt>
      <trkpt lat="42.524389" lon="0.346893">
        <ele>1872.0</ele>
        <time>2009-05-23T15:22:01Z</time>
      </trkpt>
      <trkpt lat="42.524296" lon="0.346929">
        <ele>1872.0</ele>
        <time>2009-05-23T15:22:19Z</time>
      </trkpt>
      <trkpt lat="42.524237" lon="0.346911">
        <ele>1855.0</ele>
        <time>2009-05-24T02:54:57Z</time>
      </trkpt>
      <trkpt lat="42.524257" lon="0.346786">
        <ele>1855.0</ele>
        <time>2009-05-24T02:55:06Z</time>
      </trkpt>
      <trkpt lat="42.524296" lon="0.346669">
        <ele>1855.0</ele>
        <time>2009-05-24T02:55:17Z</time>
      </trkpt>
      <trkpt lat="42.524350" lon="0.346570">
        <ele>1855.0</ele>
        <time>2009-05-24T02:55:27Z</time>
      </trkpt>
      <trkpt lat="42.524343" lon="0.346444">
        <ele>1866.0</ele>
        <time>2009-05-24T02:56:14Z</time>
      </trkpt>
      <trkpt lat="42.524316" lon="0.346327">
        <ele>1866.0</ele>
        <time>2009-05-24T02:56:26Z</time>
      </trkpt>
      <trkpt lat="42.524310" lon="0.346202">
        <ele>1866.0</ele>
        <time>2009-05-24T02:56:42Z</time>
      </trkpt>
      <trkpt lat="42.524303" lon="0.346076">
        <ele>1871.0</ele>
        <time>2009-05-24T02:56:56Z</time>
      </trkpt>
      <trkpt lat="42.524217" lon="0.346013">
        <ele>1871.0</ele>
        <time>2009-05-24T02:57:04Z</time>
      </trkpt>
      <trkpt lat="42.524144" lon="0.345941">
        <ele>1871.0</ele>
        <time>2009-05-24T02:57:16Z</time>
      </trkpt>
      <trkpt lat="42.524137" lon="0.345815">
        <ele>1865.0</ele>
        <time>2009-05-24T02:58:02Z</time>
      </trkpt>
      <trkpt lat="42.524223" lon="0.345780">
        <ele>1871.0</ele>
        <time>2009-05-24T02:58:20Z</time>
      </trkpt>
      <trkpt lat="42.524310" lon="0.345726">
        <ele>1877.0</ele>
        <time>2009-05-24T02:58:38Z</time>
      </trkpt>
      <trkpt lat="42.524343" lon="0.345609">
        <ele>1883.0</ele>
        <time>2009-05-24T02:58:59Z</time>
      </trkpt>
      <trkpt lat="42.524403" lon="0.345510">
        <ele>1883.0</ele>
        <time>2009-05-24T02:59:22Z</time>
      </trkpt>
      <trkpt lat="42.524449" lon="0.345402">
        <ele>1889.0</ele>
        <time>2009-05-24T02:59:43Z</time>
      </trkpt>
      <trkpt lat="42.524469" lon="0.345276">
        <ele>1889.0</ele>
        <time>2009-05-24T03:00:11Z</time>
      </trkpt>
      <trkpt lat="42.524536" lon="0.345187">
        <ele>1898.0</ele>
        <time>2009-05-24T03:00:41Z</time>
      </trkpt>
      <trkpt lat="42.524609" lon="0.345106">
        <ele>1898.0</ele>
        <time>2009-05-24T03:01:06Z</time>
      </trkpt>
      <trkpt lat="42.524602" lon="0.344980">
        <ele>1905.0</ele>
        <time>2009-05-24T03:01:27Z</time>
      </trkpt>
      <trkpt lat="42.524615" lon="0.344854">
        <ele>1905.0</ele>
        <time>2009-05-24T03:01:51Z</time>
      </trkpt>
      <trkpt lat="42.524642" lon="0.344737">
        <ele>1911.0</ele>
        <time>2009-05-24T03:02:12Z</time>
      </trkpt>
      <trkpt lat="42.524615" lon="0.344621">
        <ele>1911.0</ele>
        <time>2009-05-24T03:02:38Z</time>
      </trkpt>
      <trkpt lat="42.524569" lon="0.344513">
        <ele>1918.0</ele>
        <time>2009-05-24T03:03:00Z</time>
      </trkpt>
      <trkpt lat="42.524489" lon="0.344585">
        <ele>1932.0</ele>
        <time>2009-05-24T03:03:24Z</time>
      </trkpt>
      <trkpt lat="42.524396" lon="0.344612">
        <ele>1932.0</ele>
        <time>2009-05-24T03:03:40Z</time>
      </trkpt>
      <trkpt lat="42.524303" lon="0.344621">
        <ele>1944.0</ele>
        <time>2009-05-24T03:03:56Z</time>
      </trkpt>
      <trkpt lat="42.524250" lon="0.344522">
        <ele>1937.0</ele>
        <time>2009-05-24T03:04:57Z</time>
      </trkpt>
      <trkpt lat="42.524203" lon="0.344405">
        <ele>1937.0</ele>
        <time>2009-05-24T03:05:16Z</time>
      </trkpt>
      <trkpt lat="42.524223" lon="0.344279">
        <ele>1943.0</ele>
        <time>2009-05-24T03:05:37Z</time>
      </trkpt>
      <trkpt lat="42.524164" lon="0.344181">
        <ele>1943.0</ele>
        <time>2009-05-24T03:06:04Z</time>
      </trkpt>
      <trkpt lat="42.524090" lon="0.344100">
        <ele>1943.0</ele>
        <time>2009-05-24T03:06:19Z</time>
      </trkpt>
      <trkpt lat="42.524024" lon="0.344010">
        <ele>1943.0</ele>
        <time>2009-05-24T03:06:49Z</time>
      </trkpt>
      <trkpt lat="42.523944" lon="0.343938">
        <ele>1943.0</ele>
        <time>2009-05-24T03:06:59Z</time>
      </trkpt>
      <trkpt lat="42.523891" lon="0.343830">
        <ele>1943.0</ele>
        <time>2009-05-24T03:07:10Z</time>
      </trkpt>
      <trkpt lat="42.523798" lon="0.343812">
        <ele>1954.0</ele>
        <time>2009-05-24T03:07:31Z</time>
      </trkpt>
      <trkpt lat="42.523705" lon="0.343794">
        <ele>1954.0</ele>
        <time>2009-05-24T03:07:41Z</time>
      </trkpt>
      <trkpt lat="42.523619" lon="0.343686">
        <ele>1954.0</ele>
        <time>2009-05-24T03:07:48Z</time>
      </trkpt>
      <trkpt lat="42.523526" lon="0.343704">
        <ele>1965.0</ele>
        <time>2009-05-24T03:08:24Z</time>
      </trkpt>
      <trkpt lat="42.523453" lon="0.343615">
        <ele>1965.0</ele>
        <time>2009-05-24T03:08:46Z</time>
      </trkpt>
      <trkpt lat="42.523379" lon="0.343543">
        <ele>1971.0</ele>
        <time>2009-05-24T03:09:06Z</time>
      </trkpt>
      <trkpt lat="42.523326" lon="0.343444">
        <ele>1971.0</ele>
        <time>2009-05-24T03:09:24Z</time>
      </trkpt>
      <trkpt lat="42.523253" lon="0.343372">
        <ele>1971.0</ele>
        <time>2009-05-24T03:09:38Z</time>
      </trkpt>
      <trkpt lat="42.523173" lon="0.343282">
        <ele>1976.0</ele>
        <time>2009-05-24T03:09:52Z</time>
      </trkpt>
      <trkpt lat="42.523100" lon="0.343201">
        <ele>1976.0</ele>
        <time>2009-05-24T03:10:03Z</time>
      </trkpt>
      <trkpt lat="42.523027" lon="0.343112">
        <ele>1976.0</ele>
        <time>2009-05-24T03:10:21Z</time>
      </trkpt>
      <trkpt lat="42.522981" lon="0.343004">
        <ele>1976.0</ele>
        <time>2009-05-24T03:10:38Z</time>
      </trkpt>
      <trkpt lat="42.522888" lon="0.343013">
        <ele>1976.0</ele>
        <time>2009-05-24T03:10:50Z</time>
      </trkpt>
      <trkpt lat="42.522815" lon="0.343103">
        <ele>1976.0</ele>
        <time>2009-05-24T03:11:04Z</time>
      </trkpt>
      <trkpt lat="42.522715" lon="0.343076">
        <ele>1976.0</ele>
        <time>2009-05-24T03:11:15Z</time>
      </trkpt>
      <trkpt lat="42.522635" lon="0.343004">
        <ele>1976.0</ele>
        <time>2009-05-24T03:11:25Z</time>
      </trkpt>
      <trkpt lat="42.522582" lon="0.342896">
        <ele>1982.0</ele>
        <time>2009-05-24T03:11:37Z</time>
      </trkpt>
      <trkpt lat="42.522536" lon="0.342788">
        <ele>1982.0</ele>
        <time>2009-05-24T03:11:49Z</time>
      </trkpt>
      <trkpt lat="42.522469" lon="0.342689">
        <ele>1982.0</ele>
        <time>2009-05-24T03:11:59Z</time>
      </trkpt>
      <trkpt lat="42.522409" lon="0.342590">
        <ele>1982.0</ele>
        <time>2009-05-24T03:12:23Z</time>
      </trkpt>
      <trkpt lat="42.522330" lon="0.342528">
        <ele>1982.0</ele>
        <time>2009-05-24T03:12:35Z</time>
      </trkpt>
      <trkpt lat="42.522283" lon="0.342420">
        <ele>1982.0</ele>
        <time>2009-05-24T03:13:00Z</time>
      </trkpt>
      <trkpt lat="42.522283" lon="0.342294">
        <ele>1996.0</ele>
        <time>2009-05-24T03:13:35Z</time>
      </trkpt>
      <trkpt lat="42.522276" lon="0.342159">
        <ele>1996.0</ele>
        <time>2009-05-24T03:13:54Z</time>
      </trkpt>
      <trkpt lat="42.522243" lon="0.342043">
        <ele>1996.0</ele>
        <time>2009-05-24T03:14:06Z</time>
      </trkpt>
      <trkpt lat="42.522217" lon="0.341917">
        <ele>2002.0</ele>
        <time>2009-05-24T03:14:24Z</time>
      </trkpt>
      <trkpt lat="42.522170" lon="0.341809">
        <ele>2002.0</ele>
        <time>2009-05-24T03:14:34Z</time>
      </trkpt>
      <trkpt lat="42.522090" lon="0.341746">
        <ele>2002.0</ele>
        <time>2009-05-24T03:14:44Z</time>
      </trkpt>
      <trkpt lat="42.521997" lon="0.341719">
        <ele>2002.0</ele>
        <time>2009-05-24T03:14:55Z</time>
      </trkpt>
      <trkpt lat="42.521911" lon="0.341683">
        <ele>2002.0</ele>
        <time>2009-05-24T03:15:06Z</time>
      </trkpt>
      <trkpt lat="42.521825" lon="0.341638">
        <ele>2002.0</ele>
        <time>2009-05-24T03:15:17Z</time>
      </trkpt>
      <trkpt lat="42.521732" lon="0.341620">
        <ele>2002.0</ele>
        <time>2009-05-24T03:15:27Z</time>
      </trkpt>
      <trkpt lat="42.521652" lon="0.341557">
        <ele>2002.0</ele>
        <time>2009-05-24T03:15:36Z</time>
      </trkpt>
      <trkpt lat="42.521572" lon="0.341486">
        <ele>2002.0</ele>
        <time>2009-05-24T03:15:45Z</time>
      </trkpt>
      <trkpt lat="42.521479" lon="0.341432">
        <ele>2002.0</ele>
        <time>2009-05-24T03:15:55Z</time>
      </trkpt>
      <trkpt lat="42.521393" lon="0.341378">
        <ele>2002.0</ele>
        <time>2009-05-24T03:16:07Z</time>
      </trkpt>
      <trkpt lat="42.521300" lon="0.341360">
        <ele>2002.0</ele>
        <time>2009-05-24T03:16:17Z</time>
      </trkpt>
      <trkpt lat="42.521220" lon="0.341297">
        <ele>2002.0</ele>
        <time>2009-05-24T03:16:32Z</time>
      </trkpt>
      <trkpt lat="42.521127" lon="0.341306">
        <ele>2009.0</ele>
        <time>2009-05-24T03:16:52Z</time>
      </trkpt>
      <trkpt lat="42.521067" lon="0.341207">
        <ele>2009.0</ele>
        <time>2009-05-24T03:17:16Z</time>
      </trkpt>
      <trkpt lat="42.520994" lon="0.341135">
        <ele>2009.0</ele>
        <time>2009-05-24T03:17:28Z</time>
      </trkpt>
      <trkpt lat="42.520908" lon="0.341090">
        <ele>2009.0</ele>
        <time>2009-05-24T03:17:37Z</time>
      </trkpt>
      <trkpt lat="42.520828" lon="0.341009">
        <ele>2009.0</ele>
        <time>2009-05-24T03:17:48Z</time>
      </trkpt>
      <trkpt lat="42.520775" lon="0.340902">
        <ele>2009.0</ele>
        <time>2009-05-24T03:18:02Z</time>
      </trkpt>
      <trkpt lat="42.520695" lon="0.340839">
        <ele>2009.0</ele>
        <time>2009-05-24T03:18:16Z</time>
      </trkpt>
      <trkpt lat="42.520628" lon="0.340749">
        <ele>2009.0</ele>
        <time>2009-05-24T03:18:29Z</time>
      </trkpt>
      <trkpt lat="42.520589" lon="0.340632">
        <ele>2009.0</ele>
        <time>2009-05-24T03:18:44Z</time>
      </trkpt>
      <trkpt lat="42.520595" lon="0.340506">
        <ele>2017.0</ele>
        <time>2009-05-24T03:19:03Z</time>
      </trkpt>
      <trkpt lat="42.520615" lon="0.340381">
        <ele>2017.0</ele>
        <time>2009-05-24T03:19:27Z</time>
      </trkpt>
      <trkpt lat="42.520648" lon="0.340264">
        <ele>2022.0</ele>
        <time>2009-05-24T03:19:47Z</time>
      </trkpt>
      <trkpt lat="42.520662" lon="0.340138">
        <ele>2022.0</ele>
        <time>2009-05-24T03:20:08Z</time>
      </trkpt>
      <trkpt lat="42.520668" lon="0.340012">
        <ele>2028.0</ele>
        <time>2009-05-24T03:20:26Z</time>
      </trkpt>
      <trkpt lat="42.520595" lon="0.339940">
        <ele>2028.0</ele>
        <time>2009-05-24T03:20:46Z</time>
      </trkpt>
      <trkpt lat="42.520562" lon="0.339824">
        <ele>2037.0</ele>
        <time>2009-05-24T03:21:07Z</time>
      </trkpt>
      <trkpt lat="42.520549" lon="0.339698">
        <ele>2037.0</ele>
        <time>2009-05-24T03:21:28Z</time>
      </trkpt>
      <trkpt lat="42.520542" lon="0.339572">
        <ele>2043.0</ele>
        <time>2009-05-24T03:21:49Z</time>
      </trkpt>
      <trkpt lat="42.520522" lon="0.339446">
        <ele>2043.0</ele>
        <time>2009-05-24T03:22:10Z</time>
      </trkpt>
      <trkpt lat="42.520456" lon="0.339348">
        <ele>2043.0</ele>
        <time>2009-05-24T03:22:30Z</time>
      </trkpt>
      <trkpt lat="42.520416" lon="0.339231">
        <ele>2049.0</ele>
        <time>2009-05-24T03:22:50Z</time>
      </trkpt>
      <trkpt lat="42.520343" lon="0.339150">
        <ele>2049.0</ele>
        <time>2009-05-24T03:23:10Z</time>
      </trkpt>
      <trkpt lat="42.520343" lon="0.339024">
        <ele>2049.0</ele>
        <time>2009-05-24T03:23:30Z</time>
      </trkpt>
      <trkpt lat="42.520290" lon="0.338925">
        <ele>2049.0</ele>
        <time>2009-05-24T03:23:45Z</time>
      </trkpt>
      <trkpt lat="42.520276" lon="0.338800">
        <ele>2055.0</ele>
        <time>2009-05-24T03:23:59Z</time>
      </trkpt>
      <trkpt lat="42.520290" lon="0.338674">
        <ele>2055.0</ele>
        <time>2009-05-24T03:24:17Z</time>
      </trkpt>
      <trkpt lat="42.520356" lon="0.338575">
        <ele>2055.0</ele>
        <time>2009-05-24T03:24:39Z</time>
      </trkpt>
      <trkpt lat="42.520396" lon="0.338458">
        <ele>2062.0</ele>
        <time>2009-05-24T03:25:00Z</time>
      </trkpt>
      <trkpt lat="42.520422" lon="0.338341">
        <ele>2062.0</ele>
        <time>2009-05-24T03:25:18Z</time>
      </trkpt>
      <trkpt lat="42.520436" lon="0.338216">
        <ele>2062.0</ele>
        <time>2009-05-24T03:25:35Z</time>
      </trkpt>
      <trkpt lat="42.520442" lon="0.338090">
        <ele>2067.0</ele>
        <time>2009-05-24T03:25:52Z</time>
      </trkpt>
      <trkpt lat="42.520456" lon="0.337964">
        <ele>2067.0</ele>
        <time>2009-05-24T03:26:10Z</time>
      </trkpt>
      <trkpt lat="42.520469" lon="0.337838">
        <ele>2067.0</ele>
        <time>2009-05-24T03:26:23Z</time>
      </trkpt>
      <trkpt lat="42.520469" lon="0.337713">
        <ele>2067.0</ele>
        <time>2009-05-24T03:26:34Z</time>
      </trkpt>
      <trkpt lat="42.520422" lon="0.337596">
        <ele>2067.0</ele>
        <time>2009-05-24T03:26:49Z</time>
      </trkpt>
      <trkpt lat="42.520389" lon="0.337479">
        <ele>2073.0</ele>
        <time>2009-05-24T03:27:04Z</time>
      </trkpt>
      <trkpt lat="42.520376" lon="0.337353">
        <ele>2073.0</ele>
        <time>2009-05-24T03:27:20Z</time>
      </trkpt>
      <trkpt lat="42.520383" lon="0.337228">
        <ele>2073.0</ele>
        <time>2009-05-24T03:27:37Z</time>
      </trkpt>
      <trkpt lat="42.520376" lon="0.337102">
        <ele>2079.0</ele>
        <time>2009-05-24T03:27:54Z</time>
      </trkpt>
      <trkpt lat="42.520363" lon="0.336976">
        <ele>2079.0</ele>
        <time>2009-05-24T03:28:14Z</time>
      </trkpt>
      <trkpt lat="42.520356" lon="0.336850">
        <ele>2086.0</ele>
        <time>2009-05-24T03:28:35Z</time>
      </trkpt>
      <trkpt lat="42.520343" lon="0.336725">
        <ele>2093.0</ele>
        <time>2009-05-24T03:29:02Z</time>
      </trkpt>
      <trkpt lat="42.520323" lon="0.336599">
        <ele>2101.0</ele>
        <time>2009-05-24T03:29:31Z</time>
      </trkpt>
      <trkpt lat="42.520243" lon="0.336536">
        <ele>2101.0</ele>
        <time>2009-05-24T03:29:49Z</time>
      </trkpt>
      <trkpt lat="42.520203" lon="0.336419">
        <ele>2106.0</ele>
        <time>2009-05-24T03:30:11Z</time>
      </trkpt>
      <trkpt lat="42.520123" lon="0.336356">
        <ele>2106.0</ele>
        <time>2009-05-24T03:30:27Z</time>
      </trkpt>
      <trkpt lat="42.520143" lon="0.336230">
        <ele>2106.0</ele>
        <time>2009-05-24T03:30:43Z</time>
      </trkpt>
      <trkpt lat="42.520117" lon="0.336114">
        <ele>2114.0</ele>
        <time>2009-05-24T03:31:07Z</time>
      </trkpt>
      <trkpt lat="42.520117" lon="0.335988">
        <ele>2114.0</ele>
        <time>2009-05-24T03:31:30Z</time>
      </trkpt>
      <trkpt lat="42.520143" lon="0.335871">
        <ele>2121.0</ele>
        <time>2009-05-24T03:31:48Z</time>
      </trkpt>
      <trkpt lat="42.520150" lon="0.335745">
        <ele>2121.0</ele>
        <time>2009-05-24T03:32:06Z</time>
      </trkpt>
      <trkpt lat="42.520103" lon="0.335638">
        <ele>2129.0</ele>
        <time>2009-05-24T03:32:27Z</time>
      </trkpt>
      <trkpt lat="42.520103" lon="0.335512">
        <ele>2129.0</ele>
        <time>2009-05-24T03:32:46Z</time>
      </trkpt>
      <trkpt lat="42.520110" lon="0.335386">
        <ele>2137.0</ele>
        <time>2009-05-24T03:33:09Z</time>
      </trkpt>
      <trkpt lat="42.520117" lon="0.335260">
        <ele>2137.0</ele>
        <time>2009-05-24T03:33:28Z</time>
      </trkpt>
      <trkpt lat="42.520024" lon="0.335242">
        <ele>2137.0</ele>
        <time>2009-05-24T03:33:55Z</time>
      </trkpt>
      <trkpt lat="42.519937" lon="0.335287">
        <ele>2137.0</ele>
        <time>2009-05-24T03:34:11Z</time>
      </trkpt>
      <trkpt lat="42.519851" lon="0.335323">
        <ele>2137.0</ele>
        <time>2009-05-24T03:34:30Z</time>
      </trkpt>
      <trkpt lat="42.519771" lon="0.335395">
        <ele>2144.0</ele>
        <time>2009-05-24T03:34:47Z</time>
      </trkpt>
      <trkpt lat="42.519678" lon="0.335422">
        <ele>2144.0</ele>
        <time>2009-05-24T03:35:07Z</time>
      </trkpt>
      <trkpt lat="42.519598" lon="0.335359">
        <ele>2144.0</ele>
        <time>2009-05-24T03:35:56Z</time>
      </trkpt>
      <trkpt lat="42.519605" lon="0.335233">
        <ele>2144.0</ele>
        <time>2009-05-24T03:36:16Z</time>
      </trkpt>
      <trkpt lat="42.519532" lon="0.335161">
        <ele>2153.0</ele>
        <time>2009-05-24T03:36:33Z</time>
      </trkpt>
      <trkpt lat="42.519505" lon="0.335045">
        <ele>2153.0</ele>
        <time>2009-05-24T03:37:05Z</time>
      </trkpt>
      <trkpt lat="42.519439" lon="0.334946">
        <ele>2160.0</ele>
        <time>2009-05-24T03:37:28Z</time>
      </trkpt>
      <trkpt lat="42.519406" lon="0.334829">
        <ele>2160.0</ele>
        <time>2009-05-24T03:37:51Z</time>
      </trkpt>
      <trkpt lat="42.519339" lon="0.334730">
        <ele>2165.0</ele>
        <time>2009-05-24T03:38:11Z</time>
      </trkpt>
      <trkpt lat="42.519306" lon="0.334613">
        <ele>2165.0</ele>
        <time>2009-05-24T03:38:32Z</time>
      </trkpt>
      <trkpt lat="42.519260" lon="0.334506">
        <ele>2165.0</ele>
        <time>2009-05-24T03:38:52Z</time>
      </trkpt>
      <trkpt lat="42.519240" lon="0.334380">
        <ele>2174.0</ele>
        <time>2009-05-24T03:39:20Z</time>
      </trkpt>
      <trkpt lat="42.519220" lon="0.334254">
        <ele>2180.0</ele>
        <time>2009-05-24T03:39:46Z</time>
      </trkpt>
      <trkpt lat="42.519166" lon="0.334155">
        <ele>2180.0</ele>
        <time>2009-05-24T03:40:12Z</time>
      </trkpt>
      <trkpt lat="42.519100" lon="0.334065">
        <ele>2186.0</ele>
        <time>2009-05-24T03:40:34Z</time>
      </trkpt>
      <trkpt lat="42.519087" lon="0.333940">
        <ele>2186.0</ele>
        <time>2009-05-24T03:40:50Z</time>
      </trkpt>
      <trkpt lat="42.519073" lon="0.333814">
        <ele>2191.0</ele>
        <time>2009-05-24T03:42:28Z</time>
      </trkpt>
      <trkpt lat="42.519027" lon="0.333697">
        <ele>2191.0</ele>
        <time>2009-05-24T03:42:37Z</time>
      </trkpt>
      <trkpt lat="42.518987" lon="0.333580">
        <ele>2191.0</ele>
        <time>2009-05-24T03:42:45Z</time>
      </trkpt>
      <trkpt lat="42.518934" lon="0.333482">
        <ele>2191.0</ele>
        <time>2009-05-24T03:42:55Z</time>
      </trkpt>
      <trkpt lat="42.518861" lon="0.333410">
        <ele>2191.0</ele>
        <time>2009-05-24T03:43:06Z</time>
      </trkpt>
      <trkpt lat="42.518788" lon="0.333329">
        <ele>2191.0</ele>
        <time>2009-05-24T03:43:20Z</time>
      </trkpt>
      <trkpt lat="42.518688" lon="0.333329">
        <ele>2191.0</ele>
        <time>2009-05-24T03:43:35Z</time>
      </trkpt>
      <trkpt lat="42.518588" lon="0.333302">
        <ele>2191.0</ele>
        <time>2009-05-24T03:43:46Z</time>
      </trkpt>
      <trkpt lat="42.518509" lon="0.333239">
        <ele>2191.0</ele>
        <time>2009-05-24T03:44:04Z</time>
      </trkpt>
      <trkpt lat="42.518482" lon="0.333122">
        <ele>2191.0</ele>
        <time>2009-05-24T03:44:15Z</time>
      </trkpt>
      <trkpt lat="42.518455" lon="0.332996">
        <ele>2191.0</ele>
        <time>2009-05-24T03:44:25Z</time>
      </trkpt>
      <trkpt lat="42.518389" lon="0.332898">
        <ele>2191.0</ele>
        <time>2009-05-24T03:44:35Z</time>
      </trkpt>
      <trkpt lat="42.518303" lon="0.332853">
        <ele>2191.0</ele>
        <time>2009-05-24T03:44:45Z</time>
      </trkpt>
      <trkpt lat="42.518216" lon="0.332799">
        <ele>2191.0</ele>
        <time>2009-05-24T03:45:00Z</time>
      </trkpt>
      <trkpt lat="42.518123" lon="0.332772">
        <ele>2191.0</ele>
        <time>2009-05-24T03:45:12Z</time>
      </trkpt>
      <trkpt lat="42.518043" lon="0.332709">
        <ele>2191.0</ele>
        <time>2009-05-24T03:45:25Z</time>
      </trkpt>
      <trkpt lat="42.517964" lon="0.332637">
        <ele>2198.0</ele>
        <time>2009-05-24T03:45:41Z</time>
      </trkpt>
      <trkpt lat="42.517897" lon="0.332547">
        <ele>2198.0</ele>
        <time>2009-05-24T03:45:53Z</time>
      </trkpt>
      <trkpt lat="42.517804" lon="0.332502">
        <ele>2198.0</ele>
        <time>2009-05-24T03:46:11Z</time>
      </trkpt>
      <trkpt lat="42.517718" lon="0.332458">
        <ele>2198.0</ele>
        <time>2009-05-24T03:46:23Z</time>
      </trkpt>
      <trkpt lat="42.517631" lon="0.332404">
        <ele>2198.0</ele>
        <time>2009-05-24T03:46:35Z</time>
      </trkpt>
      <trkpt lat="42.517545" lon="0.332359">
        <ele>2198.0</ele>
        <time>2009-05-24T03:46:50Z</time>
      </trkpt>
      <trkpt lat="42.517452" lon="0.332377">
        <ele>2198.0</ele>
        <time>2009-05-24T03:47:09Z</time>
      </trkpt>
      <trkpt lat="42.517372" lon="0.332449">
        <ele>2204.0</ele>
        <time>2009-05-24T03:47:28Z</time>
      </trkpt>
      <trkpt lat="42.517299" lon="0.332520">
        <ele>2204.0</ele>
        <time>2009-05-24T03:47:46Z</time>
      </trkpt>
      <trkpt lat="42.517246" lon="0.332619">
        <ele>2209.0</ele>
        <time>2009-05-24T03:48:07Z</time>
      </trkpt>
      <trkpt lat="42.517160" lon="0.332664">
        <ele>2209.0</ele>
        <time>2009-05-24T03:48:30Z</time>
      </trkpt>
      <trkpt lat="42.517067" lon="0.332655">
        <ele>2218.0</ele>
        <time>2009-05-24T03:48:51Z</time>
      </trkpt>
      <trkpt lat="42.516987" lon="0.332718">
        <ele>2218.0</ele>
        <time>2009-05-24T03:49:09Z</time>
      </trkpt>
      <trkpt lat="42.516914" lon="0.332790">
        <ele>2218.0</ele>
        <time>2009-05-24T03:49:30Z</time>
      </trkpt>
      <trkpt lat="42.516841" lon="0.332862">
        <ele>2218.0</ele>
        <time>2009-05-24T03:49:42Z</time>
      </trkpt>
      <trkpt lat="42.516741" lon="0.332871">
        <ele>2218.0</ele>
        <time>2009-05-24T03:49:54Z</time>
      </trkpt>
      <trkpt lat="42.516655" lon="0.332835">
        <ele>2218.0</ele>
        <time>2009-05-24T03:50:07Z</time>
      </trkpt>
      <trkpt lat="42.516561" lon="0.332826">
        <ele>2218.0</ele>
        <time>2009-05-24T03:50:18Z</time>
      </trkpt>
      <trkpt lat="42.516468" lon="0.332826">
        <ele>2218.0</ele>
        <time>2009-05-24T03:50:29Z</time>
      </trkpt>
      <trkpt lat="42.516369" lon="0.332799">
        <ele>2229.0</ele>
        <time>2009-05-24T03:50:50Z</time>
      </trkpt>
      <trkpt lat="42.516282" lon="0.332754">
        <ele>2229.0</ele>
        <time>2009-05-24T03:51:08Z</time>
      </trkpt>
      <trkpt lat="42.516209" lon="0.332826">
        <ele>2229.0</ele>
        <time>2009-05-24T03:51:40Z</time>
      </trkpt>
      <trkpt lat="42.516116" lon="0.332790">
        <ele>2229.0</ele>
        <time>2009-05-24T03:51:54Z</time>
      </trkpt>
      <trkpt lat="42.516030" lon="0.332736">
        <ele>2229.0</ele>
        <time>2009-05-24T03:52:10Z</time>
      </trkpt>
      <trkpt lat="42.515943" lon="0.332664">
        <ele>2236.0</ele>
        <time>2009-05-24T03:52:24Z</time>
      </trkpt>
      <trkpt lat="42.515857" lon="0.332619">
        <ele>2236.0</ele>
        <time>2009-05-24T03:52:39Z</time>
      </trkpt>
      <trkpt lat="42.515764" lon="0.332601">
        <ele>2236.0</ele>
        <time>2009-05-24T03:52:52Z</time>
      </trkpt>
      <trkpt lat="42.515664" lon="0.332637">
        <ele>2236.0</ele>
        <time>2009-05-24T03:53:04Z</time>
      </trkpt>
      <trkpt lat="42.515578" lon="0.332673">
        <ele>2236.0</ele>
        <time>2009-05-24T03:53:13Z</time>
      </trkpt>
      <trkpt lat="42.515478" lon="0.332700">
        <ele>2236.0</ele>
        <time>2009-05-24T03:53:21Z</time>
      </trkpt>
      <trkpt lat="42.515385" lon="0.332700">
        <ele>2236.0</ele>
        <time>2009-05-24T03:53:29Z</time>
      </trkpt>
      <trkpt lat="42.515292" lon="0.332691">
        <ele>2236.0</ele>
        <time>2009-05-24T03:53:40Z</time>
      </trkpt>
      <trkpt lat="42.515199" lon="0.332664">
        <ele>2236.0</ele>
        <time>2009-05-24T03:53:56Z</time>
      </trkpt>
      <trkpt lat="42.515106" lon="0.332664">
        <ele>2236.0</ele>
        <time>2009-05-24T03:54:09Z</time>
      </trkpt>
      <trkpt lat="42.515013" lon="0.332664">
        <ele>2236.0</ele>
        <time>2009-05-24T03:54:20Z</time>
      </trkpt>
      <trkpt lat="42.514920" lon="0.332709">
        <ele>2236.0</ele>
        <time>2009-05-24T03:54:32Z</time>
      </trkpt>
      <trkpt lat="42.514834" lon="0.332745">
        <ele>2236.0</ele>
        <time>2009-05-24T03:54:41Z</time>
      </trkpt>
      <trkpt lat="42.514741" lon="0.332772">
        <ele>2236.0</ele>
        <time>2009-05-24T03:54:51Z</time>
      </trkpt>
      <trkpt lat="42.514654" lon="0.332817">
        <ele>2236.0</ele>
        <time>2009-05-24T03:55:04Z</time>
      </trkpt>
      <trkpt lat="42.514548" lon="0.332826">
        <ele>2214.0</ele>
        <time>2009-05-24T04:04:17Z</time>
      </trkpt>
      <trkpt lat="42.514461" lon="0.332781">
        <ele>2238.0</ele>
        <time>2009-05-24T04:08:37Z</time>
      </trkpt>
      <trkpt lat="42.514388" lon="0.332709">
        <ele>2238.0</ele>
        <time>2009-05-24T04:09:03Z</time>
      </trkpt>
      <trkpt lat="42.514335" lon="0.332610">
        <ele>2238.0</ele>
        <time>2009-05-24T04:09:33Z</time>
      </trkpt>
      <trkpt lat="42.514289" lon="0.332502">
        <ele>2238.0</ele>
        <time>2009-05-24T04:10:00Z</time>
      </trkpt>
      <trkpt lat="42.514235" lon="0.332395">
        <ele>2243.0</ele>
        <time>2009-05-24T04:10:27Z</time>
      </trkpt>
      <trkpt lat="42.514176" lon="0.332296">
        <ele>2243.0</ele>
        <time>2009-05-24T04:10:52Z</time>
      </trkpt>
      <trkpt lat="42.514123" lon="0.332197">
        <ele>2243.0</ele>
        <time>2009-05-24T04:11:09Z</time>
      </trkpt>
      <trkpt lat="42.514063" lon="0.332098">
        <ele>2251.0</ele>
        <time>2009-05-24T04:11:35Z</time>
      </trkpt>
      <trkpt lat="42.513990" lon="0.332026">
        <ele>2266.0</ele>
        <time>2009-05-24T04:12:07Z</time>
      </trkpt>
      <trkpt lat="42.513916" lon="0.331945">
        <ele>2266.0</ele>
        <time>2009-05-24T04:12:33Z</time>
      </trkpt>
      <trkpt lat="42.513830" lon="0.331901">
        <ele>2266.0</ele>
        <time>2009-05-24T04:12:52Z</time>
      </trkpt>
      <trkpt lat="42.513744" lon="0.331865">
        <ele>2275.0</ele>
        <time>2009-05-24T04:13:13Z</time>
      </trkpt>
      <trkpt lat="42.513644" lon="0.331865">
        <ele>2275.0</ele>
        <time>2009-05-24T04:13:30Z</time>
      </trkpt>
      <trkpt lat="42.513597" lon="0.331757">
        <ele>2275.0</ele>
        <time>2009-05-24T04:14:44Z</time>
      </trkpt>
      <trkpt lat="42.513504" lon="0.331775">
        <ele>2275.0</ele>
        <time>2009-05-24T04:15:11Z</time>
      </trkpt>
      <trkpt lat="42.513418" lon="0.331811">
        <ele>2287.0</ele>
        <time>2009-05-24T04:17:54Z</time>
      </trkpt>
      <trkpt lat="42.513325" lon="0.331793">
        <ele>2274.0</ele>
        <time>2009-05-24T04:18:40Z</time>
      </trkpt>
      <trkpt lat="42.513232" lon="0.331820">
        <ele>2282.0</ele>
        <time>2009-05-24T04:18:51Z</time>
      </trkpt>
      <trkpt lat="42.513139" lon="0.331802">
        <ele>2288.0</ele>
        <time>2009-05-24T04:19:03Z</time>
      </trkpt>
      <trkpt lat="42.513059" lon="0.331739">
        <ele>2288.0</ele>
        <time>2009-05-24T04:19:13Z</time>
      </trkpt>
      <trkpt lat="42.512973" lon="0.331685">
        <ele>2288.0</ele>
        <time>2009-05-24T04:19:24Z</time>
      </trkpt>
      <trkpt lat="42.512880" lon="0.331712">
        <ele>2297.0</ele>
        <time>2009-05-24T04:19:44Z</time>
      </trkpt>
      <trkpt lat="42.512787" lon="0.331712">
        <ele>2297.0</ele>
        <time>2009-05-24T04:20:01Z</time>
      </trkpt>
      <trkpt lat="42.512727" lon="0.331613">
        <ele>2302.0</ele>
        <time>2009-05-24T04:20:28Z</time>
      </trkpt>
      <trkpt lat="42.512707" lon="0.331487">
        <ele>2302.0</ele>
        <time>2009-05-24T04:20:50Z</time>
      </trkpt>
      <trkpt lat="42.512714" lon="0.331362">
        <ele>2302.0</ele>
        <time>2009-05-24T04:21:08Z</time>
      </trkpt>
      <trkpt lat="42.512660" lon="0.331263">
        <ele>2314.0</ele>
        <time>2009-05-24T04:21:35Z</time>
      </trkpt>
      <trkpt lat="42.512660" lon="0.331137">
        <ele>2319.0</ele>
        <time>2009-05-24T04:22:05Z</time>
      </trkpt>
      <trkpt lat="42.512561" lon="0.331047">
        <ele>2319.0</ele>
        <time>2009-05-24T04:22:42Z</time>
      </trkpt>
      <trkpt lat="42.512441" lon="0.330993">
        <ele>2333.0</ele>
        <time>2009-05-24T04:23:24Z</time>
      </trkpt>
      <trkpt lat="42.512348" lon="0.330993">
        <ele>2340.0</ele>
        <time>2009-05-24T04:24:01Z</time>
      </trkpt>
      <trkpt lat="42.512242" lon="0.330903">
        <ele>2347.0</ele>
        <time>2009-05-24T04:24:33Z</time>
      </trkpt>
      <trkpt lat="42.512228" lon="0.330778">
        <ele>2347.0</ele>
        <time>2009-05-24T04:24:53Z</time>
      </trkpt>
      <trkpt lat="42.512142" lon="0.330742">
        <ele>2354.0</ele>
        <time>2009-05-24T04:25:22Z</time>
      </trkpt>
      <trkpt lat="42.512056" lon="0.330778">
        <ele>2354.0</ele>
        <time>2009-05-24T04:25:39Z</time>
      </trkpt>
      <trkpt lat="42.511976" lon="0.330715">
        <ele>2362.0</ele>
        <time>2009-05-24T04:26:03Z</time>
      </trkpt>
      <trkpt lat="42.511956" lon="0.330589">
        <ele>2362.0</ele>
        <time>2009-05-24T04:26:23Z</time>
      </trkpt>
      <trkpt lat="42.511916" lon="0.330472">
        <ele>2369.0</ele>
        <time>2009-05-24T04:26:44Z</time>
      </trkpt>
      <trkpt lat="42.511863" lon="0.330373">
        <ele>2375.0</ele>
        <time>2009-05-24T04:27:07Z</time>
      </trkpt>
      <trkpt lat="42.511816" lon="0.330266">
        <ele>2375.0</ele>
        <time>2009-05-24T04:27:27Z</time>
      </trkpt>
      <trkpt lat="42.511750" lon="0.330167">
        <ele>2381.0</ele>
        <time>2009-05-24T04:27:51Z</time>
      </trkpt>
      <trkpt lat="42.511677" lon="0.330077">
        <ele>2381.0</ele>
        <time>2009-05-24T04:31:17Z</time>
      </trkpt>
      <trkpt lat="42.511604" lon="0.330005">
        <ele>2381.0</ele>
        <time>2009-05-24T04:31:36Z</time>
      </trkpt>
      <trkpt lat="42.511517" lon="0.329969">
        <ele>2389.0</ele>
        <time>2009-05-24T04:31:53Z</time>
      </trkpt>
      <trkpt lat="42.511438" lon="0.329906">
        <ele>2389.0</ele>
        <time>2009-05-24T04:32:09Z</time>
      </trkpt>
      <trkpt lat="42.511364" lon="0.329834">
        <ele>2389.0</ele>
        <time>2009-05-24T04:32:22Z</time>
      </trkpt>
      <trkpt lat="42.511291" lon="0.329763">
        <ele>2394.0</ele>
        <time>2009-05-24T04:32:36Z</time>
      </trkpt>
      <trkpt lat="42.511218" lon="0.329691">
        <ele>2394.0</ele>
        <time>2009-05-24T04:32:50Z</time>
      </trkpt>
      <trkpt lat="42.511152" lon="0.329592">
        <ele>2394.0</ele>
        <time>2009-05-24T04:33:05Z</time>
      </trkpt>
      <trkpt lat="42.511079" lon="0.329511">
        <ele>2394.0</ele>
        <time>2009-05-24T04:33:20Z</time>
      </trkpt>
      <trkpt lat="42.511012" lon="0.329412">
        <ele>2394.0</ele>
        <time>2009-05-24T04:33:40Z</time>
      </trkpt>
      <trkpt lat="42.510986" lon="0.329295">
        <ele>2399.0</ele>
        <time>2009-05-24T04:33:57Z</time>
      </trkpt>
      <trkpt lat="42.510932" lon="0.329197">
        <ele>2399.0</ele>
        <time>2009-05-24T04:34:16Z</time>
      </trkpt>
      <trkpt lat="42.510906" lon="0.329080">
        <ele>2399.0</ele>
        <time>2009-05-24T04:34:34Z</time>
      </trkpt>
      <trkpt lat="42.510879" lon="0.328963">
        <ele>2406.0</ele>
        <time>2009-05-24T04:34:52Z</time>
      </trkpt>
      <trkpt lat="42.510826" lon="0.328864">
        <ele>2406.0</ele>
        <time>2009-05-24T04:35:10Z</time>
      </trkpt>
      <trkpt lat="42.510740" lon="0.328810">
        <ele>2412.0</ele>
        <time>2009-05-24T04:35:36Z</time>
      </trkpt>
      <trkpt lat="42.510647" lon="0.328783">
        <ele>2412.0</ele>
        <time>2009-05-24T04:35:56Z</time>
      </trkpt>
      <trkpt lat="42.510560" lon="0.328747">
        <ele>2419.0</ele>
        <time>2009-05-24T04:36:14Z</time>
      </trkpt>
      <trkpt lat="42.510507" lon="0.328649">
        <ele>2419.0</ele>
        <time>2009-05-24T04:36:34Z</time>
      </trkpt>
      <trkpt lat="42.510421" lon="0.328586">
        <ele>2419.0</ele>
        <time>2009-05-24T04:36:53Z</time>
      </trkpt>
      <trkpt lat="42.510368" lon="0.328487">
        <ele>2427.0</ele>
        <time>2009-05-24T04:37:09Z</time>
      </trkpt>
      <trkpt lat="42.510301" lon="0.328397">
        <ele>2427.0</ele>
        <time>2009-05-24T04:37:26Z</time>
      </trkpt>
      <trkpt lat="42.510221" lon="0.328334">
        <ele>2427.0</ele>
        <time>2009-05-24T04:37:46Z</time>
      </trkpt>
      <trkpt lat="42.510135" lon="0.328298">
        <ele>2434.0</ele>
        <time>2009-05-24T04:38:01Z</time>
      </trkpt>
      <trkpt lat="42.510048" lon="0.328244">
        <ele>2434.0</ele>
        <time>2009-05-24T04:38:18Z</time>
      </trkpt>
      <trkpt lat="42.509962" lon="0.328199">
        <ele>2442.0</ele>
        <time>2009-05-24T04:38:51Z</time>
      </trkpt>
      <trkpt lat="42.509876" lon="0.328146">
        <ele>2442.0</ele>
        <time>2009-05-24T04:39:12Z</time>
      </trkpt>
      <trkpt lat="42.509816" lon="0.328047">
        <ele>2442.0</ele>
        <time>2009-05-24T04:39:29Z</time>
      </trkpt>
      <trkpt lat="42.509749" lon="0.327957">
        <ele>2436.0</ele>
        <time>2009-05-24T04:40:07Z</time>
      </trkpt>
      <trkpt lat="42.509676" lon="0.327867">
        <ele>2453.0</ele>
        <time>2009-05-24T04:44:16Z</time>
      </trkpt>
      <trkpt lat="42.509636" lon="0.327750">
        <ele>2453.0</ele>
        <time>2009-05-24T04:44:42Z</time>
      </trkpt>
      <trkpt lat="42.509583" lon="0.327652">
        <ele>2453.0</ele>
        <time>2009-05-24T04:45:31Z</time>
      </trkpt>
      <trkpt lat="42.509510" lon="0.327580">
        <ele>2461.0</ele>
        <time>2009-05-24T04:45:57Z</time>
      </trkpt>
      <trkpt lat="42.509450" lon="0.327481">
        <ele>2466.0</ele>
        <time>2009-05-24T04:46:21Z</time>
      </trkpt>
      <trkpt lat="42.509377" lon="0.327391">
        <ele>2473.0</ele>
        <time>2009-05-24T04:46:47Z</time>
      </trkpt>
      <trkpt lat="42.509410" lon="0.327274">
        <ele>2473.0</ele>
        <time>2009-05-24T04:47:20Z</time>
      </trkpt>
      <trkpt lat="42.509457" lon="0.327157">
        <ele>2473.0</ele>
        <time>2009-05-24T04:47:48Z</time>
      </trkpt>
      <trkpt lat="42.509371" lon="0.327095">
        <ele>2483.0</ele>
        <time>2009-05-24T04:48:20Z</time>
      </trkpt>
      <trkpt lat="42.509304" lon="0.327005">
        <ele>2483.0</ele>
        <time>2009-05-24T04:48:45Z</time>
      </trkpt>
      <trkpt lat="42.509218" lon="0.326960">
        <ele>2483.0</ele>
        <time>2009-05-24T04:49:07Z</time>
      </trkpt>
      <trkpt lat="42.509191" lon="0.326843">
        <ele>2491.0</ele>
        <time>2009-05-24T04:49:59Z</time>
      </trkpt>
      <trkpt lat="42.509198" lon="0.326717">
        <ele>2491.0</ele>
        <time>2009-05-24T04:50:15Z</time>
      </trkpt>
      <trkpt lat="42.509158" lon="0.326600">
        <ele>2501.0</ele>
        <time>2009-05-24T04:50:46Z</time>
      </trkpt>
      <trkpt lat="42.509145" lon="0.326475">
        <ele>2506.0</ele>
        <time>2009-05-24T04:51:06Z</time>
      </trkpt>
      <trkpt lat="42.509145" lon="0.326349">
        <ele>2506.0</ele>
        <time>2009-05-24T04:51:21Z</time>
      </trkpt>
      <trkpt lat="42.509138" lon="0.326223">
        <ele>2506.0</ele>
        <time>2009-05-24T04:51:37Z</time>
      </trkpt>
      <trkpt lat="42.509111" lon="0.326106">
        <ele>2506.0</ele>
        <time>2009-05-24T04:51:50Z</time>
      </trkpt>
      <trkpt lat="42.509111" lon="0.325981">
        <ele>2512.0</ele>
        <time>2009-05-24T04:52:02Z</time>
      </trkpt>
      <trkpt lat="42.509052" lon="0.325873">
        <ele>2512.0</ele>
        <time>2009-05-24T04:52:16Z</time>
      </trkpt>
      <trkpt lat="42.509012" lon="0.325756">
        <ele>2512.0</ele>
        <time>2009-05-24T04:52:33Z</time>
      </trkpt>
      <trkpt lat="42.509005" lon="0.325630">
        <ele>2512.0</ele>
        <time>2009-05-24T04:52:54Z</time>
      </trkpt>
      <trkpt lat="42.508919" lon="0.325558">
        <ele>2512.0</ele>
        <time>2009-05-24T04:53:18Z</time>
      </trkpt>
      <trkpt lat="42.508839" lon="0.325496">
        <ele>2512.0</ele>
        <time>2009-05-24T04:53:41Z</time>
      </trkpt>
      <trkpt lat="42.508746" lon="0.325487">
        <ele>2520.0</ele>
        <time>2009-05-24T04:54:08Z</time>
      </trkpt>
      <trkpt lat="42.508646" lon="0.325487">
        <ele>2520.0</ele>
        <time>2009-05-24T04:54:51Z</time>
      </trkpt>
      <trkpt lat="42.508553" lon="0.325478">
        <ele>2520.0</ele>
        <time>2009-05-24T04:55:10Z</time>
      </trkpt>
      <trkpt lat="42.508460" lon="0.325487">
        <ele>2528.0</ele>
        <time>2009-05-24T04:55:29Z</time>
      </trkpt>
      <trkpt lat="42.508367" lon="0.325469">
        <ele>2528.0</ele>
        <time>2009-05-24T04:55:52Z</time>
      </trkpt>
      <trkpt lat="42.508274" lon="0.325451">
        <ele>2528.0</ele>
        <time>2009-05-24T04:56:18Z</time>
      </trkpt>
      <trkpt lat="42.508161" lon="0.325424">
        <ele>2547.0</ele>
        <time>2009-05-24T04:57:16Z</time>
      </trkpt>
      <trkpt lat="42.508088" lon="0.325343">
        <ele>2560.0</ele>
        <time>2009-05-24T04:58:32Z</time>
      </trkpt>
      <trkpt lat="42.508075" lon="0.325199">
        <ele>2560.0</ele>
        <time>2009-05-24T04:58:57Z</time>
      </trkpt>
      <trkpt lat="42.508001" lon="0.325109">
        <ele>2579.0</ele>
        <time>2009-05-24T05:00:03Z</time>
      </trkpt>
      <trkpt lat="42.507955" lon="0.324984">
        <ele>2606.0</ele>
        <time>2009-05-24T05:01:12Z</time>
      </trkpt>
      <trkpt lat="42.507935" lon="0.324840">
        <ele>2585.0</ele>
        <time>2009-05-24T05:01:18Z</time>
      </trkpt>
      <trkpt lat="42.507908" lon="0.324723">
        <ele>2573.0</ele>
        <time>2009-05-24T05:01:21Z</time>
      </trkpt>
      <trkpt lat="42.507882" lon="0.324606">
        <ele>2564.0</ele>
        <time>2009-05-24T05:01:31Z</time>
      </trkpt>
      <trkpt lat="42.507882" lon="0.324534">
        <ele>2692.0</ele>
        <time>2009-05-24T05:07:19Z</time>
      </trkpt>
      <trkpt lat="42.507888" lon="0.324400">
        <ele>2692.0</ele>
        <time>2009-05-24T05:07:44Z</time>
      </trkpt>
      <trkpt lat="42.507908" lon="0.324274">
        <ele>2683.0</ele>
        <time>2009-05-24T05:08:11Z</time>
      </trkpt>
      <trkpt lat="42.507975" lon="0.324094">
        <ele>2669.0</ele>
        <time>2009-05-24T05:08:56Z</time>
      </trkpt>
      <trkpt lat="42.507981" lon="0.323924">
        <ele>2671.0</ele>
        <time>2009-05-24T05:11:00Z</time>
      </trkpt>
      <trkpt lat="42.508001" lon="0.323690">
        <ele>2659.0</ele>
        <time>2009-05-24T05:11:37Z</time>
      </trkpt>
      <trkpt lat="42.508048" lon="0.323456">
        <ele>2683.0</ele>
        <time>2009-05-24T05:14:46Z</time>
      </trkpt>
      <trkpt lat="42.508075" lon="0.323340">
        <ele>2667.0</ele>
        <time>2009-05-24T05:14:54Z</time>
      </trkpt>
      <trkpt lat="42.508081" lon="0.323214">
        <ele>2667.0</ele>
        <time>2009-05-24T05:15:59Z</time>
      </trkpt>
      <trkpt lat="42.508101" lon="0.323088">
        <ele>2674.0</ele>
        <time>2009-05-24T05:17:15Z</time>
      </trkpt>
      <trkpt lat="42.508154" lon="0.322980">
        <ele>2680.0</ele>
        <time>2009-05-24T05:29:22Z</time>
      </trkpt>
      <trkpt lat="42.508227" lon="0.322899">
        <ele>2680.0</ele>
        <time>2009-05-24T05:29:37Z</time>
      </trkpt>
      <trkpt lat="42.508301" lon="0.322810">
        <ele>2680.0</ele>
        <time>2009-05-24T05:29:50Z</time>
      </trkpt>
      <trkpt lat="42.508387" lon="0.322756">
        <ele>2688.0</ele>
        <time>2009-05-24T05:30:05Z</time>
      </trkpt>
      <trkpt lat="42.508440" lon="0.322855">
        <ele>2688.0</ele>
        <time>2009-05-24T05:30:37Z</time>
      </trkpt>
      <trkpt lat="42.508533" lon="0.322837">
        <ele>2698.0</ele>
        <time>2009-05-24T05:31:23Z</time>
      </trkpt>
      <trkpt lat="42.508613" lon="0.322774">
        <ele>2698.0</ele>
        <time>2009-05-24T05:31:56Z</time>
      </trkpt>
      <trkpt lat="42.508693" lon="0.322711">
        <ele>2704.0</ele>
        <time>2009-05-24T05:32:24Z</time>
      </trkpt>
      <trkpt lat="42.508885" lon="0.322675">
        <ele>2714.0</ele>
        <time>2009-05-24T05:33:55Z</time>
      </trkpt>
      <trkpt lat="42.509012" lon="0.322747">
        <ele>2721.0</ele>
        <time>2009-05-24T05:35:13Z</time>
      </trkpt>
      <trkpt lat="42.509098" lon="0.322702">
        <ele>2721.0</ele>
        <time>2009-05-24T05:35:41Z</time>
      </trkpt>
      <trkpt lat="42.509191" lon="0.322684">
        <ele>2741.0</ele>
        <time>2009-05-24T05:36:56Z</time>
      </trkpt>
      <trkpt lat="42.509284" lon="0.322702">
        <ele>2741.0</ele>
        <time>2009-05-24T05:38:58Z</time>
      </trkpt>
      <trkpt lat="42.509371" lon="0.322648">
        <ele>2741.0</ele>
        <time>2009-05-24T05:39:12Z</time>
      </trkpt>
      <trkpt lat="42.509470" lon="0.322621">
        <ele>2747.0</ele>
        <time>2009-05-24T05:39:24Z</time>
      </trkpt>
      <trkpt lat="42.509563" lon="0.322594">
        <ele>2753.0</ele>
        <time>2009-05-24T05:39:38Z</time>
      </trkpt>
      <trkpt lat="42.509656" lon="0.322567">
        <ele>2753.0</ele>
        <time>2009-05-24T05:39:58Z</time>
      </trkpt>
      <trkpt lat="42.509743" lon="0.322513">
        <ele>2761.0</ele>
        <time>2009-05-24T05:40:25Z</time>
      </trkpt>
      <trkpt lat="42.509829" lon="0.322459">
        <ele>2761.0</ele>
        <time>2009-05-24T05:40:49Z</time>
      </trkpt>
      <trkpt lat="42.509909" lon="0.322396">
        <ele>2767.0</ele>
        <time>2009-05-24T05:41:18Z</time>
      </trkpt>
      <trkpt lat="42.509982" lon="0.322325">
        <ele>2767.0</ele>
        <time>2009-05-24T05:42:34Z</time>
      </trkpt>
      <trkpt lat="42.510055" lon="0.322244">
        <ele>2773.0</ele>
        <time>2009-05-24T05:42:44Z</time>
      </trkpt>
      <trkpt lat="42.510142" lon="0.322208">
        <ele>2779.0</ele>
        <time>2009-05-24T05:43:08Z</time>
      </trkpt>
      <trkpt lat="42.510228" lon="0.322163">
        <ele>2779.0</ele>
        <time>2009-05-24T05:43:30Z</time>
      </trkpt>
      <trkpt lat="42.510321" lon="0.322100">
        <ele>2785.0</ele>
        <time>2009-05-24T05:44:07Z</time>
      </trkpt>
      <trkpt lat="42.510394" lon="0.322010">
        <ele>2785.0</ele>
        <time>2009-05-24T05:44:21Z</time>
      </trkpt>
      <trkpt lat="42.510474" lon="0.321947">
        <ele>2785.0</ele>
        <time>2009-05-24T05:44:58Z</time>
      </trkpt>
      <trkpt lat="42.510567" lon="0.321911">
        <ele>2795.0</ele>
        <time>2009-05-24T05:46:32Z</time>
      </trkpt>
      <trkpt lat="42.510633" lon="0.321821">
        <ele>2795.0</ele>
        <time>2009-05-24T05:46:40Z</time>
      </trkpt>
      <trkpt lat="42.510713" lon="0.321741">
        <ele>2795.0</ele>
        <time>2009-05-24T05:46:49Z</time>
      </trkpt>
      <trkpt lat="42.510760" lon="0.321633">
        <ele>2795.0</ele>
        <time>2009-05-24T05:47:08Z</time>
      </trkpt>
      <trkpt lat="42.510800" lon="0.321534">
        <ele>2801.0</ele>
        <time>2009-05-24T05:50:23Z</time>
      </trkpt>
      <trkpt lat="42.510859" lon="0.321435">
        <ele>2801.0</ele>
        <time>2009-05-24T05:50:50Z</time>
      </trkpt>
      <trkpt lat="42.510893" lon="0.321309">
        <ele>2801.0</ele>
        <time>2009-05-24T05:51:31Z</time>
      </trkpt>
      <trkpt lat="42.510893" lon="0.321175">
        <ele>2808.0</ele>
        <time>2009-05-24T05:52:13Z</time>
      </trkpt>
      <trkpt lat="42.510952" lon="0.321076">
        <ele>2808.0</ele>
        <time>2009-05-24T05:52:26Z</time>
      </trkpt>
      <trkpt lat="42.510999" lon="0.320968">
        <ele>2813.0</ele>
        <time>2009-05-24T05:53:19Z</time>
      </trkpt>
      <trkpt lat="42.511025" lon="0.320851">
        <ele>2813.0</ele>
        <time>2009-05-24T05:53:41Z</time>
      </trkpt>
      <trkpt lat="42.511059" lon="0.320734">
        <ele>2813.0</ele>
        <time>2009-05-24T05:54:09Z</time>
      </trkpt>
      <trkpt lat="42.511092" lon="0.320546">
        <ele>2813.0</ele>
        <time>2009-05-24T05:56:01Z</time>
      </trkpt>
      <trkpt lat="42.511112" lon="0.320438">
        <ele>2847.0</ele>
        <time>2009-05-24T06:01:29Z</time>
      </trkpt>
      <trkpt lat="42.511172" lon="0.320339">
        <ele>2857.0</ele>
        <time>2009-05-24T06:02:25Z</time>
      </trkpt>
      <trkpt lat="42.511238" lon="0.320249">
        <ele>2865.0</ele>
        <time>2009-05-24T06:03:07Z</time>
      </trkpt>
      <trkpt lat="42.511278" lon="0.320133">
        <ele>2874.0</ele>
        <time>2009-05-24T06:04:57Z</time>
      </trkpt>
      <trkpt lat="42.511371" lon="0.320106">
        <ele>2882.0</ele>
        <time>2009-05-24T06:05:37Z</time>
      </trkpt>
      <trkpt lat="42.511404" lon="0.319899">
        <ele>2901.0</ele>
        <time>2009-05-24T06:09:22Z</time>
      </trkpt>
      <trkpt lat="42.511491" lon="0.319863">
        <ele>2910.0</ele>
        <time>2009-05-24T06:10:35Z</time>
      </trkpt>
      <trkpt lat="42.511584" lon="0.319881">
        <ele>2910.0</ele>
        <time>2009-05-24T06:10:54Z</time>
      </trkpt>
      <trkpt lat="42.511683" lon="0.319863">
        <ele>2915.0</ele>
        <time>2009-05-24T06:11:09Z</time>
      </trkpt>
      <trkpt lat="42.511776" lon="0.319854">
        <ele>2915.0</ele>
        <time>2009-05-24T06:11:26Z</time>
      </trkpt>
      <trkpt lat="42.511870" lon="0.319845">
        <ele>2915.0</ele>
        <time>2009-05-24T06:11:45Z</time>
      </trkpt>
      <trkpt lat="42.511963" lon="0.319827">
        <ele>2915.0</ele>
        <time>2009-05-24T06:17:30Z</time>
      </trkpt>
      <trkpt lat="42.512056" lon="0.319845">
        <ele>2915.0</ele>
        <time>2009-05-24T06:19:03Z</time>
      </trkpt>
      <trkpt lat="42.512149" lon="0.319836">
        <ele>2915.0</ele>
        <time>2009-05-24T06:20:24Z</time>
      </trkpt>
      <trkpt lat="42.512242" lon="0.319809">
        <ele>2915.0</ele>
        <time>2009-05-24T06:20:45Z</time>
      </trkpt>
      <trkpt lat="42.512341" lon="0.319773">
        <ele>2915.0</ele>
        <time>2009-05-24T06:20:58Z</time>
      </trkpt>
      <trkpt lat="42.512428" lon="0.319719">
        <ele>2915.0</ele>
        <time>2009-05-24T06:21:05Z</time>
      </trkpt>
      <trkpt lat="42.512508" lon="0.319639">
        <ele>2915.0</ele>
        <time>2009-05-24T06:21:12Z</time>
      </trkpt>
      <trkpt lat="42.512541" lon="0.319513">
        <ele>2907.0</ele>
        <time>2009-05-24T06:21:38Z</time>
      </trkpt>
      <trkpt lat="42.512614" lon="0.319423">
        <ele>2907.0</ele>
        <time>2009-05-24T06:21:46Z</time>
      </trkpt>
      <trkpt lat="42.512687" lon="0.319342">
        <ele>2907.0</ele>
        <time>2009-05-24T06:21:53Z</time>
      </trkpt>
      <trkpt lat="42.512687" lon="0.319216">
        <ele>2901.0</ele>
        <time>2009-05-24T06:22:06Z</time>
      </trkpt>
      <trkpt lat="42.512634" lon="0.319118">
        <ele>2901.0</ele>
        <time>2009-05-24T06:22:14Z</time>
      </trkpt>
      <trkpt lat="42.512541" lon="0.319144">
        <ele>2901.0</ele>
        <time>2009-05-24T06:22:30Z</time>
      </trkpt>
      <trkpt lat="42.512448" lon="0.319127">
        <ele>2895.0</ele>
        <time>2009-05-24T06:22:40Z</time>
      </trkpt>
      <trkpt lat="42.512348" lon="0.319091">
        <ele>2895.0</ele>
        <time>2009-05-24T06:22:48Z</time>
      </trkpt>
      <trkpt lat="42.512255" lon="0.319091">
        <ele>2895.0</ele>
        <time>2009-05-24T06:23:03Z</time>
      </trkpt>
      <trkpt lat="42.512208" lon="0.318983">
        <ele>2885.0</ele>
        <time>2009-05-24T06:23:15Z</time>
      </trkpt>
      <trkpt lat="42.512155" lon="0.318884">
        <ele>2876.0</ele>
        <time>2009-05-24T06:23:29Z</time>
      </trkpt>
      <trkpt lat="42.512042" lon="0.318749">
        <ele>2866.0</ele>
        <time>2009-05-24T06:24:01Z</time>
      </trkpt>
      <trkpt lat="42.512016" lon="0.318632">
        <ele>2857.0</ele>
        <time>2009-05-24T06:24:31Z</time>
      </trkpt>
      <trkpt lat="42.511989" lon="0.318516">
        <ele>2865.0</ele>
        <time>2009-05-24T06:31:52Z</time>
      </trkpt>
      <trkpt lat="42.511956" lon="0.318399">
        <ele>2865.0</ele>
        <time>2009-05-24T06:32:02Z</time>
      </trkpt>
      <trkpt lat="42.511903" lon="0.318300">
        <ele>2857.0</ele>
        <time>2009-05-24T06:32:12Z</time>
      </trkpt>
      <trkpt lat="42.511889" lon="0.318174">
        <ele>2845.0</ele>
        <time>2009-05-24T06:32:23Z</time>
      </trkpt>
      <trkpt lat="42.511863" lon="0.318058">
        <ele>2845.0</ele>
        <time>2009-05-24T06:32:30Z</time>
      </trkpt>
      <trkpt lat="42.511836" lon="0.317932">
        <ele>2836.0</ele>
        <time>2009-05-24T06:32:41Z</time>
      </trkpt>
      <trkpt lat="42.511843" lon="0.317806">
        <ele>2830.0</ele>
        <time>2009-05-24T06:32:51Z</time>
      </trkpt>
      <trkpt lat="42.511836" lon="0.317671">
        <ele>2823.0</ele>
        <time>2009-05-24T06:32:57Z</time>
      </trkpt>
      <trkpt lat="42.511816" lon="0.317528">
        <ele>2823.0</ele>
        <time>2009-05-24T06:33:02Z</time>
      </trkpt>
      <trkpt lat="42.511803" lon="0.317402">
        <ele>2816.0</ele>
        <time>2009-05-24T06:37:07Z</time>
      </trkpt>
      <trkpt lat="42.511823" lon="0.317276">
        <ele>2809.0</ele>
        <time>2009-05-24T06:37:13Z</time>
      </trkpt>
      <trkpt lat="42.511843" lon="0.317150">
        <ele>2803.0</ele>
        <time>2009-05-24T06:37:18Z</time>
      </trkpt>
      <trkpt lat="42.511903" lon="0.317051">
        <ele>2795.0</ele>
        <time>2009-05-24T06:37:29Z</time>
      </trkpt>
      <trkpt lat="42.511903" lon="0.316917">
        <ele>2795.0</ele>
        <time>2009-05-24T06:37:36Z</time>
      </trkpt>
      <trkpt lat="42.511909" lon="0.316791">
        <ele>2784.0</ele>
        <time>2009-05-24T06:37:44Z</time>
      </trkpt>
      <trkpt lat="42.511909" lon="0.316665">
        <ele>2778.0</ele>
        <time>2009-05-24T06:37:52Z</time>
      </trkpt>
      <trkpt lat="42.511856" lon="0.316566">
        <ele>2778.0</ele>
        <time>2009-05-24T06:38:05Z</time>
      </trkpt>
      <trkpt lat="42.511783" lon="0.316476">
        <ele>2778.0</ele>
        <time>2009-05-24T06:38:19Z</time>
      </trkpt>
      <trkpt lat="42.511710" lon="0.316405">
        <ele>2778.0</ele>
        <time>2009-05-24T06:38:31Z</time>
      </trkpt>
      <trkpt lat="42.511624" lon="0.316351">
        <ele>2771.0</ele>
        <time>2009-05-24T06:38:47Z</time>
      </trkpt>
      <trkpt lat="42.511531" lon="0.316324">
        <ele>2771.0</ele>
        <time>2009-05-24T06:38:57Z</time>
      </trkpt>
      <trkpt lat="42.511444" lon="0.316279">
        <ele>2771.0</ele>
        <time>2009-05-24T06:39:08Z</time>
      </trkpt>
      <trkpt lat="42.511404" lon="0.316126">
        <ele>2759.0</ele>
        <time>2009-05-24T06:40:45Z</time>
      </trkpt>
      <trkpt lat="42.511404" lon="0.315973">
        <ele>2759.0</ele>
        <time>2009-05-24T06:40:50Z</time>
      </trkpt>
      <trkpt lat="42.511411" lon="0.315848">
        <ele>2752.0</ele>
        <time>2009-05-24T06:40:55Z</time>
      </trkpt>
      <trkpt lat="42.511438" lon="0.315722">
        <ele>2743.0</ele>
        <time>2009-05-24T06:41:00Z</time>
      </trkpt>
      <trkpt lat="42.511471" lon="0.315596">
        <ele>2731.0</ele>
        <time>2009-05-24T06:41:07Z</time>
      </trkpt>
      <trkpt lat="42.511424" lon="0.315479">
        <ele>2731.0</ele>
        <time>2009-05-24T06:41:16Z</time>
      </trkpt>
      <trkpt lat="42.511398" lon="0.315354">
        <ele>2731.0</ele>
        <time>2009-05-24T06:41:24Z</time>
      </trkpt>
      <trkpt lat="42.511451" lon="0.315246">
        <ele>2722.0</ele>
        <time>2009-05-24T06:41:31Z</time>
      </trkpt>
      <trkpt lat="42.511471" lon="0.315111">
        <ele>2722.0</ele>
        <time>2009-05-24T06:41:37Z</time>
      </trkpt>
      <trkpt lat="42.511471" lon="0.314967">
        <ele>2714.0</ele>
        <time>2009-05-24T06:41:44Z</time>
      </trkpt>
      <trkpt lat="42.511431" lon="0.314851">
        <ele>2714.0</ele>
        <time>2009-05-24T06:41:51Z</time>
      </trkpt>
      <trkpt lat="42.511457" lon="0.314734">
        <ele>2703.0</ele>
        <time>2009-05-24T06:42:00Z</time>
      </trkpt>
      <trkpt lat="42.511484" lon="0.314608">
        <ele>2703.0</ele>
        <time>2009-05-24T06:42:05Z</time>
      </trkpt>
      <trkpt lat="42.511564" lon="0.314527">
        <ele>2694.0</ele>
        <time>2009-05-24T06:42:56Z</time>
      </trkpt>
      <trkpt lat="42.511657" lon="0.314527">
        <ele>2686.0</ele>
        <time>2009-05-24T06:43:08Z</time>
      </trkpt>
      <trkpt lat="42.511757" lon="0.314455">
        <ele>2688.0</ele>
        <time>2009-05-24T06:51:29Z</time>
      </trkpt>
      <trkpt lat="42.511796" lon="0.314338">
        <ele>2688.0</ele>
        <time>2009-05-24T06:52:01Z</time>
      </trkpt>
      <trkpt lat="42.511876" lon="0.314249">
        <ele>2681.0</ele>
        <time>2009-05-24T06:52:24Z</time>
      </trkpt>
      <trkpt lat="42.511923" lon="0.314123">
        <ele>2681.0</ele>
        <time>2009-05-24T06:52:31Z</time>
      </trkpt>
      <trkpt lat="42.511963" lon="0.313997">
        <ele>2666.0</ele>
        <time>2009-05-24T06:52:57Z</time>
      </trkpt>
      <trkpt lat="42.512002" lon="0.313862">
        <ele>2666.0</ele>
        <time>2009-05-24T06:53:29Z</time>
      </trkpt>
      <trkpt lat="42.512036" lon="0.313746">
        <ele>2658.0</ele>
        <time>2009-05-24T06:53:33Z</time>
      </trkpt>
      <trkpt lat="42.512062" lon="0.313620">
        <ele>2648.0</ele>
        <time>2009-05-24T06:53:47Z</time>
      </trkpt>
      <trkpt lat="42.512082" lon="0.313485">
        <ele>2639.0</ele>
        <time>2009-05-24T06:53:52Z</time>
      </trkpt>
      <trkpt lat="42.512076" lon="0.313359">
        <ele>2633.0</ele>
        <time>2009-05-24T06:53:57Z</time>
      </trkpt>
      <trkpt lat="42.512069" lon="0.313225">
        <ele>2633.0</ele>
        <time>2009-05-24T06:54:43Z</time>
      </trkpt>
      <trkpt lat="42.512069" lon="0.313081">
        <ele>2626.0</ele>
        <time>2009-05-24T06:54:48Z</time>
      </trkpt>
      <trkpt lat="42.512062" lon="0.312937">
        <ele>2626.0</ele>
        <time>2009-05-24T06:54:52Z</time>
      </trkpt>
      <trkpt lat="42.512069" lon="0.312811">
        <ele>2620.0</ele>
        <time>2009-05-24T06:54:55Z</time>
      </trkpt>
      <trkpt lat="42.512042" lon="0.312695">
        <ele>2612.0</ele>
        <time>2009-05-24T06:54:59Z</time>
      </trkpt>
      <trkpt lat="42.512089" lon="0.312587">
        <ele>2603.0</ele>
        <time>2009-05-24T06:55:42Z</time>
      </trkpt>
      <trkpt lat="42.512162" lon="0.312506">
        <ele>2603.0</ele>
        <time>2009-05-24T06:55:51Z</time>
      </trkpt>
      <trkpt lat="42.512235" lon="0.312416">
        <ele>2595.0</ele>
        <time>2009-05-24T06:55:56Z</time>
      </trkpt>
      <trkpt lat="42.512288" lon="0.312290">
        <ele>2595.0</ele>
        <time>2009-05-24T06:56:01Z</time>
      </trkpt>
      <trkpt lat="42.512321" lon="0.312147">
        <ele>2586.0</ele>
        <time>2009-05-24T06:56:07Z</time>
      </trkpt>
      <trkpt lat="42.512375" lon="0.312039">
        <ele>2574.0</ele>
        <time>2009-05-24T06:56:49Z</time>
      </trkpt>
      <trkpt lat="42.512461" lon="0.311985">
        <ele>2574.0</ele>
        <time>2009-05-24T06:56:58Z</time>
      </trkpt>
      <trkpt lat="42.512547" lon="0.311949">
        <ele>2574.0</ele>
        <time>2009-05-24T06:57:04Z</time>
      </trkpt>
      <trkpt lat="42.512654" lon="0.311931">
        <ele>2574.0</ele>
        <time>2009-05-24T06:57:11Z</time>
      </trkpt>
      <trkpt lat="42.512747" lon="0.311904">
        <ele>2574.0</ele>
        <time>2009-05-24T06:57:17Z</time>
      </trkpt>
      <trkpt lat="42.512847" lon="0.311877">
        <ele>2574.0</ele>
        <time>2009-05-24T06:57:24Z</time>
      </trkpt>
      <trkpt lat="42.512946" lon="0.311859">
        <ele>2565.0</ele>
        <time>2009-05-24T06:57:31Z</time>
      </trkpt>
      <trkpt lat="42.513039" lon="0.311814">
        <ele>2565.0</ele>
        <time>2009-05-24T06:57:40Z</time>
      </trkpt>
      <trkpt lat="42.513119" lon="0.311733">
        <ele>2553.0</ele>
        <time>2009-05-24T06:57:47Z</time>
      </trkpt>
      <trkpt lat="42.513192" lon="0.311635">
        <ele>2553.0</ele>
        <time>2009-05-24T06:57:53Z</time>
      </trkpt>
      <trkpt lat="42.513265" lon="0.311545">
        <ele>2553.0</ele>
        <time>2009-05-24T06:57:59Z</time>
      </trkpt>
      <trkpt lat="42.513338" lon="0.311473">
        <ele>2553.0</ele>
        <time>2009-05-24T06:58:04Z</time>
      </trkpt>
      <trkpt lat="42.513391" lon="0.311374">
        <ele>2546.0</ele>
        <time>2009-05-24T06:58:12Z</time>
      </trkpt>
      <trkpt lat="42.513431" lon="0.311248">
        <ele>2546.0</ele>
        <time>2009-05-24T06:58:19Z</time>
      </trkpt>
      <trkpt lat="42.513471" lon="0.311123">
        <ele>2538.0</ele>
        <time>2009-05-24T06:58:25Z</time>
      </trkpt>
      <trkpt lat="42.513504" lon="0.310997">
        <ele>2538.0</ele>
        <time>2009-05-24T06:58:31Z</time>
      </trkpt>
      <trkpt lat="42.513578" lon="0.310889">
        <ele>2530.0</ele>
        <time>2009-05-24T06:58:37Z</time>
      </trkpt>
      <trkpt lat="42.513664" lon="0.310799">
        <ele>2530.0</ele>
        <time>2009-05-24T06:58:44Z</time>
      </trkpt>
      <trkpt lat="42.513724" lon="0.310682">
        <ele>2520.0</ele>
        <time>2009-05-24T06:58:50Z</time>
      </trkpt>
      <trkpt lat="42.513810" lon="0.310619">
        <ele>2509.0</ele>
        <time>2009-05-24T06:58:59Z</time>
      </trkpt>
      <trkpt lat="42.513897" lon="0.310557">
        <ele>2509.0</ele>
        <time>2009-05-24T06:59:06Z</time>
      </trkpt>
      <trkpt lat="42.513970" lon="0.310467">
        <ele>2509.0</ele>
        <time>2009-05-24T06:59:14Z</time>
      </trkpt>
      <trkpt lat="42.514056" lon="0.310404">
        <ele>2509.0</ele>
        <time>2009-05-24T06:59:23Z</time>
      </trkpt>
      <trkpt lat="42.514123" lon="0.310215">
        <ele>2509.0</ele>
        <time>2009-05-24T06:59:42Z</time>
      </trkpt>
      <trkpt lat="42.514069" lon="0.310107">
        <ele>2509.0</ele>
        <time>2009-05-24T06:59:54Z</time>
      </trkpt>
      <trkpt lat="42.514069" lon="0.309982">
        <ele>2509.0</ele>
        <time>2009-05-24T07:00:01Z</time>
      </trkpt>
      <trkpt lat="42.514096" lon="0.309856">
        <ele>2509.0</ele>
        <time>2009-05-24T07:00:07Z</time>
      </trkpt>
      <trkpt lat="42.514142" lon="0.309748">
        <ele>2502.0</ele>
        <time>2009-05-24T07:00:13Z</time>
      </trkpt>
      <trkpt lat="42.514189" lon="0.309622">
        <ele>2502.0</ele>
        <time>2009-05-24T07:00:19Z</time>
      </trkpt>
      <trkpt lat="42.514282" lon="0.309577">
        <ele>2502.0</ele>
        <time>2009-05-24T07:00:30Z</time>
      </trkpt>
      <trkpt lat="42.514375" lon="0.309595">
        <ele>2495.0</ele>
        <time>2009-05-24T07:00:41Z</time>
      </trkpt>
      <trkpt lat="42.514475" lon="0.309604">
        <ele>2488.0</ele>
        <time>2009-05-24T07:02:54Z</time>
      </trkpt>
      <trkpt lat="42.514621" lon="0.309595">
        <ele>2472.0</ele>
        <time>2009-05-24T07:03:33Z</time>
      </trkpt>
      <trkpt lat="42.514707" lon="0.309631">
        <ele>2472.0</ele>
        <time>2009-05-24T07:03:44Z</time>
      </trkpt>
      <trkpt lat="42.514800" lon="0.309649">
        <ele>2472.0</ele>
        <time>2009-05-24T07:03:57Z</time>
      </trkpt>
      <trkpt lat="42.514887" lon="0.309712">
        <ele>2472.0</ele>
        <time>2009-05-24T07:04:11Z</time>
      </trkpt>
      <trkpt lat="42.514980" lon="0.309712">
        <ele>2472.0</ele>
        <time>2009-05-24T07:05:22Z</time>
      </trkpt>
      <trkpt lat="42.515066" lon="0.309757">
        <ele>2472.0</ele>
        <time>2009-05-24T07:05:38Z</time>
      </trkpt>
      <trkpt lat="42.515159" lon="0.309766">
        <ele>2472.0</ele>
        <time>2009-05-24T07:05:49Z</time>
      </trkpt>
      <trkpt lat="42.515252" lon="0.309784">
        <ele>2472.0</ele>
        <time>2009-05-24T07:06:00Z</time>
      </trkpt>
      <trkpt lat="42.515339" lon="0.309820">
        <ele>2472.0</ele>
        <time>2009-05-24T07:06:11Z</time>
      </trkpt>
      <trkpt lat="42.515432" lon="0.309838">
        <ele>2472.0</ele>
        <time>2009-05-24T07:06:23Z</time>
      </trkpt>
      <trkpt lat="42.515525" lon="0.309820">
        <ele>2472.0</ele>
        <time>2009-05-24T07:06:46Z</time>
      </trkpt>
      <trkpt lat="42.515618" lon="0.309847">
        <ele>2472.0</ele>
        <time>2009-05-24T07:06:58Z</time>
      </trkpt>
      <trkpt lat="42.515691" lon="0.309928">
        <ele>2467.0</ele>
        <time>2009-05-24T07:07:09Z</time>
      </trkpt>
      <trkpt lat="42.515784" lon="0.309919">
        <ele>2467.0</ele>
        <time>2009-05-24T07:07:21Z</time>
      </trkpt>
      <trkpt lat="42.515884" lon="0.309937">
        <ele>2467.0</ele>
        <time>2009-05-24T07:07:32Z</time>
      </trkpt>
      <trkpt lat="42.515977" lon="0.309937">
        <ele>2472.0</ele>
        <time>2009-05-24T07:07:46Z</time>
      </trkpt>
      <trkpt lat="42.516070" lon="0.309928">
        <ele>2472.0</ele>
        <time>2009-05-24T07:07:58Z</time>
      </trkpt>
      <trkpt lat="42.516176" lon="0.310107">
        <ele>2475.0</ele>
        <time>2009-05-24T07:35:59Z</time>
      </trkpt>
      <trkpt lat="42.516189" lon="0.310233">
        <ele>2475.0</ele>
        <time>2009-05-24T07:36:11Z</time>
      </trkpt>
      <trkpt lat="42.516189" lon="0.310359">
        <ele>2475.0</ele>
        <time>2009-05-24T07:36:23Z</time>
      </trkpt>
      <trkpt lat="42.516130" lon="0.310458">
        <ele>2483.0</ele>
        <time>2009-05-24T07:36:39Z</time>
      </trkpt>
      <trkpt lat="42.516090" lon="0.310575">
        <ele>2483.0</ele>
        <time>2009-05-24T07:37:00Z</time>
      </trkpt>
      <trkpt lat="42.516036" lon="0.310673">
        <ele>2488.0</ele>
        <time>2009-05-24T07:37:12Z</time>
      </trkpt>
      <trkpt lat="42.516017" lon="0.310808">
        <ele>2488.0</ele>
        <time>2009-05-24T07:37:24Z</time>
      </trkpt>
      <trkpt lat="42.515990" lon="0.310925">
        <ele>2488.0</ele>
        <time>2009-05-24T07:37:35Z</time>
      </trkpt>
      <trkpt lat="42.515963" lon="0.311042">
        <ele>2488.0</ele>
        <time>2009-05-24T07:37:45Z</time>
      </trkpt>
      <trkpt lat="42.515970" lon="0.311167">
        <ele>2494.0</ele>
        <time>2009-05-24T07:38:00Z</time>
      </trkpt>
      <trkpt lat="42.515924" lon="0.311275">
        <ele>2494.0</ele>
        <time>2009-05-24T07:38:10Z</time>
      </trkpt>
      <trkpt lat="42.515963" lon="0.311392">
        <ele>2494.0</ele>
        <time>2009-05-24T07:38:29Z</time>
      </trkpt>
      <trkpt lat="42.515977" lon="0.311518">
        <ele>2494.0</ele>
        <time>2009-05-24T07:38:53Z</time>
      </trkpt>
      <trkpt lat="42.516136" lon="0.311697">
        <ele>2489.0</ele>
        <time>2009-05-24T07:39:40Z</time>
      </trkpt>
      <trkpt lat="42.516223" lon="0.311733">
        <ele>2481.0</ele>
        <time>2009-05-24T07:39:52Z</time>
      </trkpt>
      <trkpt lat="42.516309" lon="0.311653">
        <ele>2475.0</ele>
        <time>2009-05-24T07:40:03Z</time>
      </trkpt>
      <trkpt lat="42.516389" lon="0.311563">
        <ele>2466.0</ele>
        <time>2009-05-24T07:40:09Z</time>
      </trkpt>
      <trkpt lat="42.516455" lon="0.311455">
        <ele>2466.0</ele>
        <time>2009-05-24T07:40:16Z</time>
      </trkpt>
      <trkpt lat="42.516561" lon="0.311455">
        <ele>2459.0</ele>
        <time>2009-05-24T07:40:24Z</time>
      </trkpt>
      <trkpt lat="42.516661" lon="0.311446">
        <ele>2453.0</ele>
        <time>2009-05-24T07:40:38Z</time>
      </trkpt>
      <trkpt lat="42.516754" lon="0.311455">
        <ele>2453.0</ele>
        <time>2009-05-24T07:41:18Z</time>
      </trkpt>
      <trkpt lat="42.516861" lon="0.311419">
        <ele>2447.0</ele>
        <time>2009-05-24T07:41:24Z</time>
      </trkpt>
      <trkpt lat="42.516940" lon="0.311338">
        <ele>2447.0</ele>
        <time>2009-05-24T07:41:30Z</time>
      </trkpt>
      <trkpt lat="42.517027" lon="0.311284">
        <ele>2447.0</ele>
        <time>2009-05-24T07:41:36Z</time>
      </trkpt>
      <trkpt lat="42.517093" lon="0.311194">
        <ele>2440.0</ele>
        <time>2009-05-24T07:41:45Z</time>
      </trkpt>
      <trkpt lat="42.517166" lon="0.311105">
        <ele>2440.0</ele>
        <time>2009-05-24T07:41:53Z</time>
      </trkpt>
      <trkpt lat="42.517266" lon="0.311042">
        <ele>2440.0</ele>
        <time>2009-05-24T07:42:01Z</time>
      </trkpt>
      <trkpt lat="42.517352" lon="0.311006">
        <ele>2440.0</ele>
        <time>2009-05-24T07:42:08Z</time>
      </trkpt>
      <trkpt lat="42.517419" lon="0.310916">
        <ele>2440.0</ele>
        <time>2009-05-24T07:42:16Z</time>
      </trkpt>
      <trkpt lat="42.517512" lon="0.310898">
        <ele>2440.0</ele>
        <time>2009-05-24T07:42:24Z</time>
      </trkpt>
      <trkpt lat="42.517565" lon="0.310799">
        <ele>2433.0</ele>
        <time>2009-05-24T07:42:31Z</time>
      </trkpt>
      <trkpt lat="42.517605" lon="0.310682">
        <ele>2433.0</ele>
        <time>2009-05-24T07:42:39Z</time>
      </trkpt>
      <trkpt lat="42.517685" lon="0.310610">
        <ele>2426.0</ele>
        <time>2009-05-24T07:42:57Z</time>
      </trkpt>
      <trkpt lat="42.517771" lon="0.310575">
        <ele>2426.0</ele>
        <time>2009-05-24T07:43:04Z</time>
      </trkpt>
      <trkpt lat="42.517864" lon="0.310530">
        <ele>2426.0</ele>
        <time>2009-05-24T07:43:13Z</time>
      </trkpt>
      <trkpt lat="42.517957" lon="0.310548">
        <ele>2426.0</ele>
        <time>2009-05-24T07:43:20Z</time>
      </trkpt>
      <trkpt lat="42.518043" lon="0.310601">
        <ele>2426.0</ele>
        <time>2009-05-24T07:43:31Z</time>
      </trkpt>
      <trkpt lat="42.518130" lon="0.310637">
        <ele>2426.0</ele>
        <time>2009-05-24T07:43:39Z</time>
      </trkpt>
      <trkpt lat="42.518203" lon="0.310709">
        <ele>2426.0</ele>
        <time>2009-05-24T07:44:13Z</time>
      </trkpt>
      <trkpt lat="42.518296" lon="0.310727">
        <ele>2426.0</ele>
        <time>2009-05-24T07:44:50Z</time>
      </trkpt>
      <trkpt lat="42.518389" lon="0.310718">
        <ele>2426.0</ele>
        <time>2009-05-24T07:44:57Z</time>
      </trkpt>
      <trkpt lat="42.518482" lon="0.310736">
        <ele>2426.0</ele>
        <time>2009-05-24T07:45:11Z</time>
      </trkpt>
      <trkpt lat="42.518575" lon="0.310763">
        <ele>2426.0</ele>
        <time>2009-05-24T07:45:26Z</time>
      </trkpt>
      <trkpt lat="42.518648" lon="0.310835">
        <ele>2433.0</ele>
        <time>2009-05-24T07:46:09Z</time>
      </trkpt>
      <trkpt lat="42.518715" lon="0.310925">
        <ele>2433.0</ele>
        <time>2009-05-24T07:46:29Z</time>
      </trkpt>
      <trkpt lat="42.518808" lon="0.310952">
        <ele>2433.0</ele>
        <time>2009-05-24T07:46:40Z</time>
      </trkpt>
      <trkpt lat="42.518894" lon="0.311015">
        <ele>2433.0</ele>
        <time>2009-05-24T07:46:53Z</time>
      </trkpt>
      <trkpt lat="42.518960" lon="0.311105">
        <ele>2441.0</ele>
        <time>2009-05-24T07:47:10Z</time>
      </trkpt>
      <trkpt lat="42.519034" lon="0.311185">
        <ele>2449.0</ele>
        <time>2009-05-24T07:47:24Z</time>
      </trkpt>
      <trkpt lat="42.519100" lon="0.311275">
        <ele>2449.0</ele>
        <time>2009-05-24T07:47:39Z</time>
      </trkpt>
      <trkpt lat="42.519186" lon="0.311311">
        <ele>2443.0</ele>
        <time>2009-05-24T07:47:55Z</time>
      </trkpt>
      <trkpt lat="42.519266" lon="0.311374">
        <ele>2450.0</ele>
        <time>2009-05-24T07:48:21Z</time>
      </trkpt>
      <trkpt lat="42.519359" lon="0.311383">
        <ele>2450.0</ele>
        <time>2009-05-24T07:48:34Z</time>
      </trkpt>
      <trkpt lat="42.519406" lon="0.311266">
        <ele>2450.0</ele>
        <time>2009-05-24T07:48:46Z</time>
      </trkpt>
      <trkpt lat="42.519452" lon="0.311149">
        <ele>2450.0</ele>
        <time>2009-05-24T07:48:55Z</time>
      </trkpt>
      <trkpt lat="42.519512" lon="0.311042">
        <ele>2450.0</ele>
        <time>2009-05-24T07:49:07Z</time>
      </trkpt>
      <trkpt lat="42.519565" lon="0.310943">
        <ele>2457.0</ele>
        <time>2009-05-24T07:49:16Z</time>
      </trkpt>
      <trkpt lat="42.519652" lon="0.310898">
        <ele>2457.0</ele>
        <time>2009-05-24T07:49:27Z</time>
      </trkpt>
      <trkpt lat="42.519745" lon="0.310925">
        <ele>2457.0</ele>
        <time>2009-05-24T07:49:43Z</time>
      </trkpt>
      <trkpt lat="42.519831" lon="0.310871">
        <ele>2463.0</ele>
        <time>2009-05-24T07:50:07Z</time>
      </trkpt>
      <trkpt lat="42.519917" lon="0.310835">
        <ele>2463.0</ele>
        <time>2009-05-24T07:50:23Z</time>
      </trkpt>
      <trkpt lat="42.520010" lon="0.310799">
        <ele>2463.0</ele>
        <time>2009-05-24T07:50:40Z</time>
      </trkpt>
      <trkpt lat="42.520103" lon="0.310808">
        <ele>2463.0</ele>
        <time>2009-05-24T07:51:00Z</time>
      </trkpt>
      <trkpt lat="42.520190" lon="0.310853">
        <ele>2463.0</ele>
        <time>2009-05-24T07:51:13Z</time>
      </trkpt>
      <trkpt lat="42.520216" lon="0.310970">
        <ele>2470.0</ele>
        <time>2009-05-24T07:51:27Z</time>
      </trkpt>
      <trkpt lat="42.520230" lon="0.311096">
        <ele>2470.0</ele>
        <time>2009-05-24T07:51:42Z</time>
      </trkpt>
      <trkpt lat="42.520323" lon="0.311078">
        <ele>2478.0</ele>
        <time>2009-05-24T07:52:10Z</time>
      </trkpt>
      <trkpt lat="42.520416" lon="0.311051">
        <ele>2478.0</ele>
        <time>2009-05-24T07:52:24Z</time>
      </trkpt>
      <trkpt lat="42.520509" lon="0.311051">
        <ele>2478.0</ele>
        <time>2009-05-24T07:52:38Z</time>
      </trkpt>
      <trkpt lat="42.520602" lon="0.311069">
        <ele>2478.0</ele>
        <time>2009-05-24T07:52:48Z</time>
      </trkpt>
      <trkpt lat="42.520682" lon="0.311131">
        <ele>2478.0</ele>
        <time>2009-05-24T07:53:00Z</time>
      </trkpt>
      <trkpt lat="42.520768" lon="0.311185">
        <ele>2478.0</ele>
        <time>2009-05-24T07:53:13Z</time>
      </trkpt>
      <trkpt lat="42.520861" lon="0.311194">
        <ele>2478.0</ele>
        <time>2009-05-24T07:53:26Z</time>
      </trkpt>
      <trkpt lat="42.520954" lon="0.311176">
        <ele>2478.0</ele>
        <time>2009-05-24T07:53:54Z</time>
      </trkpt>
      <trkpt lat="42.521047" lon="0.311194">
        <ele>2478.0</ele>
        <time>2009-05-24T07:54:21Z</time>
      </trkpt>
      <trkpt lat="42.521140" lon="0.311185">
        <ele>2478.0</ele>
        <time>2009-05-24T07:54:34Z</time>
      </trkpt>
      <trkpt lat="42.521233" lon="0.311158">
        <ele>2485.0</ele>
        <time>2009-05-24T07:54:46Z</time>
      </trkpt>
      <trkpt lat="42.521313" lon="0.311096">
        <ele>2485.0</ele>
        <time>2009-05-24T07:54:56Z</time>
      </trkpt>
      <trkpt lat="42.521406" lon="0.311069">
        <ele>2490.0</ele>
        <time>2009-05-24T07:55:11Z</time>
      </trkpt>
      <trkpt lat="42.521499" lon="0.311015">
        <ele>2490.0</ele>
        <time>2009-05-24T07:55:27Z</time>
      </trkpt>
      <trkpt lat="42.521585" lon="0.310970">
        <ele>2496.0</ele>
        <time>2009-05-24T07:55:38Z</time>
      </trkpt>
      <trkpt lat="42.521678" lon="0.310979">
        <ele>2488.0</ele>
        <time>2009-05-24T07:55:50Z</time>
      </trkpt>
      <trkpt lat="42.521771" lon="0.310988">
        <ele>2488.0</ele>
        <time>2009-05-24T07:56:02Z</time>
      </trkpt>
      <trkpt lat="42.521864" lon="0.310961">
        <ele>2488.0</ele>
        <time>2009-05-24T07:56:13Z</time>
      </trkpt>
      <trkpt lat="42.521951" lon="0.310907">
        <ele>2488.0</ele>
        <time>2009-05-24T07:56:25Z</time>
      </trkpt>
      <trkpt lat="42.522044" lon="0.310880">
        <ele>2488.0</ele>
        <time>2009-05-24T07:56:36Z</time>
      </trkpt>
      <trkpt lat="42.522130" lon="0.310826">
        <ele>2500.0</ele>
        <time>2009-05-24T07:56:48Z</time>
      </trkpt>
      <trkpt lat="42.522223" lon="0.310799">
        <ele>2500.0</ele>
        <time>2009-05-24T07:57:04Z</time>
      </trkpt>
      <trkpt lat="42.522330" lon="0.310799">
        <ele>2494.0</ele>
        <time>2009-05-24T07:57:36Z</time>
      </trkpt>
      <trkpt lat="42.522416" lon="0.310745">
        <ele>2511.0</ele>
        <time>2009-05-24T07:58:17Z</time>
      </trkpt>
      <trkpt lat="42.522502" lon="0.310709">
        <ele>2511.0</ele>
        <time>2009-05-24T07:58:34Z</time>
      </trkpt>
      <trkpt lat="42.522595" lon="0.310700">
        <ele>2511.0</ele>
        <time>2009-05-24T07:58:51Z</time>
      </trkpt>
      <trkpt lat="42.522688" lon="0.310718">
        <ele>2511.0</ele>
        <time>2009-05-24T07:59:10Z</time>
      </trkpt>
      <trkpt lat="42.522775" lon="0.310763">
        <ele>2511.0</ele>
        <time>2009-05-24T07:59:26Z</time>
      </trkpt>
      <trkpt lat="42.522868" lon="0.310772">
        <ele>2517.0</ele>
        <time>2009-05-24T07:59:47Z</time>
      </trkpt>
      <trkpt lat="42.522961" lon="0.310790">
        <ele>2517.0</ele>
        <time>2009-05-24T08:00:08Z</time>
      </trkpt>
      <trkpt lat="42.523047" lon="0.310826">
        <ele>2522.0</ele>
        <time>2009-05-24T08:00:51Z</time>
      </trkpt>
      <trkpt lat="42.523140" lon="0.310799">
        <ele>2522.0</ele>
        <time>2009-05-24T08:01:11Z</time>
      </trkpt>
      <trkpt lat="42.523220" lon="0.310862">
        <ele>2528.0</ele>
        <time>2009-05-24T08:01:46Z</time>
      </trkpt>
      <trkpt lat="42.523293" lon="0.310952">
        <ele>2528.0</ele>
        <time>2009-05-24T08:02:12Z</time>
      </trkpt>
      <trkpt lat="42.523353" lon="0.311051">
        <ele>2535.0</ele>
        <time>2009-05-24T08:02:34Z</time>
      </trkpt>
      <trkpt lat="42.523426" lon="0.311123">
        <ele>2535.0</ele>
        <time>2009-05-24T08:02:50Z</time>
      </trkpt>
      <trkpt lat="42.523492" lon="0.311212">
        <ele>2535.0</ele>
        <time>2009-05-24T08:03:06Z</time>
      </trkpt>
      <trkpt lat="42.523566" lon="0.311284">
        <ele>2535.0</ele>
        <time>2009-05-24T08:03:32Z</time>
      </trkpt>
      <trkpt lat="42.523652" lon="0.311329">
        <ele>2545.0</ele>
        <time>2009-05-24T08:04:03Z</time>
      </trkpt>
      <trkpt lat="42.523738" lon="0.311365">
        <ele>2545.0</ele>
        <time>2009-05-24T08:04:26Z</time>
      </trkpt>
      <trkpt lat="42.523825" lon="0.311410">
        <ele>2545.0</ele>
        <time>2009-05-24T08:04:50Z</time>
      </trkpt>
      <trkpt lat="42.523911" lon="0.311455">
        <ele>2551.0</ele>
        <time>2009-05-24T08:05:24Z</time>
      </trkpt>
      <trkpt lat="42.524004" lon="0.311482">
        <ele>2551.0</ele>
        <time>2009-05-24T08:05:52Z</time>
      </trkpt>
      <trkpt lat="42.524097" lon="0.311500">
        <ele>2551.0</ele>
        <time>2009-05-24T08:06:15Z</time>
      </trkpt>
      <trkpt lat="42.524183" lon="0.311545">
        <ele>2551.0</ele>
        <time>2009-05-24T08:06:43Z</time>
      </trkpt>
      <trkpt lat="42.524277" lon="0.311563">
        <ele>2560.0</ele>
        <time>2009-05-24T08:07:09Z</time>
      </trkpt>
      <trkpt lat="42.524363" lon="0.311608">
        <ele>2565.0</ele>
        <time>2009-05-24T08:07:40Z</time>
      </trkpt>
      <trkpt lat="42.524376" lon="0.311733">
        <ele>2571.0</ele>
        <time>2009-05-24T08:08:41Z</time>
      </trkpt>
      <trkpt lat="42.524449" lon="0.311814">
        <ele>2571.0</ele>
        <time>2009-05-24T08:09:29Z</time>
      </trkpt>
      <trkpt lat="42.524516" lon="0.311904">
        <ele>2587.0</ele>
        <time>2009-05-24T08:10:18Z</time>
      </trkpt>
      <trkpt lat="42.524609" lon="0.311904">
        <ele>2587.0</ele>
        <time>2009-05-24T08:10:41Z</time>
      </trkpt>
      <trkpt lat="42.524702" lon="0.311886">
        <ele>2587.0</ele>
        <time>2009-05-24T08:11:07Z</time>
      </trkpt>
      <trkpt lat="42.524775" lon="0.311958">
        <ele>2587.0</ele>
        <time>2009-05-24T08:11:26Z</time>
      </trkpt>
      <trkpt lat="42.524801" lon="0.312075">
        <ele>2594.0</ele>
        <time>2009-05-24T08:12:51Z</time>
      </trkpt>
      <trkpt lat="42.524795" lon="0.312200">
        <ele>2601.0</ele>
        <time>2009-05-24T08:13:38Z</time>
      </trkpt>
      <trkpt lat="42.524762" lon="0.312317">
        <ele>2606.0</ele>
        <time>2009-05-24T08:13:55Z</time>
      </trkpt>
      <trkpt lat="42.524762" lon="0.312452">
        <ele>2606.0</ele>
        <time>2009-05-24T08:14:11Z</time>
      </trkpt>
      <trkpt lat="42.524795" lon="0.312569">
        <ele>2606.0</ele>
        <time>2009-05-24T08:14:36Z</time>
      </trkpt>
      <trkpt lat="42.524782" lon="0.312695">
        <ele>2606.0</ele>
        <time>2009-05-24T08:16:04Z</time>
      </trkpt>
      <trkpt lat="42.524768" lon="0.312820">
        <ele>2606.0</ele>
        <time>2009-05-24T08:25:58Z</time>
      </trkpt>
      <trkpt lat="42.524742" lon="0.312937">
        <ele>2606.0</ele>
        <time>2009-05-24T08:26:35Z</time>
      </trkpt>
      <trkpt lat="42.524702" lon="0.313054">
        <ele>2606.0</ele>
        <time>2009-05-24T08:27:06Z</time>
      </trkpt>
      <trkpt lat="42.524649" lon="0.313153">
        <ele>2596.0</ele>
        <time>2009-05-24T08:27:57Z</time>
      </trkpt>
      <trkpt lat="42.524629" lon="0.313278">
        <ele>2602.0</ele>
        <time>2009-05-24T08:31:03Z</time>
      </trkpt>
      <trkpt lat="42.524695" lon="0.313368">
        <ele>2586.0</ele>
        <time>2009-05-24T08:32:07Z</time>
      </trkpt>
      <trkpt lat="42.524768" lon="0.313458">
        <ele>2578.0</ele>
        <time>2009-05-24T08:32:23Z</time>
      </trkpt>
      <trkpt lat="42.524855" lon="0.313530">
        <ele>2578.0</ele>
        <time>2009-05-24T08:32:41Z</time>
      </trkpt>
      <trkpt lat="42.524928" lon="0.313602">
        <ele>2569.0</ele>
        <time>2009-05-24T08:32:47Z</time>
      </trkpt>
      <trkpt lat="42.525001" lon="0.313683">
        <ele>2562.0</ele>
        <time>2009-05-24T08:32:56Z</time>
      </trkpt>
      <trkpt lat="42.525054" lon="0.313799">
        <ele>2554.0</ele>
        <time>2009-05-24T08:33:02Z</time>
      </trkpt>
      <trkpt lat="42.525140" lon="0.313862">
        <ele>2545.0</ele>
        <time>2009-05-24T08:33:13Z</time>
      </trkpt>
      <trkpt lat="42.525247" lon="0.313916">
        <ele>2518.0</ele>
        <time>2009-05-24T08:33:45Z</time>
      </trkpt>
      <trkpt lat="42.525333" lon="0.313871">
        <ele>2518.0</ele>
        <time>2009-05-24T08:34:09Z</time>
      </trkpt>
      <trkpt lat="42.525426" lon="0.313889">
        <ele>2518.0</ele>
        <time>2009-05-24T08:34:18Z</time>
      </trkpt>
      <trkpt lat="42.525519" lon="0.313916">
        <ele>2518.0</ele>
        <time>2009-05-24T08:34:23Z</time>
      </trkpt>
      <trkpt lat="42.525586" lon="0.314006">
        <ele>2518.0</ele>
        <time>2009-05-24T08:34:27Z</time>
      </trkpt>
      <trkpt lat="42.525652" lon="0.314114">
        <ele>2507.0</ele>
        <time>2009-05-24T08:34:32Z</time>
      </trkpt>
      <trkpt lat="42.525725" lon="0.314195">
        <ele>2499.0</ele>
        <time>2009-05-24T08:34:38Z</time>
      </trkpt>
      <trkpt lat="42.525798" lon="0.314267">
        <ele>2499.0</ele>
        <time>2009-05-24T08:34:52Z</time>
      </trkpt>
      <trkpt lat="42.525851" lon="0.314365">
        <ele>2499.0</ele>
        <time>2009-05-24T08:35:32Z</time>
      </trkpt>
      <trkpt lat="42.525938" lon="0.314419">
        <ele>2492.0</ele>
        <time>2009-05-24T08:35:38Z</time>
      </trkpt>
      <trkpt lat="42.526024" lon="0.314464">
        <ele>2492.0</ele>
        <time>2009-05-24T08:35:42Z</time>
      </trkpt>
      <trkpt lat="42.526130" lon="0.314500">
        <ele>2485.0</ele>
        <time>2009-05-24T08:35:46Z</time>
      </trkpt>
      <trkpt lat="42.526217" lon="0.314545">
        <ele>2485.0</ele>
        <time>2009-05-24T08:35:54Z</time>
      </trkpt>
      <trkpt lat="42.526310" lon="0.314599">
        <ele>2485.0</ele>
        <time>2009-05-24T08:36:03Z</time>
      </trkpt>
      <trkpt lat="42.526403" lon="0.314626">
        <ele>2485.0</ele>
        <time>2009-05-24T08:36:17Z</time>
      </trkpt>
      <trkpt lat="42.526502" lon="0.314653">
        <ele>2485.0</ele>
        <time>2009-05-24T08:36:29Z</time>
      </trkpt>
      <trkpt lat="42.526589" lon="0.314689">
        <ele>2485.0</ele>
        <time>2009-05-24T08:36:51Z</time>
      </trkpt>
      <trkpt lat="42.526662" lon="0.314761">
        <ele>2492.0</ele>
        <time>2009-05-24T08:37:02Z</time>
      </trkpt>
      <trkpt lat="42.526735" lon="0.314833">
        <ele>2492.0</ele>
        <time>2009-05-24T08:37:19Z</time>
      </trkpt>
      <trkpt lat="42.526821" lon="0.314877">
        <ele>2492.0</ele>
        <time>2009-05-24T08:37:34Z</time>
      </trkpt>
      <trkpt lat="42.526908" lon="0.314913">
        <ele>2486.0</ele>
        <time>2009-05-24T08:37:46Z</time>
      </trkpt>
      <trkpt lat="42.526994" lon="0.314949">
        <ele>2486.0</ele>
        <time>2009-05-24T08:37:57Z</time>
      </trkpt>
      <trkpt lat="42.527087" lon="0.314976">
        <ele>2486.0</ele>
        <time>2009-05-24T08:38:08Z</time>
      </trkpt>
      <trkpt lat="42.527187" lon="0.315003">
        <ele>2486.0</ele>
        <time>2009-05-24T08:38:19Z</time>
      </trkpt>
      <trkpt lat="42.527280" lon="0.315030">
        <ele>2486.0</ele>
        <time>2009-05-24T08:38:28Z</time>
      </trkpt>
      <trkpt lat="42.527373" lon="0.315057">
        <ele>2486.0</ele>
        <time>2009-05-24T08:38:37Z</time>
      </trkpt>
      <trkpt lat="42.527466" lon="0.315075">
        <ele>2486.0</ele>
        <time>2009-05-24T08:38:47Z</time>
      </trkpt>
      <trkpt lat="42.527552" lon="0.315111">
        <ele>2486.0</ele>
        <time>2009-05-24T08:38:56Z</time>
      </trkpt>
      <trkpt lat="42.527639" lon="0.315147">
        <ele>2486.0</ele>
        <time>2009-05-24T08:39:08Z</time>
      </trkpt>
      <trkpt lat="42.527725" lon="0.315192">
        <ele>2486.0</ele>
        <time>2009-05-24T08:39:24Z</time>
      </trkpt>
      <trkpt lat="42.527811" lon="0.315228">
        <ele>2492.0</ele>
        <time>2009-05-24T08:39:39Z</time>
      </trkpt>
      <trkpt lat="42.527884" lon="0.315327">
        <ele>2492.0</ele>
        <time>2009-05-24T08:40:06Z</time>
      </trkpt>
      <trkpt lat="42.527918" lon="0.315443">
        <ele>2492.0</ele>
        <time>2009-05-24T08:40:30Z</time>
      </trkpt>
      <trkpt lat="42.527978" lon="0.315542">
        <ele>2492.0</ele>
        <time>2009-05-24T08:40:42Z</time>
      </trkpt>
      <trkpt lat="42.528044" lon="0.315632">
        <ele>2492.0</ele>
        <time>2009-05-24T08:40:54Z</time>
      </trkpt>
      <trkpt lat="42.528117" lon="0.315722">
        <ele>2492.0</ele>
        <time>2009-05-24T08:41:09Z</time>
      </trkpt>
      <trkpt lat="42.528190" lon="0.315794">
        <ele>2492.0</ele>
        <time>2009-05-24T08:41:25Z</time>
      </trkpt>
      <trkpt lat="42.528237" lon="0.315902">
        <ele>2498.0</ele>
        <time>2009-05-24T08:41:49Z</time>
      </trkpt>
      <trkpt lat="42.528323" lon="0.315937">
        <ele>2498.0</ele>
        <time>2009-05-24T08:42:16Z</time>
      </trkpt>
      <trkpt lat="42.528416" lon="0.315929">
        <ele>2498.0</ele>
        <time>2009-05-24T08:44:02Z</time>
      </trkpt>
      <trkpt lat="42.528456" lon="0.316045">
        <ele>2507.0</ele>
        <time>2009-05-24T08:44:52Z</time>
      </trkpt>
      <trkpt lat="42.528589" lon="0.316198">
        <ele>2512.0</ele>
        <time>2009-05-24T08:46:25Z</time>
      </trkpt>
      <trkpt lat="42.528682" lon="0.316171">
        <ele>2518.0</ele>
        <time>2009-05-24T08:46:43Z</time>
      </trkpt>
      <trkpt lat="42.528775" lon="0.316135">
        <ele>2518.0</ele>
        <time>2009-05-24T08:47:01Z</time>
      </trkpt>
      <trkpt lat="42.528868" lon="0.316099">
        <ele>2525.0</ele>
        <time>2009-05-24T08:47:21Z</time>
      </trkpt>
      <trkpt lat="42.528941" lon="0.316027">
        <ele>2525.0</ele>
        <time>2009-05-24T08:47:32Z</time>
      </trkpt>
      <trkpt lat="42.529034" lon="0.316018">
        <ele>2525.0</ele>
        <time>2009-05-24T08:48:36Z</time>
      </trkpt>
      <trkpt lat="42.529127" lon="0.315991">
        <ele>2525.0</ele>
        <time>2009-05-24T08:48:57Z</time>
      </trkpt>
      <trkpt lat="42.529213" lon="0.316027">
        <ele>2517.0</ele>
        <time>2009-05-24T08:50:10Z</time>
      </trkpt>
      <trkpt lat="42.529300" lon="0.316081">
        <ele>2517.0</ele>
        <time>2009-05-24T08:50:23Z</time>
      </trkpt>
      <trkpt lat="42.529326" lon="0.316198">
        <ele>2517.0</ele>
        <time>2009-05-24T08:50:59Z</time>
      </trkpt>
      <trkpt lat="42.529413" lon="0.316288">
        <ele>2511.0</ele>
        <time>2009-05-24T08:51:11Z</time>
      </trkpt>
      <trkpt lat="42.529499" lon="0.316252">
        <ele>2511.0</ele>
        <time>2009-05-24T08:52:15Z</time>
      </trkpt>
      <trkpt lat="42.529546" lon="0.316144">
        <ele>2503.0</ele>
        <time>2009-05-24T08:52:34Z</time>
      </trkpt>
      <trkpt lat="42.529632" lon="0.316090">
        <ele>2503.0</ele>
        <time>2009-05-24T08:52:56Z</time>
      </trkpt>
      <trkpt lat="42.529718" lon="0.316054">
        <ele>2494.0</ele>
        <time>2009-05-24T08:53:00Z</time>
      </trkpt>
      <trkpt lat="42.529811" lon="0.316027">
        <ele>2494.0</ele>
        <time>2009-05-24T08:53:05Z</time>
      </trkpt>
      <trkpt lat="42.529904" lon="0.316045">
        <ele>2494.0</ele>
        <time>2009-05-24T08:53:30Z</time>
      </trkpt>
      <trkpt lat="42.529984" lon="0.315982">
        <ele>2483.0</ele>
        <time>2009-05-24T08:54:03Z</time>
      </trkpt>
      <trkpt lat="42.530057" lon="0.315893">
        <ele>2483.0</ele>
        <time>2009-05-24T08:54:18Z</time>
      </trkpt>
      <trkpt lat="42.530130" lon="0.315821">
        <ele>2483.0</ele>
        <time>2009-05-24T08:54:31Z</time>
      </trkpt>
      <trkpt lat="42.530210" lon="0.315731">
        <ele>2483.0</ele>
        <time>2009-05-24T08:54:42Z</time>
      </trkpt>
      <trkpt lat="42.530290" lon="0.315668">
        <ele>2477.0</ele>
        <time>2009-05-24T08:54:53Z</time>
      </trkpt>
      <trkpt lat="42.530383" lon="0.315605">
        <ele>2477.0</ele>
        <time>2009-05-24T08:55:04Z</time>
      </trkpt>
      <trkpt lat="42.530469" lon="0.315560">
        <ele>2477.0</ele>
        <time>2009-05-24T08:55:13Z</time>
      </trkpt>
      <trkpt lat="42.530536" lon="0.315470">
        <ele>2477.0</ele>
        <time>2009-05-24T08:55:23Z</time>
      </trkpt>
      <trkpt lat="42.530615" lon="0.315398">
        <ele>2477.0</ele>
        <time>2009-05-24T08:55:51Z</time>
      </trkpt>
      <trkpt lat="42.530688" lon="0.315318">
        <ele>2472.0</ele>
        <time>2009-05-24T08:55:59Z</time>
      </trkpt>
      <trkpt lat="42.530761" lon="0.315237">
        <ele>2472.0</ele>
        <time>2009-05-24T08:56:05Z</time>
      </trkpt>
      <trkpt lat="42.530828" lon="0.315129">
        <ele>2472.0</ele>
        <time>2009-05-24T08:56:11Z</time>
      </trkpt>
      <trkpt lat="42.530908" lon="0.315066">
        <ele>2464.0</ele>
        <time>2009-05-24T08:56:18Z</time>
      </trkpt>
      <trkpt lat="42.530981" lon="0.314985">
        <ele>2464.0</ele>
        <time>2009-05-24T08:56:23Z</time>
      </trkpt>
      <trkpt lat="42.531054" lon="0.314886">
        <ele>2464.0</ele>
        <time>2009-05-24T08:56:32Z</time>
      </trkpt>
      <trkpt lat="42.531133" lon="0.314797">
        <ele>2458.0</ele>
        <time>2009-05-24T08:56:40Z</time>
      </trkpt>
      <trkpt lat="42.531193" lon="0.314698">
        <ele>2458.0</ele>
        <time>2009-05-24T08:56:49Z</time>
      </trkpt>
      <trkpt lat="42.531246" lon="0.314599">
        <ele>2450.0</ele>
        <time>2009-05-24T08:57:02Z</time>
      </trkpt>
      <trkpt lat="42.531333" lon="0.314536">
        <ele>2450.0</ele>
        <time>2009-05-24T08:57:41Z</time>
      </trkpt>
      <trkpt lat="42.531406" lon="0.314464">
        <ele>2450.0</ele>
        <time>2009-05-24T08:57:46Z</time>
      </trkpt>
      <trkpt lat="42.531486" lon="0.314374">
        <ele>2450.0</ele>
        <time>2009-05-24T08:57:51Z</time>
      </trkpt>
      <trkpt lat="42.531565" lon="0.314276">
        <ele>2441.0</ele>
        <time>2009-05-24T08:57:57Z</time>
      </trkpt>
      <trkpt lat="42.531638" lon="0.314186">
        <ele>2441.0</ele>
        <time>2009-05-24T08:58:05Z</time>
      </trkpt>
      <trkpt lat="42.531705" lon="0.314096">
        <ele>2441.0</ele>
        <time>2009-05-24T08:58:12Z</time>
      </trkpt>
      <trkpt lat="42.531778" lon="0.314006">
        <ele>2441.0</ele>
        <time>2009-05-24T08:58:21Z</time>
      </trkpt>
      <trkpt lat="42.531851" lon="0.313934">
        <ele>2441.0</ele>
        <time>2009-05-24T08:58:33Z</time>
      </trkpt>
      <trkpt lat="42.531937" lon="0.313898">
        <ele>2441.0</ele>
        <time>2009-05-24T08:58:54Z</time>
      </trkpt>
      <trkpt lat="42.532024" lon="0.313844">
        <ele>2441.0</ele>
        <time>2009-05-24T08:59:21Z</time>
      </trkpt>
      <trkpt lat="42.532070" lon="0.313737">
        <ele>2441.0</ele>
        <time>2009-05-24T08:59:30Z</time>
      </trkpt>
      <trkpt lat="42.532143" lon="0.313638">
        <ele>2441.0</ele>
        <time>2009-05-24T08:59:41Z</time>
      </trkpt>
      <trkpt lat="42.532230" lon="0.313566">
        <ele>2441.0</ele>
        <time>2009-05-24T08:59:51Z</time>
      </trkpt>
      <trkpt lat="42.532303" lon="0.313494">
        <ele>2441.0</ele>
        <time>2009-05-24T09:00:00Z</time>
      </trkpt>
      <trkpt lat="42.532363" lon="0.313395">
        <ele>2441.0</ele>
        <time>2009-05-24T09:00:08Z</time>
      </trkpt>
      <trkpt lat="42.532436" lon="0.313314">
        <ele>2441.0</ele>
        <time>2009-05-24T09:00:18Z</time>
      </trkpt>
      <trkpt lat="42.532509" lon="0.313216">
        <ele>2441.0</ele>
        <time>2009-05-24T09:00:27Z</time>
      </trkpt>
      <trkpt lat="42.532582" lon="0.313126">
        <ele>2441.0</ele>
        <time>2009-05-24T09:00:42Z</time>
      </trkpt>
      <trkpt lat="42.532648" lon="0.313036">
        <ele>2441.0</ele>
        <time>2009-05-24T09:00:52Z</time>
      </trkpt>
      <trkpt lat="42.532715" lon="0.312937">
        <ele>2441.0</ele>
        <time>2009-05-24T09:01:02Z</time>
      </trkpt>
      <trkpt lat="42.532788" lon="0.312865">
        <ele>2441.0</ele>
        <time>2009-05-24T09:01:12Z</time>
      </trkpt>
      <trkpt lat="42.532854" lon="0.312775">
        <ele>2441.0</ele>
        <time>2009-05-24T09:01:20Z</time>
      </trkpt>
      <trkpt lat="42.532934" lon="0.312704">
        <ele>2441.0</ele>
        <time>2009-05-24T09:01:29Z</time>
      </trkpt>
      <trkpt lat="42.533020" lon="0.312659">
        <ele>2441.0</ele>
        <time>2009-05-24T09:01:38Z</time>
      </trkpt>
      <trkpt lat="42.533113" lon="0.312596">
        <ele>2441.0</ele>
        <time>2009-05-24T09:01:48Z</time>
      </trkpt>
      <trkpt lat="42.533206" lon="0.312551">
        <ele>2441.0</ele>
        <time>2009-05-24T09:01:57Z</time>
      </trkpt>
      <trkpt lat="42.533286" lon="0.312479">
        <ele>2441.0</ele>
        <time>2009-05-24T09:02:06Z</time>
      </trkpt>
      <trkpt lat="42.533366" lon="0.312407">
        <ele>2441.0</ele>
        <time>2009-05-24T09:02:15Z</time>
      </trkpt>
      <trkpt lat="42.533439" lon="0.312326">
        <ele>2441.0</ele>
        <time>2009-05-24T09:02:24Z</time>
      </trkpt>
      <trkpt lat="42.533512" lon="0.312254">
        <ele>2435.0</ele>
        <time>2009-05-24T09:02:32Z</time>
      </trkpt>
      <trkpt lat="42.533598" lon="0.312200">
        <ele>2435.0</ele>
        <time>2009-05-24T09:02:43Z</time>
      </trkpt>
      <trkpt lat="42.533665" lon="0.312111">
        <ele>2435.0</ele>
        <time>2009-05-24T09:02:51Z</time>
      </trkpt>
      <trkpt lat="42.533711" lon="0.312003">
        <ele>2435.0</ele>
        <time>2009-05-24T09:02:58Z</time>
      </trkpt>
      <trkpt lat="42.533764" lon="0.311904">
        <ele>2427.0</ele>
        <time>2009-05-24T09:03:07Z</time>
      </trkpt>
      <trkpt lat="42.533824" lon="0.311805">
        <ele>2427.0</ele>
        <time>2009-05-24T09:03:17Z</time>
      </trkpt>
      <trkpt lat="42.533877" lon="0.311697">
        <ele>2427.0</ele>
        <time>2009-05-24T09:03:27Z</time>
      </trkpt>
      <trkpt lat="42.533931" lon="0.311599">
        <ele>2427.0</ele>
        <time>2009-05-24T09:03:36Z</time>
      </trkpt>
      <trkpt lat="42.534004" lon="0.311518">
        <ele>2421.0</ele>
        <time>2009-05-24T09:05:48Z</time>
      </trkpt>
      <trkpt lat="42.534097" lon="0.311473">
        <ele>2421.0</ele>
        <time>2009-05-24T09:09:59Z</time>
      </trkpt>
      <trkpt lat="42.534183" lon="0.311437">
        <ele>2421.0</ele>
        <time>2009-05-24T09:10:09Z</time>
      </trkpt>
      <trkpt lat="42.534276" lon="0.311464">
        <ele>2421.0</ele>
        <time>2009-05-24T09:10:23Z</time>
      </trkpt>
      <trkpt lat="42.534342" lon="0.311554">
        <ele>2429.0</ele>
        <time>2009-05-24T09:10:47Z</time>
      </trkpt>
      <trkpt lat="42.534429" lon="0.311608">
        <ele>2429.0</ele>
        <time>2009-05-24T09:11:14Z</time>
      </trkpt>
      <trkpt lat="42.534515" lon="0.311662">
        <ele>2429.0</ele>
        <time>2009-05-24T09:11:33Z</time>
      </trkpt>
      <trkpt lat="42.534608" lon="0.311679">
        <ele>2429.0</ele>
        <time>2009-05-24T09:11:48Z</time>
      </trkpt>
      <trkpt lat="42.534701" lon="0.311670">
        <ele>2429.0</ele>
        <time>2009-05-24T09:12:10Z</time>
      </trkpt>
      <trkpt lat="42.534794" lon="0.311697">
        <ele>2429.0</ele>
        <time>2009-05-24T09:12:24Z</time>
      </trkpt>
      <trkpt lat="42.534887" lon="0.311724">
        <ele>2420.0</ele>
        <time>2009-05-24T09:12:35Z</time>
      </trkpt>
      <trkpt lat="42.534967" lon="0.311662">
        <ele>2414.0</ele>
        <time>2009-05-24T09:12:43Z</time>
      </trkpt>
      <trkpt lat="42.535053" lon="0.311626">
        <ele>2414.0</ele>
        <time>2009-05-24T09:12:53Z</time>
      </trkpt>
      <trkpt lat="42.535087" lon="0.311509">
        <ele>2405.0</ele>
        <time>2009-05-24T09:13:02Z</time>
      </trkpt>
      <trkpt lat="42.535140" lon="0.311392">
        <ele>2405.0</ele>
        <time>2009-05-24T09:13:11Z</time>
      </trkpt>
      <trkpt lat="42.535233" lon="0.311356">
        <ele>2405.0</ele>
        <time>2009-05-24T09:13:22Z</time>
      </trkpt>
      <trkpt lat="42.535266" lon="0.311239">
        <ele>2405.0</ele>
        <time>2009-05-24T09:13:30Z</time>
      </trkpt>
      <trkpt lat="42.535326" lon="0.311140">
        <ele>2399.0</ele>
        <time>2009-05-24T09:13:40Z</time>
      </trkpt>
      <trkpt lat="42.535425" lon="0.311131">
        <ele>2399.0</ele>
        <time>2009-05-24T09:13:56Z</time>
      </trkpt>
      <trkpt lat="42.535518" lon="0.311105">
        <ele>2394.0</ele>
        <time>2009-05-24T09:14:03Z</time>
      </trkpt>
      <trkpt lat="42.535572" lon="0.310997">
        <ele>2394.0</ele>
        <time>2009-05-24T09:14:10Z</time>
      </trkpt>
      <trkpt lat="42.535665" lon="0.310997">
        <ele>2394.0</ele>
        <time>2009-05-24T09:14:17Z</time>
      </trkpt>
      <trkpt lat="42.535758" lon="0.310979">
        <ele>2384.0</ele>
        <time>2009-05-24T09:15:03Z</time>
      </trkpt>
      <trkpt lat="42.535851" lon="0.310988">
        <ele>2384.0</ele>
        <time>2009-05-24T09:15:16Z</time>
      </trkpt>
      <trkpt lat="42.535957" lon="0.310997">
        <ele>2376.0</ele>
        <time>2009-05-24T09:15:28Z</time>
      </trkpt>
      <trkpt lat="42.536050" lon="0.311024">
        <ele>2376.0</ele>
        <time>2009-05-24T09:15:34Z</time>
      </trkpt>
      <trkpt lat="42.536150" lon="0.310997">
        <ele>2364.0</ele>
        <time>2009-05-24T09:15:39Z</time>
      </trkpt>
      <trkpt lat="42.536243" lon="0.311006">
        <ele>2357.0</ele>
        <time>2009-05-24T09:16:26Z</time>
      </trkpt>
      <trkpt lat="42.536342" lon="0.311033">
        <ele>2357.0</ele>
        <time>2009-05-24T09:16:31Z</time>
      </trkpt>
      <trkpt lat="42.536442" lon="0.311060">
        <ele>2343.0</ele>
        <time>2009-05-24T09:16:36Z</time>
      </trkpt>
      <trkpt lat="42.536502" lon="0.310961">
        <ele>2338.0</ele>
        <time>2009-05-24T09:17:11Z</time>
      </trkpt>
      <trkpt lat="42.536601" lon="0.310970">
        <ele>2338.0</ele>
        <time>2009-05-24T09:17:22Z</time>
      </trkpt>
      <trkpt lat="42.536688" lon="0.311006">
        <ele>2338.0</ele>
        <time>2009-05-24T09:17:26Z</time>
      </trkpt>
      <trkpt lat="42.536781" lon="0.311033">
        <ele>2327.0</ele>
        <time>2009-05-24T09:17:38Z</time>
      </trkpt>
      <trkpt lat="42.536880" lon="0.311042">
        <ele>2321.0</ele>
        <time>2009-05-24T09:17:43Z</time>
      </trkpt>
      <trkpt lat="42.536973" lon="0.311033">
        <ele>2314.0</ele>
        <time>2009-05-24T09:17:47Z</time>
      </trkpt>
      <trkpt lat="42.537066" lon="0.310988">
        <ele>2305.0</ele>
        <time>2009-05-24T09:17:54Z</time>
      </trkpt>
      <trkpt lat="42.537153" lon="0.310925">
        <ele>2298.0</ele>
        <time>2009-05-24T09:18:08Z</time>
      </trkpt>
      <trkpt lat="42.537239" lon="0.310871">
        <ele>2298.0</ele>
        <time>2009-05-24T09:18:16Z</time>
      </trkpt>
      <trkpt lat="42.537319" lon="0.310808">
        <ele>2298.0</ele>
        <time>2009-05-24T09:18:24Z</time>
      </trkpt>
      <trkpt lat="42.537385" lon="0.310718">
        <ele>2291.0</ele>
        <time>2009-05-24T09:18:32Z</time>
      </trkpt>
      <trkpt lat="42.537485" lon="0.310718">
        <ele>2291.0</ele>
        <time>2009-05-24T09:18:39Z</time>
      </trkpt>
      <trkpt lat="42.537571" lon="0.310655">
        <ele>2286.0</ele>
        <time>2009-05-24T09:18:47Z</time>
      </trkpt>
      <trkpt lat="42.537638" lon="0.310557">
        <ele>2286.0</ele>
        <time>2009-05-24T09:18:57Z</time>
      </trkpt>
      <trkpt lat="42.537717" lon="0.310467">
        <ele>2279.0</ele>
        <time>2009-05-24T09:19:07Z</time>
      </trkpt>
      <trkpt lat="42.537810" lon="0.310404">
        <ele>2279.0</ele>
        <time>2009-05-24T09:19:16Z</time>
      </trkpt>
      <trkpt lat="42.537883" lon="0.310332">
        <ele>2274.0</ele>
        <time>2009-05-24T09:19:24Z</time>
      </trkpt>
      <trkpt lat="42.537970" lon="0.310296">
        <ele>2274.0</ele>
        <time>2009-05-24T09:19:43Z</time>
      </trkpt>
      <trkpt lat="42.538063" lon="0.310242">
        <ele>2268.0</ele>
        <time>2009-05-24T09:19:50Z</time>
      </trkpt>
      <trkpt lat="42.538143" lon="0.310152">
        <ele>2268.0</ele>
        <time>2009-05-24T09:19:57Z</time>
      </trkpt>
      <trkpt lat="42.538216" lon="0.310080">
        <ele>2259.0</ele>
        <time>2009-05-24T09:20:03Z</time>
      </trkpt>
      <trkpt lat="42.538295" lon="0.310009">
        <ele>2259.0</ele>
        <time>2009-05-24T09:20:09Z</time>
      </trkpt>
      <trkpt lat="42.538375" lon="0.309946">
        <ele>2253.0</ele>
        <time>2009-05-24T09:20:14Z</time>
      </trkpt>
      <trkpt lat="42.538461" lon="0.309865">
        <ele>2253.0</ele>
        <time>2009-05-24T09:20:21Z</time>
      </trkpt>
      <trkpt lat="42.538534" lon="0.309766">
        <ele>2253.0</ele>
        <time>2009-05-24T09:20:30Z</time>
      </trkpt>
      <trkpt lat="42.538594" lon="0.309667">
        <ele>2253.0</ele>
        <time>2009-05-24T09:20:38Z</time>
      </trkpt>
      <trkpt lat="42.538647" lon="0.309559">
        <ele>2245.0</ele>
        <time>2009-05-24T09:20:45Z</time>
      </trkpt>
      <trkpt lat="42.538707" lon="0.309461">
        <ele>2245.0</ele>
        <time>2009-05-24T09:20:54Z</time>
      </trkpt>
      <trkpt lat="42.538787" lon="0.309380">
        <ele>2240.0</ele>
        <time>2009-05-24T09:21:02Z</time>
      </trkpt>
      <trkpt lat="42.538873" lon="0.309308">
        <ele>2240.0</ele>
        <time>2009-05-24T09:21:08Z</time>
      </trkpt>
      <trkpt lat="42.538966" lon="0.309263">
        <ele>2233.0</ele>
        <time>2009-05-24T09:21:16Z</time>
      </trkpt>
      <trkpt lat="42.539053" lon="0.309209">
        <ele>2233.0</ele>
        <time>2009-05-24T09:21:23Z</time>
      </trkpt>
      <trkpt lat="42.539146" lon="0.309155">
        <ele>2233.0</ele>
        <time>2009-05-24T09:21:32Z</time>
      </trkpt>
      <trkpt lat="42.539239" lon="0.309101">
        <ele>2233.0</ele>
        <time>2009-05-24T09:21:40Z</time>
      </trkpt>
      <trkpt lat="42.539318" lon="0.309029">
        <ele>2226.0</ele>
        <time>2009-05-24T09:21:47Z</time>
      </trkpt>
      <trkpt lat="42.539398" lon="0.308958">
        <ele>2226.0</ele>
        <time>2009-05-24T09:21:56Z</time>
      </trkpt>
      <trkpt lat="42.539451" lon="0.308850">
        <ele>2214.0</ele>
        <time>2009-05-24T09:22:05Z</time>
      </trkpt>
      <trkpt lat="42.539491" lon="0.308724">
        <ele>2214.0</ele>
        <time>2009-05-24T09:22:14Z</time>
      </trkpt>
      <trkpt lat="42.539571" lon="0.308661">
        <ele>2214.0</ele>
        <time>2009-05-24T09:22:23Z</time>
      </trkpt>
      <trkpt lat="42.539664" lon="0.308625">
        <ele>2207.0</ele>
        <time>2009-05-24T09:22:31Z</time>
      </trkpt>
      <trkpt lat="42.539763" lon="0.308607">
        <ele>2198.0</ele>
        <time>2009-05-24T09:22:40Z</time>
      </trkpt>
      <trkpt lat="42.539856" lon="0.308580">
        <ele>2198.0</ele>
        <time>2009-05-24T09:22:50Z</time>
      </trkpt>
      <trkpt lat="42.539943" lon="0.308517">
        <ele>2198.0</ele>
        <time>2009-05-24T09:23:01Z</time>
      </trkpt>
      <trkpt lat="42.540016" lon="0.308419">
        <ele>2198.0</ele>
        <time>2009-05-24T09:23:12Z</time>
      </trkpt>
      <trkpt lat="42.540069" lon="0.308311">
        <ele>2198.0</ele>
        <time>2009-05-24T09:23:19Z</time>
      </trkpt>
      <trkpt lat="42.540149" lon="0.308239">
        <ele>2198.0</ele>
        <time>2009-05-24T09:23:26Z</time>
      </trkpt>
      <trkpt lat="42.540209" lon="0.308140">
        <ele>2191.0</ele>
        <time>2009-05-24T09:23:33Z</time>
      </trkpt>
      <trkpt lat="42.540275" lon="0.308050">
        <ele>2191.0</ele>
        <time>2009-05-24T09:23:40Z</time>
      </trkpt>
      <trkpt lat="42.540361" lon="0.307996">
        <ele>2186.0</ele>
        <time>2009-05-24T09:23:47Z</time>
      </trkpt>
      <trkpt lat="42.540434" lon="0.307925">
        <ele>2186.0</ele>
        <time>2009-05-24T09:23:54Z</time>
      </trkpt>
      <trkpt lat="42.540514" lon="0.307844">
        <ele>2177.0</ele>
        <time>2009-05-24T09:24:01Z</time>
      </trkpt>
      <trkpt lat="42.540594" lon="0.307754">
        <ele>2169.0</ele>
        <time>2009-05-24T09:24:09Z</time>
      </trkpt>
      <trkpt lat="42.540667" lon="0.307673">
        <ele>2169.0</ele>
        <time>2009-05-24T09:24:16Z</time>
      </trkpt>
      <trkpt lat="42.540727" lon="0.307574">
        <ele>2169.0</ele>
        <time>2009-05-24T09:24:22Z</time>
      </trkpt>
      <trkpt lat="42.540800" lon="0.307484">
        <ele>2161.0</ele>
        <time>2009-05-24T09:24:31Z</time>
      </trkpt>
      <trkpt lat="42.540853" lon="0.307368">
        <ele>2161.0</ele>
        <time>2009-05-24T09:24:39Z</time>
      </trkpt>
      <trkpt lat="42.540899" lon="0.307260">
        <ele>2161.0</ele>
        <time>2009-05-24T09:24:46Z</time>
      </trkpt>
      <trkpt lat="42.540966" lon="0.307170">
        <ele>2161.0</ele>
        <time>2009-05-24T09:24:55Z</time>
      </trkpt>
      <trkpt lat="42.541039" lon="0.307098">
        <ele>2161.0</ele>
        <time>2009-05-24T09:25:03Z</time>
      </trkpt>
      <trkpt lat="42.541099" lon="0.306999">
        <ele>2161.0</ele>
        <time>2009-05-24T09:25:10Z</time>
      </trkpt>
      <trkpt lat="42.541152" lon="0.306900">
        <ele>2161.0</ele>
        <time>2009-05-24T09:25:18Z</time>
      </trkpt>
      <trkpt lat="42.541238" lon="0.306847">
        <ele>2161.0</ele>
        <time>2009-05-24T09:25:28Z</time>
      </trkpt>
      <trkpt lat="42.541331" lon="0.306811">
        <ele>2150.0</ele>
        <time>2009-05-24T09:25:37Z</time>
      </trkpt>
      <trkpt lat="42.541418" lon="0.306775">
        <ele>2150.0</ele>
        <time>2009-05-24T09:25:44Z</time>
      </trkpt>
      <trkpt lat="42.541504" lon="0.306721">
        <ele>2144.0</ele>
        <time>2009-05-24T09:25:51Z</time>
      </trkpt>
      <trkpt lat="42.541577" lon="0.306640">
        <ele>2144.0</ele>
        <time>2009-05-24T09:25:59Z</time>
      </trkpt>
      <trkpt lat="42.541650" lon="0.306559">
        <ele>2151.0</ele>
        <time>2009-05-24T09:26:07Z</time>
      </trkpt>
      <trkpt lat="42.541730" lon="0.306487">
        <ele>2144.0</ele>
        <time>2009-05-24T09:26:14Z</time>
      </trkpt>
      <trkpt lat="42.541783" lon="0.306379">
        <ele>2144.0</ele>
        <time>2009-05-24T09:26:23Z</time>
      </trkpt>
      <trkpt lat="42.541836" lon="0.306272">
        <ele>2144.0</ele>
        <time>2009-05-24T09:26:32Z</time>
      </trkpt>
      <trkpt lat="42.541922" lon="0.306218">
        <ele>2138.0</ele>
        <time>2009-05-24T09:26:41Z</time>
      </trkpt>
      <trkpt lat="42.542022" lon="0.306209">
        <ele>2138.0</ele>
        <time>2009-05-24T09:26:51Z</time>
      </trkpt>
      <trkpt lat="42.542115" lon="0.306164">
        <ele>2138.0</ele>
        <time>2009-05-24T09:26:59Z</time>
      </trkpt>
      <trkpt lat="42.542215" lon="0.306128">
        <ele>2132.0</ele>
        <time>2009-05-24T09:27:07Z</time>
      </trkpt>
      <trkpt lat="42.542314" lon="0.306101">
        <ele>2132.0</ele>
        <time>2009-05-24T09:27:15Z</time>
      </trkpt>
      <trkpt lat="42.542407" lon="0.306092">
        <ele>2126.0</ele>
        <time>2009-05-24T09:27:24Z</time>
      </trkpt>
      <trkpt lat="42.542507" lon="0.306092">
        <ele>2126.0</ele>
        <time>2009-05-24T09:27:34Z</time>
      </trkpt>
      <trkpt lat="42.542607" lon="0.306119">
        <ele>2126.0</ele>
        <time>2009-05-24T09:27:44Z</time>
      </trkpt>
      <trkpt lat="42.542700" lon="0.306128">
        <ele>2126.0</ele>
        <time>2009-05-24T09:27:53Z</time>
      </trkpt>
      <trkpt lat="42.542786" lon="0.306173">
        <ele>2126.0</ele>
        <time>2009-05-24T09:28:02Z</time>
      </trkpt>
      <trkpt lat="42.542879" lon="0.306182">
        <ele>2126.0</ele>
        <time>2009-05-24T09:28:13Z</time>
      </trkpt>
      <trkpt lat="42.542972" lon="0.306209">
        <ele>2121.0</ele>
        <time>2009-05-24T09:28:22Z</time>
      </trkpt>
      <trkpt lat="42.543072" lon="0.306236">
        <ele>2121.0</ele>
        <time>2009-05-24T09:28:33Z</time>
      </trkpt>
      <trkpt lat="42.543158" lon="0.306182">
        <ele>2129.0</ele>
        <time>2009-05-24T09:28:47Z</time>
      </trkpt>
      <trkpt lat="42.543244" lon="0.306128">
        <ele>2129.0</ele>
        <time>2009-05-24T09:29:18Z</time>
      </trkpt>
      <trkpt lat="42.543337" lon="0.306119">
        <ele>2129.0</ele>
        <time>2009-05-24T09:29:32Z</time>
      </trkpt>
      <trkpt lat="42.543424" lon="0.306065">
        <ele>2129.0</ele>
        <time>2009-05-24T09:29:42Z</time>
      </trkpt>
      <trkpt lat="42.543563" lon="0.306011">
        <ele>2124.0</ele>
        <time>2009-05-24T09:43:46Z</time>
      </trkpt>
      <trkpt lat="42.543663" lon="0.306002">
        <ele>2124.0</ele>
        <time>2009-05-24T09:44:07Z</time>
      </trkpt>
      <trkpt lat="42.543749" lon="0.305966">
        <ele>2124.0</ele>
        <time>2009-05-24T09:44:22Z</time>
      </trkpt>
      <trkpt lat="42.543836" lon="0.305921">
        <ele>2124.0</ele>
        <time>2009-05-24T09:44:42Z</time>
      </trkpt>
      <trkpt lat="42.543922" lon="0.305867">
        <ele>2124.0</ele>
        <time>2009-05-24T09:44:54Z</time>
      </trkpt>
      <trkpt lat="42.544008" lon="0.305813">
        <ele>2124.0</ele>
        <time>2009-05-24T09:45:05Z</time>
      </trkpt>
      <trkpt lat="42.544088" lon="0.305751">
        <ele>2117.0</ele>
        <time>2009-05-24T09:45:18Z</time>
      </trkpt>
      <trkpt lat="42.544181" lon="0.305751">
        <ele>2117.0</ele>
        <time>2009-05-24T09:45:32Z</time>
      </trkpt>
      <trkpt lat="42.544274" lon="0.305778">
        <ele>2117.0</ele>
        <time>2009-05-24T09:45:46Z</time>
      </trkpt>
      <trkpt lat="42.544374" lon="0.305787">
        <ele>2117.0</ele>
        <time>2009-05-24T09:46:01Z</time>
      </trkpt>
      <trkpt lat="42.544467" lon="0.305778">
        <ele>2117.0</ele>
        <time>2009-05-24T09:46:15Z</time>
      </trkpt>
      <trkpt lat="42.544560" lon="0.305769">
        <ele>2117.0</ele>
        <time>2009-05-24T09:46:23Z</time>
      </trkpt>
      <trkpt lat="42.544659" lon="0.305742">
        <ele>2109.0</ele>
        <time>2009-05-24T09:46:30Z</time>
      </trkpt>
      <trkpt lat="42.544746" lon="0.305706">
        <ele>2103.0</ele>
        <time>2009-05-24T09:46:36Z</time>
      </trkpt>
      <trkpt lat="42.544839" lon="0.305652">
        <ele>2097.0</ele>
        <time>2009-05-24T09:46:43Z</time>
      </trkpt>
      <trkpt lat="42.544932" lon="0.305598">
        <ele>2097.0</ele>
        <time>2009-05-24T09:46:49Z</time>
      </trkpt>
      <trkpt lat="42.545031" lon="0.305553">
        <ele>2086.0</ele>
        <time>2009-05-24T09:46:55Z</time>
      </trkpt>
      <trkpt lat="42.545118" lon="0.305517">
        <ele>2086.0</ele>
        <time>2009-05-24T09:47:00Z</time>
      </trkpt>
      <trkpt lat="42.545204" lon="0.305472">
        <ele>2075.0</ele>
        <time>2009-05-24T09:47:16Z</time>
      </trkpt>
      <trkpt lat="42.545284" lon="0.305409">
        <ele>2075.0</ele>
        <time>2009-05-24T09:47:28Z</time>
      </trkpt>
      <trkpt lat="42.545357" lon="0.305337">
        <ele>2069.0</ele>
        <time>2009-05-24T09:47:43Z</time>
      </trkpt>
      <trkpt lat="42.545436" lon="0.305274">
        <ele>2069.0</ele>
        <time>2009-05-24T09:47:55Z</time>
      </trkpt>
      <trkpt lat="42.545529" lon="0.305265">
        <ele>2069.0</ele>
        <time>2009-05-24T09:48:06Z</time>
      </trkpt>
      <trkpt lat="42.545616" lon="0.305319">
        <ele>2069.0</ele>
        <time>2009-05-24T09:48:16Z</time>
      </trkpt>
      <trkpt lat="42.545742" lon="0.305292">
        <ele>2069.0</ele>
        <time>2009-05-24T09:49:53Z</time>
      </trkpt>
      <trkpt lat="42.545835" lon="0.305257">
        <ele>2069.0</ele>
        <time>2009-05-24T09:50:04Z</time>
      </trkpt>
      <trkpt lat="42.545928" lon="0.305239">
        <ele>2069.0</ele>
        <time>2009-05-24T09:50:22Z</time>
      </trkpt>
      <trkpt lat="42.546001" lon="0.305149">
        <ele>2069.0</ele>
        <time>2009-05-24T09:50:43Z</time>
      </trkpt>
      <trkpt lat="42.546081" lon="0.305086">
        <ele>2069.0</ele>
        <time>2009-05-24T09:50:51Z</time>
      </trkpt>
      <trkpt lat="42.546167" lon="0.305032">
        <ele>2063.0</ele>
        <time>2009-05-24T09:51:00Z</time>
      </trkpt>
      <trkpt lat="42.546253" lon="0.304960">
        <ele>2063.0</ele>
        <time>2009-05-24T09:51:09Z</time>
      </trkpt>
      <trkpt lat="42.546340" lon="0.304924">
        <ele>2052.0</ele>
        <time>2009-05-24T09:51:16Z</time>
      </trkpt>
      <trkpt lat="42.546433" lon="0.304906">
        <ele>2052.0</ele>
        <time>2009-05-24T09:51:27Z</time>
      </trkpt>
      <trkpt lat="42.546499" lon="0.304807">
        <ele>2052.0</ele>
        <time>2009-05-24T09:51:39Z</time>
      </trkpt>
      <trkpt lat="42.546512" lon="0.304682">
        <ele>2052.0</ele>
        <time>2009-05-24T09:51:54Z</time>
      </trkpt>
      <trkpt lat="42.546559" lon="0.304574">
        <ele>2052.0</ele>
        <time>2009-05-24T09:52:08Z</time>
      </trkpt>
      <trkpt lat="42.546599" lon="0.304457">
        <ele>2052.0</ele>
        <time>2009-05-24T09:52:21Z</time>
      </trkpt>
      <trkpt lat="42.546652" lon="0.304358">
        <ele>2052.0</ele>
        <time>2009-05-24T09:52:41Z</time>
      </trkpt>
      <trkpt lat="42.546738" lon="0.304304">
        <ele>2052.0</ele>
        <time>2009-05-24T09:52:55Z</time>
      </trkpt>
      <trkpt lat="42.546825" lon="0.304250">
        <ele>2052.0</ele>
        <time>2009-05-24T09:53:05Z</time>
      </trkpt>
      <trkpt lat="42.546924" lon="0.304223">
        <ele>2052.0</ele>
        <time>2009-05-24T09:53:13Z</time>
      </trkpt>
      <trkpt lat="42.547017" lon="0.304205">
        <ele>2052.0</ele>
        <time>2009-05-24T09:53:22Z</time>
      </trkpt>
      <trkpt lat="42.547110" lon="0.304179">
        <ele>2052.0</ele>
        <time>2009-05-24T09:53:33Z</time>
      </trkpt>
      <trkpt lat="42.547203" lon="0.304205">
        <ele>2047.0</ele>
        <time>2009-05-24T09:53:43Z</time>
      </trkpt>
      <trkpt lat="42.547296" lon="0.304232">
        <ele>2047.0</ele>
        <time>2009-05-24T09:53:53Z</time>
      </trkpt>
      <trkpt lat="42.547389" lon="0.304259">
        <ele>2042.0</ele>
        <time>2009-05-24T09:54:05Z</time>
      </trkpt>
      <trkpt lat="42.547469" lon="0.304197">
        <ele>2028.0</ele>
        <time>2009-05-24T09:54:28Z</time>
      </trkpt>
      <trkpt lat="42.547569" lon="0.304205">
        <ele>2033.0</ele>
        <time>2009-05-24T09:55:00Z</time>
      </trkpt>
      <trkpt lat="42.547662" lon="0.304250">
        <ele>2033.0</ele>
        <time>2009-05-24T09:55:08Z</time>
      </trkpt>
      <trkpt lat="42.547748" lon="0.304322">
        <ele>2033.0</ele>
        <time>2009-05-24T09:55:22Z</time>
      </trkpt>
      <trkpt lat="42.547821" lon="0.304403">
        <ele>2033.0</ele>
        <time>2009-05-24T09:55:31Z</time>
      </trkpt>
      <trkpt lat="42.547914" lon="0.304439">
        <ele>2033.0</ele>
        <time>2009-05-24T09:55:40Z</time>
      </trkpt>
      <trkpt lat="42.548007" lon="0.304466">
        <ele>2024.0</ele>
        <time>2009-05-24T09:55:49Z</time>
      </trkpt>
      <trkpt lat="42.548087" lon="0.304538">
        <ele>2024.0</ele>
        <time>2009-05-24T09:55:58Z</time>
      </trkpt>
      <trkpt lat="42.548113" lon="0.304655">
        <ele>2013.0</ele>
        <time>2009-05-24T09:56:11Z</time>
      </trkpt>
      <trkpt lat="42.548186" lon="0.304744">
        <ele>2013.0</ele>
        <time>2009-05-24T09:56:19Z</time>
      </trkpt>
      <trkpt lat="42.548246" lon="0.304852">
        <ele>2013.0</ele>
        <time>2009-05-24T09:56:28Z</time>
      </trkpt>
      <trkpt lat="42.548326" lon="0.304915">
        <ele>2013.0</ele>
        <time>2009-05-24T09:56:39Z</time>
      </trkpt>
      <trkpt lat="42.548399" lon="0.305005">
        <ele>2013.0</ele>
        <time>2009-05-24T09:56:50Z</time>
      </trkpt>
      <trkpt lat="42.548492" lon="0.305041">
        <ele>2006.0</ele>
        <time>2009-05-24T09:57:00Z</time>
      </trkpt>
      <trkpt lat="42.548578" lon="0.305095">
        <ele>2006.0</ele>
        <time>2009-05-24T09:57:10Z</time>
      </trkpt>
      <trkpt lat="42.548658" lon="0.305185">
        <ele>2000.0</ele>
        <time>2009-05-24T09:57:20Z</time>
      </trkpt>
      <trkpt lat="42.548738" lon="0.305265">
        <ele>1995.0</ele>
        <time>2009-05-24T09:57:32Z</time>
      </trkpt>
      <trkpt lat="42.548817" lon="0.305346">
        <ele>2003.0</ele>
        <time>2009-05-24T09:57:42Z</time>
      </trkpt>
      <trkpt lat="42.548917" lon="0.305382">
        <ele>2003.0</ele>
        <time>2009-05-24T09:57:52Z</time>
      </trkpt>
      <trkpt lat="42.549003" lon="0.305427">
        <ele>2011.0</ele>
        <time>2009-05-24T09:58:01Z</time>
      </trkpt>
      <trkpt lat="42.549110" lon="0.305427">
        <ele>2011.0</ele>
        <time>2009-05-24T09:58:11Z</time>
      </trkpt>
      <trkpt lat="42.549203" lon="0.305400">
        <ele>2011.0</ele>
        <time>2009-05-24T09:58:21Z</time>
      </trkpt>
      <trkpt lat="42.549296" lon="0.305382">
        <ele>1999.0</ele>
        <time>2009-05-24T09:58:30Z</time>
      </trkpt>
      <trkpt lat="42.549389" lon="0.305346">
        <ele>1999.0</ele>
        <time>2009-05-24T09:58:38Z</time>
      </trkpt>
      <trkpt lat="42.549482" lon="0.305310">
        <ele>1992.0</ele>
        <time>2009-05-24T09:58:46Z</time>
      </trkpt>
      <trkpt lat="42.549575" lon="0.305292">
        <ele>1992.0</ele>
        <time>2009-05-24T09:58:55Z</time>
      </trkpt>
      <trkpt lat="42.549667" lon="0.305265">
        <ele>1987.0</ele>
        <time>2009-05-24T09:59:09Z</time>
      </trkpt>
      <trkpt lat="42.549760" lon="0.305292">
        <ele>1987.0</ele>
        <time>2009-05-24T09:59:24Z</time>
      </trkpt>
      <trkpt lat="42.549853" lon="0.305248">
        <ele>1987.0</ele>
        <time>2009-05-24T10:03:01Z</time>
      </trkpt>
      <trkpt lat="42.549940" lon="0.305310">
        <ele>1978.0</ele>
        <time>2009-05-24T10:03:19Z</time>
      </trkpt>
      <trkpt lat="42.550026" lon="0.305364">
        <ele>1973.0</ele>
        <time>2009-05-24T10:03:36Z</time>
      </trkpt>
      <trkpt lat="42.550119" lon="0.305373">
        <ele>1973.0</ele>
        <time>2009-05-24T10:03:49Z</time>
      </trkpt>
      <trkpt lat="42.550219" lon="0.305400">
        <ele>1965.0</ele>
        <time>2009-05-24T10:04:02Z</time>
      </trkpt>
      <trkpt lat="42.550298" lon="0.305472">
        <ele>1965.0</ele>
        <time>2009-05-24T10:04:13Z</time>
      </trkpt>
      <trkpt lat="42.550372" lon="0.305553">
        <ele>1957.0</ele>
        <time>2009-05-24T10:04:24Z</time>
      </trkpt>
      <trkpt lat="42.550445" lon="0.305643">
        <ele>1957.0</ele>
        <time>2009-05-24T10:04:34Z</time>
      </trkpt>
      <trkpt lat="42.550518" lon="0.305733">
        <ele>1957.0</ele>
        <time>2009-05-24T10:04:43Z</time>
      </trkpt>
      <trkpt lat="42.550591" lon="0.305822">
        <ele>1957.0</ele>
        <time>2009-05-24T10:04:54Z</time>
      </trkpt>
      <trkpt lat="42.550651" lon="0.305930">
        <ele>1957.0</ele>
        <time>2009-05-24T10:05:05Z</time>
      </trkpt>
      <trkpt lat="42.550717" lon="0.306020">
        <ele>1957.0</ele>
        <time>2009-05-24T10:05:16Z</time>
      </trkpt>
      <trkpt lat="42.550770" lon="0.306119">
        <ele>1957.0</ele>
        <time>2009-05-24T10:05:30Z</time>
      </trkpt>
      <trkpt lat="42.550836" lon="0.306209">
        <ele>1957.0</ele>
        <time>2009-05-24T10:05:39Z</time>
      </trkpt>
      <trkpt lat="42.550903" lon="0.306299">
        <ele>1957.0</ele>
        <time>2009-05-24T10:05:50Z</time>
      </trkpt>
      <trkpt lat="42.550969" lon="0.306397">
        <ele>1951.0</ele>
        <time>2009-05-24T10:06:02Z</time>
      </trkpt>
      <trkpt lat="42.551036" lon="0.306487">
        <ele>1951.0</ele>
        <time>2009-05-24T10:06:16Z</time>
      </trkpt>
      <trkpt lat="42.551102" lon="0.306577">
        <ele>1951.0</ele>
        <time>2009-05-24T10:06:28Z</time>
      </trkpt>
      <trkpt lat="42.551162" lon="0.306685">
        <ele>1951.0</ele>
        <time>2009-05-24T10:06:39Z</time>
      </trkpt>
      <trkpt lat="42.551228" lon="0.306775">
        <ele>1944.0</ele>
        <time>2009-05-24T10:06:51Z</time>
      </trkpt>
      <trkpt lat="42.551288" lon="0.306873">
        <ele>1944.0</ele>
        <time>2009-05-24T10:07:02Z</time>
      </trkpt>
      <trkpt lat="42.551355" lon="0.306963">
        <ele>1944.0</ele>
        <time>2009-05-24T10:07:14Z</time>
      </trkpt>
      <trkpt lat="42.551421" lon="0.307053">
        <ele>1937.0</ele>
        <time>2009-05-24T10:07:27Z</time>
      </trkpt>
      <trkpt lat="42.551481" lon="0.307152">
        <ele>1937.0</ele>
        <time>2009-05-24T10:07:39Z</time>
      </trkpt>
      <trkpt lat="42.551534" lon="0.307251">
        <ele>1937.0</ele>
        <time>2009-05-24T10:07:53Z</time>
      </trkpt>
      <trkpt lat="42.551607" lon="0.307323">
        <ele>1930.0</ele>
        <time>2009-05-24T10:08:04Z</time>
      </trkpt>
      <trkpt lat="42.551693" lon="0.307395">
        <ele>1930.0</ele>
        <time>2009-05-24T10:08:15Z</time>
      </trkpt>
      <trkpt lat="42.551760" lon="0.307484">
        <ele>1930.0</ele>
        <time>2009-05-24T10:08:25Z</time>
      </trkpt>
      <trkpt lat="42.551833" lon="0.307556">
        <ele>1930.0</ele>
        <time>2009-05-24T10:08:35Z</time>
      </trkpt>
      <trkpt lat="42.551906" lon="0.307628">
        <ele>1930.0</ele>
        <time>2009-05-24T10:08:47Z</time>
      </trkpt>
      <trkpt lat="42.551986" lon="0.307718">
        <ele>1930.0</ele>
        <time>2009-05-24T10:08:56Z</time>
      </trkpt>
      <trkpt lat="42.552065" lon="0.307781">
        <ele>1930.0</ele>
        <time>2009-05-24T10:09:05Z</time>
      </trkpt>
      <trkpt lat="42.552152" lon="0.307826">
        <ele>1930.0</ele>
        <time>2009-05-24T10:09:14Z</time>
      </trkpt>
      <trkpt lat="42.552238" lon="0.307871">
        <ele>1930.0</ele>
        <time>2009-05-24T10:09:22Z</time>
      </trkpt>
      <trkpt lat="42.552324" lon="0.307916">
        <ele>1930.0</ele>
        <time>2009-05-24T10:09:31Z</time>
      </trkpt>
      <trkpt lat="42.552411" lon="0.307951">
        <ele>1930.0</ele>
        <time>2009-05-24T10:09:40Z</time>
      </trkpt>
      <trkpt lat="42.552497" lon="0.307987">
        <ele>1930.0</ele>
        <time>2009-05-24T10:09:48Z</time>
      </trkpt>
      <trkpt lat="42.552583" lon="0.308023">
        <ele>1930.0</ele>
        <time>2009-05-24T10:09:56Z</time>
      </trkpt>
      <trkpt lat="42.552676" lon="0.308059">
        <ele>1930.0</ele>
        <time>2009-05-24T10:10:05Z</time>
      </trkpt>
      <trkpt lat="42.552769" lon="0.308086">
        <ele>1925.0</ele>
        <time>2009-05-24T10:10:13Z</time>
      </trkpt>
      <trkpt lat="42.552869" lon="0.308095">
        <ele>1925.0</ele>
        <time>2009-05-24T10:10:22Z</time>
      </trkpt>
      <trkpt lat="42.552962" lon="0.308104">
        <ele>1925.0</ele>
        <time>2009-05-24T10:10:30Z</time>
      </trkpt>
      <trkpt lat="42.553055" lon="0.308104">
        <ele>1925.0</ele>
        <time>2009-05-24T10:10:38Z</time>
      </trkpt>
      <trkpt lat="42.553154" lon="0.308122">
        <ele>1925.0</ele>
        <time>2009-05-24T10:10:46Z</time>
      </trkpt>
      <trkpt lat="42.553254" lon="0.308095">
        <ele>1925.0</ele>
        <time>2009-05-24T10:10:55Z</time>
      </trkpt>
      <trkpt lat="42.553354" lon="0.308077">
        <ele>1925.0</ele>
        <time>2009-05-24T10:11:04Z</time>
      </trkpt>
      <trkpt lat="42.553433" lon="0.308149">
        <ele>1925.0</ele>
        <time>2009-05-24T10:11:11Z</time>
      </trkpt>
      <trkpt lat="42.553500" lon="0.308248">
        <ele>1917.0</ele>
        <time>2009-05-24T10:11:20Z</time>
      </trkpt>
      <trkpt lat="42.553566" lon="0.308347">
        <ele>1917.0</ele>
        <time>2009-05-24T10:11:29Z</time>
      </trkpt>
      <trkpt lat="42.553633" lon="0.308437">
        <ele>1912.0</ele>
        <time>2009-05-24T10:11:38Z</time>
      </trkpt>
      <trkpt lat="42.553679" lon="0.308544">
        <ele>1912.0</ele>
        <time>2009-05-24T10:11:47Z</time>
      </trkpt>
      <trkpt lat="42.553712" lon="0.308661">
        <ele>1905.0</ele>
        <time>2009-05-24T10:11:55Z</time>
      </trkpt>
      <trkpt lat="42.553752" lon="0.308787">
        <ele>1905.0</ele>
        <time>2009-05-24T10:12:04Z</time>
      </trkpt>
      <trkpt lat="42.553799" lon="0.308895">
        <ele>1900.0</ele>
        <time>2009-05-24T10:12:11Z</time>
      </trkpt>
      <trkpt lat="42.553852" lon="0.308994">
        <ele>1900.0</ele>
        <time>2009-05-24T10:12:19Z</time>
      </trkpt>
      <trkpt lat="42.553912" lon="0.309092">
        <ele>1900.0</ele>
        <time>2009-05-24T10:12:27Z</time>
      </trkpt>
      <trkpt lat="42.553978" lon="0.309182">
        <ele>1900.0</ele>
        <time>2009-05-24T10:12:35Z</time>
      </trkpt>
      <trkpt lat="42.554051" lon="0.309263">
        <ele>1900.0</ele>
        <time>2009-05-24T10:12:44Z</time>
      </trkpt>
      <trkpt lat="42.554137" lon="0.309326">
        <ele>1900.0</ele>
        <time>2009-05-24T10:12:53Z</time>
      </trkpt>
      <trkpt lat="42.554224" lon="0.309380">
        <ele>1900.0</ele>
        <time>2009-05-24T10:13:01Z</time>
      </trkpt>
      <trkpt lat="42.554297" lon="0.309452">
        <ele>1900.0</ele>
        <time>2009-05-24T10:13:09Z</time>
      </trkpt>
      <trkpt lat="42.554363" lon="0.309550">
        <ele>1900.0</ele>
        <time>2009-05-24T10:13:18Z</time>
      </trkpt>
      <trkpt lat="42.554423" lon="0.309649">
        <ele>1900.0</ele>
        <time>2009-05-24T10:13:27Z</time>
      </trkpt>
      <trkpt lat="42.554476" lon="0.309757">
        <ele>1900.0</ele>
        <time>2009-05-24T10:13:36Z</time>
      </trkpt>
      <trkpt lat="42.554529" lon="0.309856">
        <ele>1900.0</ele>
        <time>2009-05-24T10:13:45Z</time>
      </trkpt>
      <trkpt lat="42.554582" lon="0.309964">
        <ele>1894.0</ele>
        <time>2009-05-24T10:13:54Z</time>
      </trkpt>
      <trkpt lat="42.554629" lon="0.310080">
        <ele>1894.0</ele>
        <time>2009-05-24T10:14:04Z</time>
      </trkpt>
      <trkpt lat="42.554669" lon="0.310197">
        <ele>1901.0</ele>
        <time>2009-05-24T10:14:13Z</time>
      </trkpt>
      <trkpt lat="42.554669" lon="0.310323">
        <ele>1901.0</ele>
        <time>2009-05-24T10:14:40Z</time>
      </trkpt>
      <trkpt lat="42.554742" lon="0.310413">
        <ele>1901.0</ele>
        <time>2009-05-24T10:16:00Z</time>
      </trkpt>
      <trkpt lat="42.554808" lon="0.310503">
        <ele>1901.0</ele>
        <time>2009-05-24T10:16:08Z</time>
      </trkpt>
      <trkpt lat="42.554868" lon="0.310610">
        <ele>1895.0</ele>
        <time>2009-05-24T10:16:16Z</time>
      </trkpt>
      <trkpt lat="42.554895" lon="0.310736">
        <ele>1895.0</ele>
        <time>2009-05-24T10:16:25Z</time>
      </trkpt>
      <trkpt lat="42.554941" lon="0.310853">
        <ele>1895.0</ele>
        <time>2009-05-24T10:16:35Z</time>
      </trkpt>
      <trkpt lat="42.554974" lon="0.310979">
        <ele>1895.0</ele>
        <time>2009-05-24T10:16:44Z</time>
      </trkpt>
      <trkpt lat="42.555001" lon="0.311096">
        <ele>1895.0</ele>
        <time>2009-05-24T10:16:52Z</time>
      </trkpt>
      <trkpt lat="42.555034" lon="0.311212">
        <ele>1895.0</ele>
        <time>2009-05-24T10:17:01Z</time>
      </trkpt>
      <trkpt lat="42.555074" lon="0.311329">
        <ele>1895.0</ele>
        <time>2009-05-24T10:17:10Z</time>
      </trkpt>
      <trkpt lat="42.555127" lon="0.311437">
        <ele>1895.0</ele>
        <time>2009-05-24T10:17:18Z</time>
      </trkpt>
      <trkpt lat="42.555200" lon="0.311527">
        <ele>1895.0</ele>
        <time>2009-05-24T10:17:27Z</time>
      </trkpt>
      <trkpt lat="42.555253" lon="0.311635">
        <ele>1895.0</ele>
        <time>2009-05-24T10:17:35Z</time>
      </trkpt>
      <trkpt lat="42.555300" lon="0.311742">
        <ele>1895.0</ele>
        <time>2009-05-24T10:17:43Z</time>
      </trkpt>
      <trkpt lat="42.555353" lon="0.311841">
        <ele>1895.0</ele>
        <time>2009-05-24T10:17:51Z</time>
      </trkpt>
      <trkpt lat="42.555439" lon="0.311796">
        <ele>1901.0</ele>
        <time>2009-05-24T10:18:03Z</time>
      </trkpt>
      <trkpt lat="42.555532" lon="0.311778">
        <ele>1911.0</ele>
        <time>2009-05-24T10:18:16Z</time>
      </trkpt>
      <trkpt lat="42.555625" lon="0.311769">
        <ele>1911.0</ele>
        <time>2009-05-24T10:18:24Z</time>
      </trkpt>
      <trkpt lat="42.555718" lon="0.311796">
        <ele>1911.0</ele>
        <time>2009-05-24T10:18:37Z</time>
      </trkpt>
      <trkpt lat="42.555818" lon="0.311787">
        <ele>1911.0</ele>
        <time>2009-05-24T10:18:49Z</time>
      </trkpt>
      <trkpt lat="42.555911" lon="0.311805">
        <ele>1902.0</ele>
        <time>2009-05-24T10:19:05Z</time>
      </trkpt>
      <trkpt lat="42.556004" lon="0.311787">
        <ele>1907.0</ele>
        <time>2009-05-24T10:19:16Z</time>
      </trkpt>
      <trkpt lat="42.556097" lon="0.311760">
        <ele>1914.0</ele>
        <time>2009-05-24T10:19:23Z</time>
      </trkpt>
      <trkpt lat="42.556183" lon="0.311706">
        <ele>1914.0</ele>
        <time>2009-05-24T10:19:32Z</time>
      </trkpt>
      <trkpt lat="42.556283" lon="0.311662">
        <ele>1914.0</ele>
        <time>2009-05-24T10:19:40Z</time>
      </trkpt>
      <trkpt lat="42.556369" lon="0.311599">
        <ele>1914.0</ele>
        <time>2009-05-24T10:19:49Z</time>
      </trkpt>
      <trkpt lat="42.556429" lon="0.311500">
        <ele>1914.0</ele>
        <time>2009-05-24T10:19:58Z</time>
      </trkpt>
      <trkpt lat="42.556502" lon="0.311410">
        <ele>1907.0</ele>
        <time>2009-05-24T10:20:08Z</time>
      </trkpt>
      <trkpt lat="42.556581" lon="0.311329">
        <ele>1900.0</ele>
        <time>2009-05-24T10:20:18Z</time>
      </trkpt>
      <trkpt lat="42.556668" lon="0.311266">
        <ele>1900.0</ele>
        <time>2009-05-24T10:20:27Z</time>
      </trkpt>
      <trkpt lat="42.556741" lon="0.311194">
        <ele>1893.0</ele>
        <time>2009-05-24T10:20:37Z</time>
      </trkpt>
      <trkpt lat="42.556787" lon="0.311078">
        <ele>1888.0</ele>
        <time>2009-05-24T10:20:47Z</time>
      </trkpt>
      <trkpt lat="42.556860" lon="0.311006">
        <ele>1888.0</ele>
        <time>2009-05-24T10:20:59Z</time>
      </trkpt>
      <trkpt lat="42.556953" lon="0.310979">
        <ele>1879.0</ele>
        <time>2009-05-24T10:21:10Z</time>
      </trkpt>
      <trkpt lat="42.557020" lon="0.310889">
        <ele>1879.0</ele>
        <time>2009-05-24T10:21:19Z</time>
      </trkpt>
      <trkpt lat="42.557066" lon="0.310781">
        <ele>1879.0</ele>
        <time>2009-05-24T10:21:29Z</time>
      </trkpt>
      <trkpt lat="42.557159" lon="0.310781">
        <ele>1869.0</ele>
        <time>2009-05-24T10:21:55Z</time>
      </trkpt>
      <trkpt lat="42.557192" lon="0.310898">
        <ele>1864.0</ele>
        <time>2009-05-24T10:22:11Z</time>
      </trkpt>
      <trkpt lat="42.557265" lon="0.310970">
        <ele>1858.0</ele>
        <time>2009-05-24T10:22:24Z</time>
      </trkpt>
      <trkpt lat="42.557352" lon="0.310907">
        <ele>1858.0</ele>
        <time>2009-05-24T10:22:37Z</time>
      </trkpt>
      <trkpt lat="42.557412" lon="0.310808">
        <ele>1858.0</ele>
        <time>2009-05-24T10:22:44Z</time>
      </trkpt>
      <trkpt lat="42.557418" lon="0.310682">
        <ele>1858.0</ele>
        <time>2009-05-24T10:22:51Z</time>
      </trkpt>
      <trkpt lat="42.557432" lon="0.310548">
        <ele>1858.0</ele>
        <time>2009-05-24T10:22:59Z</time>
      </trkpt>
      <trkpt lat="42.557412" lon="0.310422">
        <ele>1858.0</ele>
        <time>2009-05-24T10:23:08Z</time>
      </trkpt>
      <trkpt lat="42.557425" lon="0.310296">
        <ele>1852.0</ele>
        <time>2009-05-24T10:23:18Z</time>
      </trkpt>
      <trkpt lat="42.557432" lon="0.310170">
        <ele>1852.0</ele>
        <time>2009-05-24T10:23:28Z</time>
      </trkpt>
      <trkpt lat="42.557412" lon="0.310045">
        <ele>1852.0</ele>
        <time>2009-05-24T10:23:37Z</time>
      </trkpt>
      <trkpt lat="42.557392" lon="0.309919">
        <ele>1852.0</ele>
        <time>2009-05-24T10:23:46Z</time>
      </trkpt>
      <trkpt lat="42.557418" lon="0.309802">
        <ele>1852.0</ele>
        <time>2009-05-24T10:23:53Z</time>
      </trkpt>
      <trkpt lat="42.557418" lon="0.309667">
        <ele>1852.0</ele>
        <time>2009-05-24T10:24:02Z</time>
      </trkpt>
      <trkpt lat="42.557445" lon="0.309532">
        <ele>1852.0</ele>
        <time>2009-05-24T10:24:10Z</time>
      </trkpt>
      <trkpt lat="42.557485" lon="0.309416">
        <ele>1843.0</ele>
        <time>2009-05-24T10:24:19Z</time>
      </trkpt>
      <trkpt lat="42.557518" lon="0.309290">
        <ele>1843.0</ele>
        <time>2009-05-24T10:24:28Z</time>
      </trkpt>
      <trkpt lat="42.557558" lon="0.309173">
        <ele>1843.0</ele>
        <time>2009-05-24T10:24:37Z</time>
      </trkpt>
      <trkpt lat="42.557591" lon="0.309056">
        <ele>1843.0</ele>
        <time>2009-05-24T10:24:50Z</time>
      </trkpt>
      <trkpt lat="42.557564" lon="0.308931">
        <ele>1843.0</ele>
        <time>2009-05-24T10:25:03Z</time>
      </trkpt>
      <trkpt lat="42.557538" lon="0.308796">
        <ele>1843.0</ele>
        <time>2009-05-24T10:25:13Z</time>
      </trkpt>
      <trkpt lat="42.557571" lon="0.308679">
        <ele>1836.0</ele>
        <time>2009-05-24T10:25:20Z</time>
      </trkpt>
      <trkpt lat="42.557624" lon="0.308580">
        <ele>1836.0</ele>
        <time>2009-05-24T10:25:28Z</time>
      </trkpt>
      <trkpt lat="42.557651" lon="0.308464">
        <ele>1826.0</ele>
        <time>2009-05-24T10:25:40Z</time>
      </trkpt>
      <trkpt lat="42.557664" lon="0.308338">
        <ele>1819.0</ele>
        <time>2009-05-24T10:25:48Z</time>
      </trkpt>
      <trkpt lat="42.557664" lon="0.308212">
        <ele>1819.0</ele>
        <time>2009-05-24T10:25:57Z</time>
      </trkpt>
      <trkpt lat="42.557677" lon="0.308086">
        <ele>1814.0</ele>
        <time>2009-05-24T10:26:07Z</time>
      </trkpt>
      <trkpt lat="42.557657" lon="0.307951">
        <ele>1814.0</ele>
        <time>2009-05-24T10:26:16Z</time>
      </trkpt>
      <trkpt lat="42.557657" lon="0.307826">
        <ele>1814.0</ele>
        <time>2009-05-24T10:26:24Z</time>
      </trkpt>
      <trkpt lat="42.557637" lon="0.307700">
        <ele>1814.0</ele>
        <time>2009-05-24T10:26:33Z</time>
      </trkpt>
      <trkpt lat="42.557651" lon="0.307574">
        <ele>1814.0</ele>
        <time>2009-05-24T10:26:40Z</time>
      </trkpt>
      <trkpt lat="42.557677" lon="0.307448">
        <ele>1807.0</ele>
        <time>2009-05-24T10:26:47Z</time>
      </trkpt>
      <trkpt lat="42.557717" lon="0.307332">
        <ele>1807.0</ele>
        <time>2009-05-24T10:26:54Z</time>
      </trkpt>
      <trkpt lat="42.557803" lon="0.307287">
        <ele>1807.0</ele>
        <time>2009-05-24T10:27:07Z</time>
      </trkpt>
      <trkpt lat="42.557850" lon="0.307179">
        <ele>1807.0</ele>
        <time>2009-05-24T10:27:35Z</time>
      </trkpt>
      <trkpt lat="42.557890" lon="0.307062">
        <ele>1807.0</ele>
        <time>2009-05-24T10:27:42Z</time>
      </trkpt>
      <trkpt lat="42.557916" lon="0.306945">
        <ele>1807.0</ele>
        <time>2009-05-24T10:27:48Z</time>
      </trkpt>
      <trkpt lat="42.557923" lon="0.306820">
        <ele>1807.0</ele>
        <time>2009-05-24T10:27:54Z</time>
      </trkpt>
      <trkpt lat="42.557910" lon="0.306694">
        <ele>1807.0</ele>
        <time>2009-05-24T10:27:58Z</time>
      </trkpt>
      <trkpt lat="42.557930" lon="0.306568">
        <ele>1802.0</ele>
        <time>2009-05-24T10:28:04Z</time>
      </trkpt>
      <trkpt lat="42.557976" lon="0.306460">
        <ele>1802.0</ele>
        <time>2009-05-24T10:28:10Z</time>
      </trkpt>
      <trkpt lat="42.558043" lon="0.306361">
        <ele>1802.0</ele>
        <time>2009-05-24T10:28:17Z</time>
      </trkpt>
      <trkpt lat="42.558096" lon="0.306263">
        <ele>1802.0</ele>
        <time>2009-05-24T10:28:24Z</time>
      </trkpt>
      <trkpt lat="42.558149" lon="0.306164">
        <ele>1802.0</ele>
        <time>2009-05-24T10:28:31Z</time>
      </trkpt>
      <trkpt lat="42.558209" lon="0.306047">
        <ele>1802.0</ele>
        <time>2009-05-24T10:28:39Z</time>
      </trkpt>
      <trkpt lat="42.558228" lon="0.305912">
        <ele>1802.0</ele>
        <time>2009-05-24T10:28:47Z</time>
      </trkpt>
      <trkpt lat="42.558282" lon="0.305796">
        <ele>1796.0</ele>
        <time>2009-05-24T10:28:55Z</time>
      </trkpt>
      <trkpt lat="42.558321" lon="0.305679">
        <ele>1796.0</ele>
        <time>2009-05-24T10:29:03Z</time>
      </trkpt>
      <trkpt lat="42.558348" lon="0.305562">
        <ele>1796.0</ele>
        <time>2009-05-24T10:29:11Z</time>
      </trkpt>
      <trkpt lat="42.558361" lon="0.305436">
        <ele>1796.0</ele>
        <time>2009-05-24T10:29:24Z</time>
      </trkpt>
      <trkpt lat="42.558394" lon="0.305319">
        <ele>1789.0</ele>
        <time>2009-05-24T10:29:38Z</time>
      </trkpt>
      <trkpt lat="42.558381" lon="0.305194">
        <ele>1779.0</ele>
        <time>2009-05-24T10:29:51Z</time>
      </trkpt>
      <trkpt lat="42.558434" lon="0.305086">
        <ele>1779.0</ele>
        <time>2009-05-24T10:30:01Z</time>
      </trkpt>
      <trkpt lat="42.558468" lon="0.304969">
        <ele>1779.0</ele>
        <time>2009-05-24T10:30:18Z</time>
      </trkpt>
      <trkpt lat="42.558527" lon="0.304870">
        <ele>1779.0</ele>
        <time>2009-05-24T10:30:31Z</time>
      </trkpt>
      <trkpt lat="42.558547" lon="0.304744">
        <ele>1779.0</ele>
        <time>2009-05-24T10:30:47Z</time>
      </trkpt>
      <trkpt lat="42.558620" lon="0.304664">
        <ele>1774.0</ele>
        <time>2009-05-24T10:31:07Z</time>
      </trkpt>
      <trkpt lat="42.558653" lon="0.304547">
        <ele>1774.0</ele>
        <time>2009-05-24T10:31:27Z</time>
      </trkpt>
      <trkpt lat="42.558680" lon="0.304430">
        <ele>1774.0</ele>
        <time>2009-05-24T10:31:42Z</time>
      </trkpt>
      <trkpt lat="42.558746" lon="0.304322">
        <ele>1774.0</ele>
        <time>2009-05-24T10:31:54Z</time>
      </trkpt>
      <trkpt lat="42.558806" lon="0.304214">
        <ele>1764.0</ele>
        <time>2009-05-24T10:32:04Z</time>
      </trkpt>
      <trkpt lat="42.558833" lon="0.304098">
        <ele>1764.0</ele>
        <time>2009-05-24T10:32:16Z</time>
      </trkpt>
      <trkpt lat="42.558833" lon="0.303963">
        <ele>1764.0</ele>
        <time>2009-05-24T10:32:28Z</time>
      </trkpt>
      <trkpt lat="42.558846" lon="0.303837">
        <ele>1764.0</ele>
        <time>2009-05-24T10:32:41Z</time>
      </trkpt>
      <trkpt lat="42.558846" lon="0.303711">
        <ele>1764.0</ele>
        <time>2009-05-24T10:32:52Z</time>
      </trkpt>
      <trkpt lat="42.558866" lon="0.303577">
        <ele>1764.0</ele>
        <time>2009-05-24T10:33:04Z</time>
      </trkpt>
      <trkpt lat="42.558886" lon="0.303451">
        <ele>1748.0</ele>
        <time>2009-05-24T10:33:24Z</time>
      </trkpt>
      <trkpt lat="42.558939" lon="0.303334">
        <ele>1748.0</ele>
        <time>2009-05-24T10:33:31Z</time>
      </trkpt>
      <trkpt lat="42.558926" lon="0.303208">
        <ele>1748.0</ele>
        <time>2009-05-24T10:33:42Z</time>
      </trkpt>
      <trkpt lat="42.558939" lon="0.303083">
        <ele>1748.0</ele>
        <time>2009-05-24T10:33:52Z</time>
      </trkpt>
      <trkpt lat="42.558959" lon="0.302948">
        <ele>1748.0</ele>
        <time>2009-05-24T10:34:00Z</time>
      </trkpt>
      <trkpt lat="42.558952" lon="0.302813">
        <ele>1739.0</ele>
        <time>2009-05-24T10:34:08Z</time>
      </trkpt>
      <trkpt lat="42.558853" lon="0.302795">
        <ele>1726.0</ele>
        <time>2009-05-24T10:35:03Z</time>
      </trkpt>
      <trkpt lat="42.558760" lon="0.302822">
        <ele>1726.0</ele>
        <time>2009-05-24T10:35:13Z</time>
      </trkpt>
      <trkpt lat="42.558673" lon="0.302885">
        <ele>1733.0</ele>
        <time>2009-05-24T10:35:22Z</time>
      </trkpt>
      <trkpt lat="42.558580" lon="0.302921">
        <ele>1733.0</ele>
        <time>2009-05-24T10:35:30Z</time>
      </trkpt>
      <trkpt lat="42.558494" lon="0.302966">
        <ele>1733.0</ele>
        <time>2009-05-24T10:35:38Z</time>
      </trkpt>
      <trkpt lat="42.558421" lon="0.303047">
        <ele>1742.0</ele>
        <time>2009-05-24T10:35:47Z</time>
      </trkpt>
      <trkpt lat="42.558335" lon="0.303128">
        <ele>1735.0</ele>
        <time>2009-05-24T10:35:56Z</time>
      </trkpt>
      <trkpt lat="42.558268" lon="0.303217">
        <ele>1730.0</ele>
        <time>2009-05-24T10:36:04Z</time>
      </trkpt>
      <trkpt lat="42.558182" lon="0.303262">
        <ele>1735.0</ele>
        <time>2009-05-24T10:36:11Z</time>
      </trkpt>
      <trkpt lat="42.558109" lon="0.303334">
        <ele>1735.0</ele>
        <time>2009-05-24T10:36:18Z</time>
      </trkpt>
      <trkpt lat="42.558016" lon="0.303361">
        <ele>1722.0</ele>
        <time>2009-05-24T10:36:23Z</time>
      </trkpt>
      <trkpt lat="42.557930" lon="0.303406">
        <ele>1722.0</ele>
        <time>2009-05-24T10:36:30Z</time>
      </trkpt>
      <trkpt lat="42.557837" lon="0.303451">
        <ele>1722.0</ele>
        <time>2009-05-24T10:36:38Z</time>
      </trkpt>
      <trkpt lat="42.557777" lon="0.303550">
        <ele>1722.0</ele>
        <time>2009-05-24T10:36:47Z</time>
      </trkpt>
      <trkpt lat="42.557691" lon="0.303595">
        <ele>1722.0</ele>
        <time>2009-05-24T10:36:58Z</time>
      </trkpt>
      <trkpt lat="42.557604" lon="0.303541">
        <ele>1732.0</ele>
        <time>2009-05-24T10:37:08Z</time>
      </trkpt>
      <trkpt lat="42.557478" lon="0.303469">
        <ele>1732.0</ele>
        <time>2009-05-24T10:47:44Z</time>
      </trkpt>
      <trkpt lat="42.557385" lon="0.303451">
        <ele>1718.0</ele>
        <time>2009-05-24T10:48:01Z</time>
      </trkpt>
      <trkpt lat="42.557292" lon="0.303433">
        <ele>1718.0</ele>
        <time>2009-05-24T10:48:09Z</time>
      </trkpt>
      <trkpt lat="42.557206" lon="0.303397">
        <ele>1709.0</ele>
        <time>2009-05-24T10:48:17Z</time>
      </trkpt>
      <trkpt lat="42.557113" lon="0.303361">
        <ele>1709.0</ele>
        <time>2009-05-24T10:48:25Z</time>
      </trkpt>
      <trkpt lat="42.557026" lon="0.303289">
        <ele>1709.0</ele>
        <time>2009-05-24T10:48:36Z</time>
      </trkpt>
      <trkpt lat="42.557040" lon="0.303163">
        <ele>1709.0</ele>
        <time>2009-05-24T10:48:45Z</time>
      </trkpt>
      <trkpt lat="42.557066" lon="0.303029">
        <ele>1719.0</ele>
        <time>2009-05-24T10:48:54Z</time>
      </trkpt>
      <trkpt lat="42.557093" lon="0.302912">
        <ele>1719.0</ele>
        <time>2009-05-24T10:49:02Z</time>
      </trkpt>
      <trkpt lat="42.557133" lon="0.302786">
        <ele>1719.0</ele>
        <time>2009-05-24T10:49:09Z</time>
      </trkpt>
      <trkpt lat="42.557159" lon="0.302669">
        <ele>1726.0</ele>
        <time>2009-05-24T10:49:16Z</time>
      </trkpt>
      <trkpt lat="42.557173" lon="0.302544">
        <ele>1726.0</ele>
        <time>2009-05-24T10:49:24Z</time>
      </trkpt>
      <trkpt lat="42.557179" lon="0.302418">
        <ele>1726.0</ele>
        <time>2009-05-24T10:49:32Z</time>
      </trkpt>
      <trkpt lat="42.557206" lon="0.302301">
        <ele>1726.0</ele>
        <time>2009-05-24T10:49:41Z</time>
      </trkpt>
      <trkpt lat="42.557232" lon="0.302184">
        <ele>1717.0</ele>
        <time>2009-05-24T10:49:49Z</time>
      </trkpt>
      <trkpt lat="42.557252" lon="0.302050">
        <ele>1717.0</ele>
        <time>2009-05-24T10:49:59Z</time>
      </trkpt>
      <trkpt lat="42.557285" lon="0.301933">
        <ele>1711.0</ele>
        <time>2009-05-24T10:50:07Z</time>
      </trkpt>
      <trkpt lat="42.557312" lon="0.301816">
        <ele>1711.0</ele>
        <time>2009-05-24T10:50:15Z</time>
      </trkpt>
      <trkpt lat="42.557312" lon="0.301681">
        <ele>1711.0</ele>
        <time>2009-05-24T10:50:23Z</time>
      </trkpt>
      <trkpt lat="42.557232" lon="0.301609">
        <ele>1706.0</ele>
        <time>2009-05-24T10:50:32Z</time>
      </trkpt>
      <trkpt lat="42.557153" lon="0.301672">
        <ele>1706.0</ele>
        <time>2009-05-24T10:50:47Z</time>
      </trkpt>
      <trkpt lat="42.557066" lon="0.301726">
        <ele>1706.0</ele>
        <time>2009-05-24T10:50:54Z</time>
      </trkpt>
      <trkpt lat="42.557006" lon="0.301825">
        <ele>1706.0</ele>
        <time>2009-05-24T10:51:03Z</time>
      </trkpt>
      <trkpt lat="42.556927" lon="0.301906">
        <ele>1712.0</ele>
        <time>2009-05-24T10:51:12Z</time>
      </trkpt>
      <trkpt lat="42.556860" lon="0.301996">
        <ele>1712.0</ele>
        <time>2009-05-24T10:51:19Z</time>
      </trkpt>
      <trkpt lat="42.556807" lon="0.302094">
        <ele>1703.0</ele>
        <time>2009-05-24T10:51:26Z</time>
      </trkpt>
      <trkpt lat="42.556741" lon="0.302193">
        <ele>1703.0</ele>
        <time>2009-05-24T10:51:34Z</time>
      </trkpt>
      <trkpt lat="42.556688" lon="0.302301">
        <ele>1703.0</ele>
        <time>2009-05-24T10:51:42Z</time>
      </trkpt>
      <trkpt lat="42.556628" lon="0.302400">
        <ele>1698.0</ele>
        <time>2009-05-24T10:51:49Z</time>
      </trkpt>
      <trkpt lat="42.556575" lon="0.302499">
        <ele>1698.0</ele>
        <time>2009-05-24T10:51:56Z</time>
      </trkpt>
      <trkpt lat="42.556522" lon="0.302606">
        <ele>1692.0</ele>
        <time>2009-05-24T10:52:03Z</time>
      </trkpt>
      <trkpt lat="42.556469" lon="0.302714">
        <ele>1692.0</ele>
        <time>2009-05-24T10:52:12Z</time>
      </trkpt>
      <trkpt lat="42.556402" lon="0.302822">
        <ele>1692.0</ele>
        <time>2009-05-24T10:52:21Z</time>
      </trkpt>
      <trkpt lat="42.556349" lon="0.302921">
        <ele>1692.0</ele>
        <time>2009-05-24T10:52:29Z</time>
      </trkpt>
      <trkpt lat="42.556276" lon="0.303002">
        <ele>1692.0</ele>
        <time>2009-05-24T10:52:37Z</time>
      </trkpt>
      <trkpt lat="42.556203" lon="0.303074">
        <ele>1692.0</ele>
        <time>2009-05-24T10:52:45Z</time>
      </trkpt>
      <trkpt lat="42.556130" lon="0.303163">
        <ele>1680.0</ele>
        <time>2009-05-24T10:52:51Z</time>
      </trkpt>
      <trkpt lat="42.556037" lon="0.303217">
        <ele>1680.0</ele>
        <time>2009-05-24T10:52:59Z</time>
      </trkpt>
      <trkpt lat="42.555944" lon="0.303226">
        <ele>1672.0</ele>
        <time>2009-05-24T10:53:06Z</time>
      </trkpt>
      <trkpt lat="42.555844" lon="0.303226">
        <ele>1666.0</ele>
        <time>2009-05-24T10:53:15Z</time>
      </trkpt>
      <trkpt lat="42.555751" lon="0.303190">
        <ele>1666.0</ele>
        <time>2009-05-24T10:53:23Z</time>
      </trkpt>
      <trkpt lat="42.555652" lon="0.303172">
        <ele>1666.0</ele>
        <time>2009-05-24T10:53:31Z</time>
      </trkpt>
      <trkpt lat="42.555559" lon="0.303145">
        <ele>1666.0</ele>
        <time>2009-05-24T10:53:39Z</time>
      </trkpt>
      <trkpt lat="42.555479" lon="0.303074">
        <ele>1666.0</ele>
        <time>2009-05-24T10:53:48Z</time>
      </trkpt>
      <trkpt lat="42.555506" lon="0.302948">
        <ele>1675.0</ele>
        <time>2009-05-24T10:53:58Z</time>
      </trkpt>
      <trkpt lat="42.555585" lon="0.303038">
        <ele>1666.0</ele>
        <time>2009-05-24T10:54:10Z</time>
      </trkpt>
      <trkpt lat="42.555678" lon="0.303002">
        <ele>1666.0</ele>
        <time>2009-05-24T10:54:18Z</time>
      </trkpt>
      <trkpt lat="42.555758" lon="0.302903">
        <ele>1678.0</ele>
        <time>2009-05-24T10:54:27Z</time>
      </trkpt>
      <trkpt lat="42.555851" lon="0.302831">
        <ele>1678.0</ele>
        <time>2009-05-24T10:54:34Z</time>
      </trkpt>
      <trkpt lat="42.555931" lon="0.302732">
        <ele>1678.0</ele>
        <time>2009-05-24T10:54:42Z</time>
      </trkpt>
      <trkpt lat="42.555997" lon="0.302633">
        <ele>1678.0</ele>
        <time>2009-05-24T10:54:50Z</time>
      </trkpt>
      <trkpt lat="42.556050" lon="0.302517">
        <ele>1678.0</ele>
        <time>2009-05-24T10:54:58Z</time>
      </trkpt>
      <trkpt lat="42.556090" lon="0.302391">
        <ele>1678.0</ele>
        <time>2009-05-24T10:55:07Z</time>
      </trkpt>
      <trkpt lat="42.556103" lon="0.302256">
        <ele>1678.0</ele>
        <time>2009-05-24T10:55:16Z</time>
      </trkpt>
      <trkpt lat="42.556110" lon="0.302121">
        <ele>1678.0</ele>
        <time>2009-05-24T10:55:24Z</time>
      </trkpt>
      <trkpt lat="42.556123" lon="0.301987">
        <ele>1678.0</ele>
        <time>2009-05-24T10:55:31Z</time>
      </trkpt>
      <trkpt lat="42.556163" lon="0.301861">
        <ele>1669.0</ele>
        <time>2009-05-24T10:55:38Z</time>
      </trkpt>
      <trkpt lat="42.556223" lon="0.301735">
        <ele>1669.0</ele>
        <time>2009-05-24T10:55:46Z</time>
      </trkpt>
      <trkpt lat="42.556276" lon="0.301627">
        <ele>1656.0</ele>
        <time>2009-05-24T10:55:56Z</time>
      </trkpt>
      <trkpt lat="42.556342" lon="0.301520">
        <ele>1656.0</ele>
        <time>2009-05-24T10:56:05Z</time>
      </trkpt>
      <trkpt lat="42.556409" lon="0.301403">
        <ele>1656.0</ele>
        <time>2009-05-24T10:56:11Z</time>
      </trkpt>
      <trkpt lat="42.556462" lon="0.301277">
        <ele>1662.0</ele>
        <time>2009-05-24T10:56:18Z</time>
      </trkpt>
      <trkpt lat="42.556508" lon="0.301169">
        <ele>1662.0</ele>
        <time>2009-05-24T10:56:25Z</time>
      </trkpt>
      <trkpt lat="42.556555" lon="0.301043">
        <ele>1662.0</ele>
        <time>2009-05-24T10:56:32Z</time>
      </trkpt>
      <trkpt lat="42.556588" lon="0.300918">
        <ele>1662.0</ele>
        <time>2009-05-24T10:56:40Z</time>
      </trkpt>
      <trkpt lat="42.556601" lon="0.300774">
        <ele>1662.0</ele>
        <time>2009-05-24T10:56:48Z</time>
      </trkpt>
      <trkpt lat="42.556615" lon="0.300639">
        <ele>1662.0</ele>
        <time>2009-05-24T10:56:57Z</time>
      </trkpt>
      <trkpt lat="42.556615" lon="0.300504">
        <ele>1657.0</ele>
        <time>2009-05-24T10:57:05Z</time>
      </trkpt>
      <trkpt lat="42.556621" lon="0.300361">
        <ele>1657.0</ele>
        <time>2009-05-24T10:57:13Z</time>
      </trkpt>
      <trkpt lat="42.556621" lon="0.300235">
        <ele>1657.0</ele>
        <time>2009-05-24T10:57:20Z</time>
      </trkpt>
      <trkpt lat="42.556641" lon="0.300109">
        <ele>1657.0</ele>
        <time>2009-05-24T10:57:27Z</time>
      </trkpt>
      <trkpt lat="42.556648" lon="0.299983">
        <ele>1657.0</ele>
        <time>2009-05-24T10:57:34Z</time>
      </trkpt>
      <trkpt lat="42.556661" lon="0.299849">
        <ele>1649.0</ele>
        <time>2009-05-24T10:57:42Z</time>
      </trkpt>
      <trkpt lat="42.556674" lon="0.299714">
        <ele>1649.0</ele>
        <time>2009-05-24T10:57:50Z</time>
      </trkpt>
      <trkpt lat="42.556681" lon="0.299579">
        <ele>1649.0</ele>
        <time>2009-05-24T10:57:58Z</time>
      </trkpt>
      <trkpt lat="42.556628" lon="0.299471">
        <ele>1649.0</ele>
        <time>2009-05-24T10:58:06Z</time>
      </trkpt>
      <trkpt lat="42.556542" lon="0.299435">
        <ele>1642.0</ele>
        <time>2009-05-24T10:58:13Z</time>
      </trkpt>
      <trkpt lat="42.556449" lon="0.299426">
        <ele>1642.0</ele>
        <time>2009-05-24T10:58:21Z</time>
      </trkpt>
      <trkpt lat="42.556356" lon="0.299408">
        <ele>1635.0</ele>
        <time>2009-05-24T10:58:29Z</time>
      </trkpt>
      <trkpt lat="42.556283" lon="0.299319">
        <ele>1635.0</ele>
        <time>2009-05-24T10:58:37Z</time>
      </trkpt>
      <trkpt lat="42.556236" lon="0.299211">
        <ele>1635.0</ele>
        <time>2009-05-24T10:58:44Z</time>
      </trkpt>
      <trkpt lat="42.556210" lon="0.299094">
        <ele>1642.0</ele>
        <time>2009-05-24T10:58:51Z</time>
      </trkpt>
      <trkpt lat="42.556156" lon="0.298986">
        <ele>1642.0</ele>
        <time>2009-05-24T10:58:58Z</time>
      </trkpt>
      <trkpt lat="42.556150" lon="0.298852">
        <ele>1642.0</ele>
        <time>2009-05-24T10:59:05Z</time>
      </trkpt>
      <trkpt lat="42.556150" lon="0.298726">
        <ele>1642.0</ele>
        <time>2009-05-24T10:59:12Z</time>
      </trkpt>
      <trkpt lat="42.556143" lon="0.298591">
        <ele>1642.0</ele>
        <time>2009-05-24T10:59:20Z</time>
      </trkpt>
      <trkpt lat="42.556150" lon="0.298465">
        <ele>1642.0</ele>
        <time>2009-05-24T10:59:27Z</time>
      </trkpt>
      <trkpt lat="42.556176" lon="0.298339">
        <ele>1642.0</ele>
        <time>2009-05-24T10:59:34Z</time>
      </trkpt>
      <trkpt lat="42.556229" lon="0.298232">
        <ele>1633.0</ele>
        <time>2009-05-24T10:59:43Z</time>
      </trkpt>
      <trkpt lat="42.556309" lon="0.298169">
        <ele>1633.0</ele>
        <time>2009-05-24T10:59:51Z</time>
      </trkpt>
      <trkpt lat="42.556395" lon="0.298133">
        <ele>1633.0</ele>
        <time>2009-05-24T10:59:59Z</time>
      </trkpt>
      <trkpt lat="42.556495" lon="0.298106">
        <ele>1627.0</ele>
        <time>2009-05-24T11:00:07Z</time>
      </trkpt>
      <trkpt lat="42.556595" lon="0.298115">
        <ele>1627.0</ele>
        <time>2009-05-24T11:00:16Z</time>
      </trkpt>
      <trkpt lat="42.556694" lon="0.298079">
        <ele>1627.0</ele>
        <time>2009-05-24T11:00:24Z</time>
      </trkpt>
      <trkpt lat="42.556787" lon="0.298070">
        <ele>1627.0</ele>
        <time>2009-05-24T11:00:33Z</time>
      </trkpt>
      <trkpt lat="42.556874" lon="0.298034">
        <ele>1627.0</ele>
        <time>2009-05-24T11:00:42Z</time>
      </trkpt>
      <trkpt lat="42.556973" lon="0.297980">
        <ele>1636.0</ele>
        <time>2009-05-24T11:00:48Z</time>
      </trkpt>
      <trkpt lat="42.557066" lon="0.297926">
        <ele>1644.0</ele>
        <time>2009-05-24T11:00:55Z</time>
      </trkpt>
      <trkpt lat="42.557166" lon="0.297917">
        <ele>1637.0</ele>
        <time>2009-05-24T11:01:02Z</time>
      </trkpt>
      <trkpt lat="42.557252" lon="0.297962">
        <ele>1628.0</ele>
        <time>2009-05-24T11:01:09Z</time>
      </trkpt>
      <trkpt lat="42.557345" lon="0.297899">
        <ele>1628.0</ele>
        <time>2009-05-24T11:01:18Z</time>
      </trkpt>
      <trkpt lat="42.557445" lon="0.297845">
        <ele>1633.0</ele>
        <time>2009-05-24T11:01:25Z</time>
      </trkpt>
      <trkpt lat="42.557525" lon="0.297774">
        <ele>1633.0</ele>
        <time>2009-05-24T11:01:31Z</time>
      </trkpt>
      <trkpt lat="42.557617" lon="0.297729">
        <ele>1633.0</ele>
        <time>2009-05-24T11:01:38Z</time>
      </trkpt>
      <trkpt lat="42.557717" lon="0.297702">
        <ele>1633.0</ele>
        <time>2009-05-24T11:01:46Z</time>
      </trkpt>
      <trkpt lat="42.557803" lon="0.297657">
        <ele>1633.0</ele>
        <time>2009-05-24T11:01:53Z</time>
      </trkpt>
      <trkpt lat="42.557896" lon="0.297630">
        <ele>1633.0</ele>
        <time>2009-05-24T11:02:00Z</time>
      </trkpt>
      <trkpt lat="42.557983" lon="0.297585">
        <ele>1624.0</ele>
        <time>2009-05-24T11:02:07Z</time>
      </trkpt>
      <trkpt lat="42.558082" lon="0.297549">
        <ele>1624.0</ele>
        <time>2009-05-24T11:02:15Z</time>
      </trkpt>
      <trkpt lat="42.558182" lon="0.297531">
        <ele>1615.0</ele>
        <time>2009-05-24T11:02:22Z</time>
      </trkpt>
      <trkpt lat="42.558275" lon="0.297486">
        <ele>1615.0</ele>
        <time>2009-05-24T11:02:28Z</time>
      </trkpt>
      <trkpt lat="42.558375" lon="0.297459">
        <ele>1615.0</ele>
        <time>2009-05-24T11:02:35Z</time>
      </trkpt>
      <trkpt lat="42.558461" lon="0.297396">
        <ele>1615.0</ele>
        <time>2009-05-24T11:02:42Z</time>
      </trkpt>
      <trkpt lat="42.558527" lon="0.297288">
        <ele>1615.0</ele>
        <time>2009-05-24T11:02:49Z</time>
      </trkpt>
      <trkpt lat="42.558554" lon="0.297172">
        <ele>1615.0</ele>
        <time>2009-05-24T11:02:54Z</time>
      </trkpt>
      <trkpt lat="42.558541" lon="0.297037">
        <ele>1615.0</ele>
        <time>2009-05-24T11:03:02Z</time>
      </trkpt>
      <trkpt lat="42.558507" lon="0.296911">
        <ele>1615.0</ele>
        <time>2009-05-24T11:03:10Z</time>
      </trkpt>
      <trkpt lat="42.558454" lon="0.296803">
        <ele>1615.0</ele>
        <time>2009-05-24T11:03:18Z</time>
      </trkpt>
      <trkpt lat="42.558401" lon="0.296705">
        <ele>1610.0</ele>
        <time>2009-05-24T11:03:25Z</time>
      </trkpt>
      <trkpt lat="42.558308" lon="0.296651">
        <ele>1610.0</ele>
        <time>2009-05-24T11:03:33Z</time>
      </trkpt>
      <trkpt lat="42.558215" lon="0.296615">
        <ele>1602.0</ele>
        <time>2009-05-24T11:03:40Z</time>
      </trkpt>
      <trkpt lat="42.558129" lon="0.296561">
        <ele>1602.0</ele>
        <time>2009-05-24T11:03:47Z</time>
      </trkpt>
      <trkpt lat="42.558043" lon="0.296498">
        <ele>1602.0</ele>
        <time>2009-05-24T11:03:55Z</time>
      </trkpt>
      <trkpt lat="42.557963" lon="0.296435">
        <ele>1596.0</ele>
        <time>2009-05-24T11:04:02Z</time>
      </trkpt>
      <trkpt lat="42.557890" lon="0.296363">
        <ele>1596.0</ele>
        <time>2009-05-24T11:04:08Z</time>
      </trkpt>
      <trkpt lat="42.557803" lon="0.296300">
        <ele>1596.0</ele>
        <time>2009-05-24T11:04:15Z</time>
      </trkpt>
      <trkpt lat="42.557710" lon="0.296237">
        <ele>1596.0</ele>
        <time>2009-05-24T11:04:23Z</time>
      </trkpt>
      <trkpt lat="42.557624" lon="0.296184">
        <ele>1596.0</ele>
        <time>2009-05-24T11:04:30Z</time>
      </trkpt>
      <trkpt lat="42.557551" lon="0.296085">
        <ele>1596.0</ele>
        <time>2009-05-24T11:04:38Z</time>
      </trkpt>
      <trkpt lat="42.557505" lon="0.295959">
        <ele>1603.0</ele>
        <time>2009-05-24T11:04:46Z</time>
      </trkpt>
      <trkpt lat="42.557498" lon="0.295833">
        <ele>1610.0</ele>
        <time>2009-05-24T11:04:53Z</time>
      </trkpt>
      <trkpt lat="42.557531" lon="0.295716">
        <ele>1719.0</ele>
        <time>2009-05-24T11:06:47Z</time>
      </trkpt>
      <trkpt lat="42.557611" lon="0.295645">
        <ele>1623.0</ele>
        <time>2009-05-24T11:09:29Z</time>
      </trkpt>
    </trkseg>
  </trk>
</gpx>

